[[{"header":{"parameterUnit":"m.s-1","parameterCategory":1,"la1":30.6,"la2":28.766,"lo1":-90.7593,"lo2":-88.6598,"dy":0.0162,"dx":0.0183,"nx":116,"ny":114,"refTime":"2024-06-15T00:00:00:Z","depth":0,"parameterNumber":2,"parameterNumberName":"U-component_of_WINDS"},"data":[0.0,0.0,0.0,0.0,0.0,0.0,0.0,0.0,0.0,0.0,0.0,0.0,0.0,0.0,0.0,0.0,0.0,0.0,0.0,0.0,0.0,0.0,0.0,0.0,0.0,0.0,0.0,0.0,0.0,0.0,0.0,0.0,0.0,0.0,0.0,0.0,0.0,0.0,0.0,0.0,0.0,0.0,0.0,0.0,0.0,0.0,0.0,0.0,0.0,0.0,0.0,0.0,0.0,0.0,0.0,0.0,0.0,0.0,0.0,0.0,0.0,0.0,0.0,0.0,0.0,0.0,0.0,0.0,0.0,0.0,0.0,0.0,0.0,0.0,0.0,0.0,0.0,0.0,0.0,0.0,0.0,0.0,0.0,0.0,0.0,0.0,0.0,0.0,0.0,0.0,0.0,0.0,0.0,0.0,0.0,0.0,0.0,0.0,0.0,0.0,0.0,0.0,0.0,0.0,0.0,0.0,0.0,0.0,0.0,0.0,0.0,0.0,0.0,0.0,0.0,0.0,0.0,0.0,0.0,0.0,0.0,0.0,0.0,0.0,0.0,0.0,0.0,0.0,0.0,0.0,0.0,0.0,0.0,0.0,0.0,0.0,0.0,0.0,0.0,0.0,0.0,0.0,0.0,0.0,0.0,0.0,0.0,0.0,0.0,0.0,0.0,0.0,0.0,0.0,0.0,0.0,0.0,0.0,0.0,0.0,0.0,0.0,0.0,0.0,0.0,0.0,0.0,0.0,0.0,0.0,0.0,0.0,0.0,0.0,0.0,0.0,0.0,0.0,0.0,0.0,0.0,0.0,0.0,0.0,0.0,0.0,0.0,0.0,0.0,0.0,0.0,0.0,0.0,0.0,0.0,0.0,0.0,0.0,0.0,0.0,0.0,0.0,0.0,0.0,0.0,0.0,0.0,0.0,0.0,0.0,0.0,0.0,0.0,0.0,0.0,0.0,0.0,0.0,0.0,0.0,0.0,0.0,0.0,0.0,0.0,0.0,0.0,0.0,0.0,0.0,0.0,0.0,0.0,0.0,0.0,0.0,0.0,0.0,0.0,0.0,0.0,0.0,0.0,0.0,0.0,0.0,0.0,0.0,0.0,0.0,0.0,0.0,0.0,0.0,0.0,0.0,0.0,0.0,0.0,0.0,0.0,0.0,0.0,0.0,0.0,0.0,0.0,0.0,0.0,0.0,0.0,0.0,0.0,0.0,0.0,0.0,0.0,0.0,0.0,0.0,0.0,0.0,0.0,0.0,0.0,0.0,0.0,0.0,0.0,0.0,0.0,0.0,0.0,0.0,0.0,0.0,0.0,0.0,0.0,0.0,0.0,0.0,0.0,0.0,0.0,0.0,0.0,0.0,0.0,0.0,0.0,0.0,0.0,0.0,0.0,0.0,0.0,0.0,0.0,0.0,0.0,0.0,0.0,0.0,0.0,0.0,0.0,0.0,0.0,0.0,0.0,0.0,0.0,0.0,0.0,0.0,0.0,0.0,0.0,0.0,0.0,0.0,0.0,0.0,0.0,0.0,0.0,0.0,0.0,0.0,0.0,0.0,0.0,0.0,0.0,0.0,0.0,0.0,0.0,0.0,0.0,0.0,0.0,0.0,0.0,0.0,0.0,0.0,0.0,0.0,0.0,0.0,0.0,0.0,0.0,0.0,0.0,0.0,0.0,0.0,0.0,0.0,0.0,0.0,0.0,0.0,0.0,0.0,0.0,0.0,0.0,0.0,0.0,0.0,0.0,0.0,0.0,0.0,0.0,0.0,0.0,0.0,0.0,0.0,0.0,0.0,0.0,0.0,0.0,0.0,0.0,0.0,0.0,0.0,0.0,0.0,0.0,0.0,0.0,0.0,0.0,0.0,0.0,0.0,0.0,0.0,0.0,0.0,0.0,0.0,0.0,0.0,0.0,0.0,0.0,0.0,0.0,0.0,0.0,0.0,0.0,0.0,0.0,0.0,0.0,0.0,0.0,0.0,0.0,0.0,0.0,0.0,0.0,0.0,0.0,0.0,0.0,0.0,0.0,0.0,0.0,0.0,0.0,0.0,0.0,0.0,0.0,0.0,0.0,0.0,0.0,0.0,0.0,0.0,0.0,0.0,0.0,0.0,0.0,0.0,0.0,0.0,0.0,0.0,0.0,0.0,0.0,0.0,0.0,0.0,0.0,0.0,0.0,0.0,0.0,0.0,0.0,0.0,0.0,0.0,0.0,0.0,0.0,0.0,0.0,0.0,0.0,0.0,0.0,0.0,0.0,0.0,0.0,0.0,0.0,0.0,0.0,0.0,0.0,0.0,0.0,0.0,0.0,0.0,0.0,0.0,0.0,0.0,0.0,0.0,0.0,0.0,0.0,0.0,0.0,0.0,0.0,0.0,0.0,0.0,0.0,0.0,0.0,0.0,0.0,0.0,0.0,0.0,0.0,0.0,0.0,0.0,0.0,0.0,0.0,0.0,0.0,0.0,0.0,0.0,0.0,0.0,0.0,0.0,0.0,0.0,0.0,0.0,0.0,0.0,0.0,0.0,0.0,0.0,0.0,0.0,0.0,0.0,0.0,0.0,0.0,0.0,0.0,0.0,0.0,0.0,0.0,0.0,0.0,0.0,0.0,0.0,0.0,0.0,0.0,0.0,0.0,0.0,0.0,0.0,0.0,0.0,0.0,0.0,0.0,0.0,0.0,0.0,0.0,0.0,0.0,0.0,0.0,0.0,0.0,0.0,0.0,0.0,0.0,0.0,0.0,0.0,0.0,0.0,0.0,0.0,0.0,0.0,0.0,0.0,0.0,0.0,0.0,0.0,0.0,0.0,0.0,0.0,0.0,0.0,0.0,0.0,0.0,0.0,0.0,0.0,0.0,0.0,0.0,0.0,0.0,0.0,0.0,0.0,0.0,0.0,0.0,0.0,0.0,0.0,0.0,0.0,0.0,0.0,0.0,0.0,0.0,0.0,0.0,0.0,0.0,0.0,0.0,0.0,0.0,0.0,0.0,0.0,0.0,0.0,0.0,0.0,0.0,0.0,0.0,0.0,0.0,0.0,0.0,0.0,0.0,0.0,0.0,0.0,0.0,0.0,0.0,0.0,0.0,0.0,0.0,0.0,0.0,0.0,0.0,0.0,0.0,0.0,0.0,0.0,0.0,0.0,0.0,0.0,0.0,0.0,0.0,0.0,0.0,0.0,0.0,0.0,0.0,0.0,0.0,0.0,0.0,0.0,0.0,0.0,0.0,0.0,0.0,0.0,0.0,0.0,0.0,0.0,0.0,0.0,0.0,0.0,0.0,0.0,0.0,0.0,0.0,0.0,0.0,0.0,0.0,0.0,0.0,0.0,0.0,0.0,0.0,0.0,0.0,0.0,0.0,0.0,0.0,0.0,0.0,0.0,0.0,0.0,0.0,0.0,0.0,0.0,0.0,0.0,0.0,0.0,0.0,0.0,0.0,0.0,0.0,0.0,0.0,0.0,0.0,0.0,0.0,0.0,0.0,0.0,0.0,0.0,0.0,0.0,0.0,0.0,0.0,0.0,0.0,0.0,0.0,0.0,0.0,0.0,0.0,0.0,0.0,0.0,0.0,0.0,0.0,0.0,0.0,0.0,0.0,0.0,0.0,0.0,0.0,0.0,0.0,0.0,0.0,0.0,0.0,0.0,0.0,0.0,0.0,0.0,0.0,0.0,0.0,0.0,0.0,0.0,0.0,0.0,0.0,0.0,0.0,0.0,0.0,0.0,0.0,0.0,0.0,0.0,0.0,0.0,0.0,0.0,0.0,0.0,0.0,0.0,0.0,0.0,0.0,0.0,0.0,0.0,0.0,0.0,0.0,0.0,0.0,0.0,0.0,0.0,0.0,0.0,0.0,0.0,0.0,0.0,0.0,0.0,0.0,0.0,0.0,0.0,0.0,0.0,0.0,0.0,0.0,0.0,0.0,0.0,0.0,0.0,0.0,0.0,0.0,0.0,0.0,0.0,0.0,0.0,0.0,0.0,0.0,0.0,0.0,0.0,0.0,0.0,0.0,0.0,0.0,0.0,0.0,0.0,0.0,0.0,0.0,0.0,0.0,0.0,0.0,0.0,0.0,0.0,0.0,0.0,0.0,0.0,0.0,0.0,0.0,0.0,0.0,0.0,0.0,0.0,0.0,0.0,0.0,0.0,0.0,0.0,0.0,0.0,0.0,0.0,0.0,0.0,0.0,0.0,0.0,0.0,0.0,0.0,0.0,0.0,0.0,0.0,0.0,0.0,0.0,0.0,0.0,0.0,0.0,0.0,0.0,0.0,0.0,0.0,0.0,0.0,0.0,0.0,0.0,0.0,0.0,0.0,0.0,0.0,0.0,0.0,0.0,0.0,0.0,0.0,0.0,0.0,0.0,0.0,0.0,0.0,0.0,0.0,0.0,0.0,0.0,0.0,0.0,0.0,0.0,0.0,0.0,0.0,0.0,0.0,0.0,0.0,0.0,0.0,0.0,0.0,0.0,0.0,0.0,0.0,0.0,0.0,0.0,0.0,0.0,0.0,0.0,0.0,0.0,0.0,0.0,0.0,0.0,0.0,0.0,0.0,0.0,0.0,0.0,0.0,0.0,0.0,0.0,0.0,0.0,0.0,0.0,0.0,0.0,0.0,0.0,0.0,0.0,0.0,0.0,0.0,0.0,0.0,0.0,0.0,0.0,0.0,0.0,0.0,0.0,0.0,0.0,0.0,0.0,0.0,0.0,0.0,0.0,0.0,0.0,0.0,0.0,0.0,0.0,0.0,0.0,0.0,0.0,0.0,0.0,0.0,0.0,0.0,0.0,0.0,0.0,0.0,0.0,0.0,0.0,0.0,0.0,0.0,0.0,0.0,0.0,0.0,0.0,0.0,0.0,0.0,0.0,0.0,0.0,0.0,0.0,0.0,0.0,0.0,0.0,0.0,0.0,0.0,0.0,0.0,0.0,0.0,0.0,0.0,0.0,0.0,0.0,0.0,0.0,0.0,0.0,0.0,0.0,0.0,0.0,0.0,0.0,0.0,0.0,0.0,0.0,0.0,0.0,0.0,0.0,0.0,0.0,0.0,0.0,0.0,0.0,0.0,0.0,0.0,0.0,0.0,0.0,0.0,0.0,0.0,0.0,0.0,0.0,0.0,0.0,0.0,0.0,0.0,0.0,0.0,0.0,0.0,0.0,0.0,0.0,0.0,0.0,0.0,0.0,0.0,0.0,0.0,0.0,0.0,0.0,0.0,0.0,0.0,0.0,0.0,0.0,0.0,0.0,0.0,0.0,0.0,0.0,0.0,0.0,0.0,0.0,0.0,0.0,0.0,0.0,0.0,0.0,0.0,0.0,0.0,0.0,0.0,0.0,0.0,0.0,0.0,0.0,0.0,0.0,0.0,0.0,0.0,0.0,0.0,0.0,0.0,0.0,0.0,0.0,0.0,0.0,0.0,0.0,0.0,0.0,0.0,0.0,0.0,0.0,0.0,0.0,0.0,0.0,0.0,0.0,0.0,0.0,0.0,0.0,0.0,0.0,0.0,0.0,0.0,0.0,0.0,0.0,0.0,0.0,0.0,0.0,0.0,0.0,0.0,0.0,0.0,0.0,0.0,0.0,0.0,0.0,0.0,0.0,0.0,0.0,0.0,0.0,0.0,0.0,0.0,0.0,0.0,0.0,0.0,0.0,0.0,0.0,0.0,0.0,0.0,0.0,0.0,0.0,0.0,0.0,0.0,0.0,0.0,0.0,0.0,0.0,0.0,0.0,0.0,0.0,0.0,0.0,0.0,0.0,0.0,0.0,0.0,0.0,0.0,0.0,0.0,0.0,0.0,0.0,0.0,0.0,0.0,0.0,0.0,0.0,0.0,0.0,0.0,0.0,0.0,0.0,0.0,0.0,0.0,0.0,0.0,0.0,0.0,0.0,0.0,0.0,0.0,0.0,0.0,0.0,0.0,0.0,0.0,0.0,0.0,0.0,0.0,0.0,0.0,0.0,0.0,0.0,0.0,0.0,0.0,0.0,0.0,0.0,0.0,0.0,0.0,0.0,0.0,0.0,0.0,0.0,0.0,0.0,0.0,0.0,0.0,0.0,0.0,0.0,0.0,0.0,0.0,0.0,0.0,-3.6333,-3.5991,0.0,0.0,0.0,0.0,0.0,0.0,0.0,0.0,0.0,0.0,0.0,0.0,0.0,0.0,0.0,0.0,0.0,0.0,0.0,0.0,0.0,0.0,0.0,-1.5848,-1.6389,-1.7033,-1.7077,-1.715,-1.7264,0.0,0.0,0.0,0.0,0.0,-1.614,-1.614,-1.6052,-1.5877,-1.5716,-1.5628,-1.5613,-1.5306,-1.4823,-1.4247,0.0,0.0,0.0,0.0,0.0,0.0,0.0,0.0,0.0,0.0,0.0,0.0,0.0,0.0,0.0,0.0,0.0,0.0,0.0,0.0,0.0,0.0,0.0,0.0,0.0,0.0,0.0,0.0,0.0,0.0,0.0,0.0,0.0,0.0,0.0,0.0,0.0,0.0,0.0,0.0,0.0,0.0,0.0,0.0,0.0,0.0,0.0,0.0,0.0,0.0,0.0,0.0,0.0,0.0,0.0,0.0,0.0,0.0,0.0,0.0,0.0,0.0,0.0,0.0,0.0,0.0,0.0,0.0,0.0,0.0,-3.7861,-3.7428,0.0,0.0,0.0,0.0,0.0,0.0,0.0,0.0,0.0,0.0,0.0,0.0,0.0,0.0,0.0,0.0,0.0,0.0,0.0,0.0,0.0,-1.4735,-1.5396,-1.6023,-1.6623,-1.7267,-1.7279,-1.7279,-1.7279,-1.7279,0.0,0.0,0.0,-1.6829,-1.6507,-1.6492,-1.6463,-1.6419,-1.6419,-1.6419,-1.6404,-1.6111,-1.557,-1.4834,-1.4731,0.0,0.0,0.0,0.0,0.0,0.0,0.0,0.0,0.0,0.0,0.0,0.0,0.0,0.0,0.0,0.0,0.0,0.0,0.0,0.0,0.0,0.0,0.0,0.0,0.0,0.0,0.0,0.0,0.0,0.0,0.0,0.0,0.0,0.0,0.0,0.0,0.0,0.0,0.0,0.0,0.0,0.0,0.0,0.0,0.0,0.0,0.0,0.0,0.0,0.0,0.0,0.0,0.0,0.0,0.0,0.0,0.0,0.0,0.0,0.0,0.0,0.0,0.0,-3.9722,-3.9973,-3.9973,-4.0206,-4.0309,-4.0259,-3.9574,-3.9087,-3.8853,-3.7906,0.0,0.0,0.0,0.0,0.0,0.0,0.0,0.0,0.0,0.0,0.0,0.0,0.0,0.0,0.0,0.0,0.0,0.0,0.0,-1.4823,-1.5745,-1.6155,-1.6623,-1.7267,-1.7279,-1.7279,-1.7279,-1.7279,0.0,0.0,-1.7267,-1.7121,-1.6844,-1.6829,-1.6697,-1.6419,-1.6419,-1.6419,-1.6419,-1.6375,-1.6287,-1.614,-1.554,-1.5104,-1.4842,0.0,0.0,0.0,0.0,0.0,0.0,0.0,0.0,0.0,0.0,0.0,0.0,0.0,0.0,0.0,0.0,0.0,0.0,0.0,0.0,0.0,0.0,0.0,0.0,0.0,0.0,0.0,0.0,0.0,0.0,0.0,0.0,0.0,0.0,0.0,0.0,0.0,0.0,0.0,0.0,0.0,-2.723,-2.7348,0.0,0.0,0.0,0.0,0.0,0.0,0.0,0.0,0.0,0.0,0.0,0.0,0.0,-3.9162,-3.9471,-4.0023,-4.03,-4.03,-4.0799,-4.1075,-4.1075,-4.1128,-4.1128,-4.1128,-4.1031,0.0,-3.9493,-3.934,0.0,0.0,0.0,0.0,0.0,0.0,0.0,0.0,0.0,0.0,0.0,0.0,0.0,0.0,0.0,0.0,0.0,0.0,0.0,0.0,0.0,-1.6184,-1.6623,-1.7267,-1.7279,-1.7279,-1.7279,-1.7279,-1.7279,-1.7279,-1.7279,-1.7267,-1.7121,-1.7121,-1.7135,-1.7179,-1.7369,-1.7457,-1.7457,-1.7457,-1.7457,-1.7443,-1.7165,-1.6565,-1.5716,-1.5323,0.0,0.0,0.0,0.0,0.0,0.0,0.0,0.0,0.0,0.0,0.0,0.0,0.0,0.0,0.0,0.0,0.0,0.0,0.0,0.0,0.0,0.0,0.0,0.0,0.0,0.0,0.0,0.0,0.0,0.0,0.0,0.0,0.0,0.0,0.0,0.0,0.0,0.0,0.0,-2.8005,-2.8617,-2.8943,-2.9448,-2.9876,0.0,0.0,0.0,0.0,0.0,0.0,0.0,0.0,0.0,-3.8364,-3.9721,-4.0595,-4.1078,-4.163,-4.1907,-4.1907,-4.2133,-4.2258,-4.2258,-4.2258,-4.2258,-4.2258,-4.2258,-4.1789,-4.1045,-4.036,-3.9626,-3.8842,0.0,0.0,0.0,0.0,-3.7526,-3.7931,0.0,0.0,0.0,0.0,0.0,0.0,0.0,0.0,0.0,0.0,0.0,0.0,-1.5921,-1.6228,-1.6623,-1.7267,-1.7279,-1.7279,-1.7279,-1.7279,-1.7279,-1.7279,-1.7279,-1.7323,-1.7457,-1.7483,-1.7691,-1.794,-1.8189,-1.8306,-1.8306,-1.8306,-1.8306,-1.8306,-1.8306,-1.7677,-1.6579,-1.6111,-1.5732,-1.5469,0.0,0.0,0.0,0.0,0.0,0.0,0.0,0.0,0.0,0.0,0.0,0.0,0.0,0.0,0.0,0.0,0.0,0.0,0.0,0.0,0.0,0.0,0.0,0.0,0.0,0.0,0.0,0.0,0.0,0.0,0.0,0.0,0.0,0.0,0.0,0.0,0.0,-2.93,-2.9954,-3.0653,-3.1078,-3.1449,0.0,0.0,0.0,0.0,0.0,0.0,-3.5144,-3.6809,-3.8231,-3.929,-4.0842,-4.2047,-4.2785,-4.3062,-4.3187,-4.3187,-4.3037,-4.2986,-4.2986,-4.2986,-4.2986,-4.2986,-4.2986,-4.2735,-4.2338,-4.1329,-4.0601,-4.0074,-3.9496,-3.912,-3.8843,-3.8693,-3.8642,-3.8642,0.0,0.0,0.0,0.0,0.0,0.0,0.0,0.0,0.0,0.0,0.0,-1.5236,-1.6287,-1.6404,-1.6623,-1.7267,-1.7279,-1.7279,-1.7279,-1.7279,-1.7279,-1.7279,-1.7279,-1.7425,-1.7779,-1.8101,-1.8262,-1.8277,-1.8291,-1.8306,-1.8306,-1.8306,-1.8306,-1.8306,-1.8306,-1.7925,-1.7235,-1.7206,-1.6666,-1.5891,-1.5862,0.0,0.0,0.0,0.0,0.0,0.0,0.0,0.0,0.0,0.0,0.0,0.0,0.0,0.0,0.0,0.0,0.0,0.0,0.0,0.0,0.0,0.0,0.0,0.0,0.0,0.0,0.0,0.0,0.0,0.0,0.0,0.0,0.0,0.0,0.0,0.0,0.0,0.0,-3.2092,-3.2231,0.0,0.0,0.0,0.0,-3.397,-3.4056,-3.4862,-3.6687,-3.7896,-3.9301,-4.1004,-4.2217,-4.3358,-4.4493,-4.4016,-4.3765,-4.374,-4.3212,-4.2986,-4.2986,-4.2986,-4.2986,-4.2986,-4.2986,-4.2961,-4.2886,-4.2363,-4.1756,-4.115,-4.0651,-4.0727,-4.105,-4.0576,-4.04,-4.04,0.0,0.0,0.0,0.0,0.0,-1.0006,-1.0694,-1.1752,-1.2775,-1.3593,-1.4481,-1.5372,-1.6287,-1.6595,-1.6945,-1.7589,-1.7647,-1.7735,-1.794,-1.7955,-1.7955,-1.7955,-1.7955,-1.8013,-1.813,-1.8452,-1.8613,-1.8613,-1.8833,-1.8921,-1.8921,-1.8921,-1.8921,-1.8921,-1.8921,-1.8686,-1.8247,-1.7823,-1.7443,-1.7106,-1.6682,-1.6389,0.0,0.0,0.0,0.0,0.0,0.0,0.0,0.0,0.0,0.0,0.0,0.0,0.0,0.0,0.0,0.0,0.0,0.0,0.0,0.0,0.0,0.0,0.0,0.0,0.0,0.0,0.0,0.0,0.0,0.0,0.0,0.0,0.0,0.0,0.0,0.0,0.0,-3.2189,-3.2763,0.0,-3.3679,-3.3735,-3.4217,-3.5378,-3.5732,-3.6426,-3.7617,-3.8757,-3.9919,-4.1067,-4.2257,-4.3284,-4.4091,-4.389,-4.379,-4.379,-4.3237,-4.2986,-4.2986,-4.2986,-4.2986,-4.2986,-4.2986,-4.2986,-4.2961,-4.276,-4.2359,-4.1856,-4.1656,-4.148,-4.125,-4.1075,-4.1,-4.1003,0.0,0.0,0.0,0.0,-0.939,-1.0213,-1.0822,-1.1852,-1.2792,-1.3561,-1.4421,-1.5347,-1.6195,-1.6692,-1.7191,-1.7765,-1.7911,-1.8072,-1.8291,-1.8306,-1.8306,-1.8306,-1.8408,-1.8467,-1.8467,-1.8789,-1.895,-1.895,-1.9169,-1.9272,-1.9272,-1.9272,-1.9272,-1.9272,-1.9272,-1.9155,-1.8921,-1.8496,-1.8174,-1.794,-1.7516,-1.7328,-1.7196,0.0,0.0,0.0,0.0,0.0,0.0,0.0,0.0,0.0,0.0,0.0,0.0,0.0,0.0,0.0,0.0,0.0,0.0,0.0,0.0,0.0,0.0,0.0,0.0,0.0,0.0,0.0,0.0,0.0,0.0,0.0,0.0,0.0,0.0,-3.1932,-3.2696,-3.3236,-3.3843,-3.4345,-3.4736,-3.4945,-3.5479,-3.6364,-3.6971,-3.764,-3.843,-3.9511,-4.0526,-4.1528,-4.2527,-4.3399,-4.4066,-4.389,-4.379,-4.379,-4.3237,-4.2986,-4.2986,-4.2986,-4.2986,-4.2986,-4.2986,-4.2986,-4.2986,-4.2986,-4.276,-4.2489,-4.2489,-4.2208,-4.1882,-4.1882,-4.1781,-4.1505,0.0,0.0,0.0,-0.8865,-0.9644,-1.042,-1.1066,-1.1981,-1.2824,-1.3568,-1.4322,-1.5133,-1.5965,-1.6654,-1.7217,-1.776,-1.813,-1.8321,-1.8335,-1.8335,-1.8335,-1.8335,-1.8628,-1.8803,-1.8803,-1.9111,-1.9272,-1.9272,-1.9286,-1.9338,-1.9338,-1.9301,-1.9301,-1.9301,-1.9301,-1.9301,-1.9301,-1.9301,-1.8921,-1.835,-1.8321,-1.813,-1.7808,0.0,0.0,0.0,0.0,0.0,0.0,0.0,0.0,0.0,0.0,0.0,0.0,0.0,0.0,0.0,0.0,0.0,0.0,0.0,0.0,0.0,0.0,0.0,0.0,0.0,0.0,0.0,0.0,0.0,0.0,0.0,0.0,0.0,-3.3037,-3.3124,-3.3712,-3.5233,-3.54,-3.5423,-3.5445,-3.5927,-3.642,-3.6937,-3.7698,-3.8488,-3.9344,-4.0223,-4.1191,-4.236,-4.3045,-4.3754,-4.4568,-4.4041,-4.379,-4.3765,-4.3237,-4.2986,-4.2986,-4.2986,-4.2986,-4.2986,-4.2986,-4.2986,-4.2986,-4.2986,-4.2986,-4.2986,-4.2986,-4.2986,-4.2986,-4.2986,-4.269,-4.2062,0.0,0.0,-0.7997,-0.8465,-0.9244,-0.9926,-1.0473,-1.131,-1.2148,-1.2893,-1.3855,-1.4694,-1.5429,-1.6461,-1.7292,-1.7802,-1.8367,-1.876,-1.8994,-1.9008,-1.9008,-1.9008,-1.9096,-1.914,-1.914,-1.9228,-1.9272,-1.9272,-1.9558,-1.9676,-1.9691,-1.9872,-1.9974,-1.9974,-1.9974,-1.9974,-1.9959,-1.9725,-1.9573,-1.9368,-1.8847,-1.8599,-1.8482,0.0,0.0,0.0,0.0,0.0,0.0,0.0,0.0,0.0,0.0,0.0,0.0,0.0,0.0,0.0,0.0,0.0,0.0,0.0,0.0,0.0,0.0,0.0,0.0,0.0,0.0,0.0,0.0,0.0,0.0,0.0,-3.2878,-3.3473,-3.322,-3.3799,-3.441,-3.484,-3.534,-3.5976,-3.6561,-3.6943,-3.7627,-3.8699,-3.9,-3.9591,-4.0629,-4.0942,-4.1508,-4.2453,-4.2648,-4.3006,-4.3438,-4.3288,-4.3212,-4.3212,-4.3062,-4.2986,-4.2986,-4.2986,-4.2986,-4.2986,-4.2986,-4.2986,-4.2986,-4.2986,-4.2986,-4.2986,-4.2986,-4.2986,-4.2986,-4.2986,-4.269,-4.2162,0.0,-0.7545,-0.7977,-0.8552,-0.9273,-0.9921,-1.039,-1.1031,-1.1732,-1.2473,-1.3213,-1.3973,-1.4778,-1.5992,-1.703,-1.7683,-1.8398,-1.8921,-1.9257,-1.9272,-1.933,-1.9477,-1.9529,-1.9535,-1.9681,-1.9681,-1.9681,-1.9681,-1.9872,-1.9959,-1.9959,-2.015,-2.0183,-2.0183,-2.0183,-2.0183,-2.0168,-2.0033,-1.9959,-1.993,-1.955,-1.9228,-1.895,-1.8628,-1.8394,-1.8203,-1.8072,-1.7896,-1.7735,-1.7735,0.0,0.0,0.0,0.0,0.0,0.0,0.0,0.0,0.0,0.0,0.0,0.0,0.0,0.0,0.0,0.0,0.0,0.0,0.0,0.0,0.0,0.0,0.0,0.0,-3.411,-3.4623,-3.4537,-3.4858,-3.5236,-3.5657,-3.6254,-3.6911,-3.7377,-3.7985,-3.87,-3.9594,-4.0026,-4.0574,-4.132,-4.1631,-4.1972,-4.2457,-4.2625,-4.2818,-4.2986,-4.2986,-4.2986,-4.2986,-4.2986,-4.2986,-4.2986,-4.2986,-4.2986,-4.2986,-4.2986,-4.2986,-4.2986,-4.2986,-4.2986,-4.2986,0.0,0.0,0.0,0.0,-4.2816,-4.2514,0.0,-0.7821,-0.8123,-0.8865,-0.9524,-1.0092,-1.0597,-1.0977,-1.1443,-1.2179,-1.2552,-1.3113,-1.4088,-1.5409,-1.6513,-1.728,-1.8232,-1.8935,-1.9257,-1.9368,-1.9514,-1.9808,-1.9852,-1.9945,-2.0168,-2.0183,-2.0183,-2.0183,-2.0212,-2.0241,-2.0241,-2.027,-2.0285,-2.0285,-2.0285,-2.0285,-2.0285,-2.0256,-2.0241,-2.0227,-2.0197,-1.9872,-1.9301,-1.9008,-1.8891,-1.8862,-1.8525,-1.8438,-1.8467,-1.8423,0.0,0.0,0.0,0.0,0.0,0.0,0.0,0.0,0.0,0.0,0.0,0.0,0.0,0.0,0.0,0.0,0.0,0.0,0.0,0.0,0.0,0.0,0.0,0.0,-3.5442,-3.6024,-3.6608,-3.6307,-3.6309,-3.7113,-3.7738,-3.8123,-3.817,-3.9099,-3.9836,-4.0111,-4.0851,-4.1402,-4.1663,-4.2231,0.0,0.0,0.0,-4.2986,-4.2986,-4.2986,-4.2986,-4.2986,-4.2986,-4.2986,-4.2986,-4.2986,-4.2986,-4.2986,-4.2986,-4.2986,-4.2986,-4.2986,-4.2986,-4.2986,-4.2986,-4.2986,-4.2986,-4.2986,-4.2986,-4.2911,0.0,-0.7935,-0.8446,-0.8969,-0.9272,-0.9667,-1.0274,-1.0449,-1.0727,-1.1405,-1.1911,-1.2592,-1.3561,-1.4862,-1.5882,-1.65,-1.7703,-1.873,-1.9257,-1.9573,-1.9749,-1.9808,-2.0003,-2.0179,-2.0183,-2.0183,-2.0183,-2.0183,-2.0446,-2.0577,-2.0633,-2.0896,-2.1028,-2.1028,-2.1028,-2.1028,-2.0998,-2.0735,-2.0577,-2.0603,-2.0285,-2.0003,-1.972,-1.9647,-1.9632,-1.9588,-1.925,-1.9257,-1.9485,-1.9169,-1.8906,-1.8701,-1.8701,-1.8888,0.0,0.0,0.0,0.0,0.0,0.0,0.0,0.0,0.0,0.0,0.0,0.0,0.0,0.0,0.0,0.0,0.0,0.0,0.0,-3.5382,-3.6572,-3.7668,-3.8263,-3.8622,-3.8547,-3.7856,-3.8642,-3.945,-3.9882,-4.0539,-4.1135,-4.1631,-4.181,-4.2029,-4.2287,-4.2457,-4.2625,-4.2905,-4.2986,-4.2986,-4.2986,-4.2986,-4.2986,-4.2986,-4.2986,0.0,-4.2986,-4.2986,-4.2986,-4.2986,-4.2986,-4.2986,-4.2986,-4.2986,-4.2986,-4.2986,-4.2986,-4.2986,-4.2986,-4.2986,-4.2986,-4.2961,-0.7785,-0.8302,-0.8863,-0.9203,-0.9677,-1.01,-1.0449,-1.0498,-1.0676,-1.1232,-1.1543,-1.2128,-1.3043,-1.4316,-1.5373,-1.6051,-1.7524,-1.8577,-1.9049,-1.9526,-1.9828,-1.9989,-2.0311,-2.0559,-2.072,-2.072,-2.072,-2.072,-2.0881,-2.0969,-2.0969,-2.113,-2.1203,-2.1203,-2.1203,-2.1203,-2.1203,-2.1042,-2.0969,-2.0955,-2.0794,-2.053,-2.0223,-2.0062,-2.0003,-1.9974,-1.9813,-1.9857,-1.9945,-1.9623,-1.952,-1.9491,-1.9472,-1.9896,-2.0487,0.0,0.0,0.0,0.0,0.0,0.0,0.0,0.0,0.0,0.0,0.0,0.0,0.0,0.0,-3.3146,-3.4168,0.0,-3.5871,-3.6858,-3.7729,-3.8592,-3.9292,-4.0019,-4.0165,-3.9279,-3.9909,-4.0592,-4.0804,-4.1377,-4.1872,-4.2287,-4.2312,-4.2425,-4.2737,-4.2737,-4.2818,-4.2961,-4.2986,-4.2986,-4.2986,-4.2986,-4.2986,-4.2986,-4.2986,-4.2986,-4.2986,-4.2986,-4.2986,-4.2986,-4.2986,-4.2986,-4.2986,-4.2986,-4.2986,-4.2986,-4.2986,-4.2986,-4.2986,-4.2986,-4.2986,-4.2986,-0.8067,-0.8677,-0.921,-0.9439,-1.0049,-1.0543,-1.0668,-1.0653,-1.0808,-1.1253,-1.1451,-1.1905,-1.285,-1.3968,-1.5101,-1.6117,-1.7446,-1.8482,-1.9031,-1.9575,-1.9989,-2.0256,-2.0647,-2.094,-2.1203,-2.1203,-2.1203,-2.1203,-2.1203,-2.1247,-2.1306,-2.1306,-2.1335,-2.1393,-2.1393,-2.1393,-2.1393,-2.1335,-2.1306,-2.1306,-2.1233,-2.1057,-2.0794,-2.053,-2.0329,-2.027,-2.0212,-2.0227,-2.0227,-1.9959,-2.0072,-2.0303,-2.036,-2.0987,-2.185,-2.2761,-2.3824,0.0,0.0,0.0,0.0,0.0,0.0,0.0,0.0,-3.1779,-3.2718,-3.3382,-3.4109,-3.4895,-3.578,-3.63,-3.7009,-3.8411,-3.8977,-3.9522,-4.0208,-4.1047,-4.1386,-4.1027,-4.1342,-4.1502,-4.1502,-4.1952,-4.2369,-4.2569,-4.2569,-4.2706,-4.2986,-4.2986,-4.2986,-4.2986,-4.2986,-4.2986,-4.2986,-4.2986,-4.2986,-4.2986,-4.2986,-4.2986,-4.2986,-4.2986,-4.2986,-4.2986,-4.2986,-4.2986,-4.2986,-4.2986,-4.2986,-4.2986,-4.2986,-4.2986,-4.2986,-4.2986,-4.2986,-4.2986,0.0,-0.8788,-0.9411,-0.9614,-0.9695,-0.996,-1.0618,-1.0496,-1.0578,-1.1207,-1.1727,-1.236,-1.3321,-1.4196,-1.5432,-1.7266,-1.7576,-1.8238,-1.9599,-2.0003,-2.0325,-2.0647,-2.0984,-2.1174,-2.1203,-2.1203,-2.1203,-2.1203,-2.1203,-2.1364,-2.1642,-2.1642,-2.1803,-2.2081,-2.2081,-2.2081,-2.2052,-2.1759,-2.1642,-2.1613,-2.132,-2.1189,-2.1159,-2.1115,-2.0925,-2.0633,-2.0285,-2.0373,-2.0618,-2.0296,-2.0372,-2.0659,-2.0939,-2.1603,-2.2494,-2.3347,-2.4386,-2.5481,-2.6288,-2.7554,-2.8901,-2.9673,-3.0423,-3.1275,0.0,-3.2887,-3.3382,-3.4643,-3.5184,-3.5856,-3.7075,-3.7949,-3.8683,-3.9369,-4.0342,-4.1127,-4.1428,-4.2035,-4.2469,-4.2674,-4.2501,-4.2382,-4.2382,-4.2656,-4.293,-4.293,-4.2905,-4.2986,-4.2986,-4.2986,-4.2986,-4.2986,-4.2986,-4.2986,-4.2986,-4.2986,-4.2986,-4.2986,-4.2986,-4.2986,-4.2986,-4.2986,-4.2986,-4.2986,-4.2986,-4.2986,-4.2986,-4.2986,-4.2986,-4.2986,-4.2986,-4.2986,-4.2986,-4.2986,-4.2986,-4.2986,0.0,-0.8596,-0.9145,-0.9634,-1.0021,-1.0373,-1.0809,-1.0689,-1.0798,-1.1608,-1.1957,-1.2499,-1.3609,-1.458,-1.5735,-1.7158,-1.7463,-1.8158,-1.943,-1.9954,-2.0329,-2.0706,-2.1042,-2.1203,-2.1203,-2.1203,-2.1306,-2.1496,-2.1496,-2.1657,-2.1979,-2.1979,-2.2052,-2.2184,-2.2184,-2.2184,-2.2169,-2.2037,-2.1979,-2.195,-2.1628,-2.1496,-2.1467,-2.1276,-2.1244,-2.121,-2.0908,-2.1009,0.0,-2.0911,-2.1259,-2.1825,-2.212,-2.295,-2.3989,-2.5003,-2.6023,-2.7141,-2.8608,-2.944,-3.0233,-3.1349,-3.1945,-3.2576,-3.3732,-3.4294,-3.4894,-3.6231,-3.699,-3.7713,-3.8556,-3.9279,-3.9965,-4.0525,-4.1127,-4.1651,-4.214,-4.2557,-4.2874,-4.2986,-4.2874,-4.2818,-4.2818,-4.293,-4.2986,-4.2986,-4.2986,-4.2986,-4.2986,-4.2986,-4.2986,-4.2986,-4.2986,-4.2986,-4.2986,-4.2986,-4.2986,-4.2986,-4.2986,-4.2986,-4.2986,-4.2986,-4.2986,-4.2986,-4.2986,-4.2986,-4.3011,-4.3313,-4.3463,-4.3489,-4.3815,-4.374,-4.3413,-4.3087,-4.2986,-4.2986,0.0,-0.8617,-0.9117,-0.9746,-1.0385,-1.0862,-1.1046,-1.0949,-1.1193,-1.212,-1.2415,-1.2974,-1.4232,-1.5057,-1.6024,-1.7122,-1.7463,-1.8108,-1.9377,-1.9899,-2.0329,-2.0706,-2.1042,-2.1203,-2.1203,-2.1203,-2.1364,-2.1701,-2.1701,-2.1906,-2.2301,-2.2301,-2.2359,-2.2432,-2.2432,-2.2432,-2.2432,-2.2345,-2.2301,-2.2271,-2.1862,-2.1701,-2.1657,-2.145,-2.1489,-2.166,-2.1272,-2.1469,0.0,-2.1415,-2.185,-2.2688,-2.3021,-2.406,-2.5338,-2.6371,-2.7599,-2.8965,-3.0558,-3.1112,-3.1538,-3.2728,-3.3268,-3.3852,-3.507,-3.5825,-3.6588,-3.7722,-3.8547,-3.9207,-3.9737,-4.022,-4.0746,-4.131,-4.1607,-4.1979,-4.2375,-4.265,-4.2874,-4.2874,-4.293,-4.2986,-4.2986,-4.2986,-4.2986,-4.2986,-4.2986,-4.2986,-4.2986,-4.2986,-4.2986,-4.2986,-4.2986,-4.2986,-4.2986,-4.2986,-4.2986,-4.2986,-4.2986,-4.3042,-4.3129,-4.3209,-4.3265,-4.3265,-4.3154,-4.3129,-4.3123,-4.362,-4.379,-4.384,-4.4242,-4.4141,-4.374,-4.3187,-4.2986,-4.2986,0.0,0.0,-0.9572,-1.0192,-1.0679,-1.1068,-1.1241,-1.1284,-1.163,-1.2621,-1.3247,-1.4047,-1.5292,-1.5642,-1.6265,-1.7456,-1.7612,-1.8209,-1.9696,-2.0062,-2.0329,-2.0706,-2.1042,-2.1203,-2.1203,-2.1203,-2.1364,-2.1701,-2.1701,-2.2008,-2.2608,-2.2608,-2.2769,-2.3076,-2.3076,-2.3076,-2.3062,-2.274,-2.2608,-2.255,-2.195,-2.1701,-2.1715,-2.168,-2.166,-2.1631,-2.1231,0.0,-2.1954,-2.1596,-2.2027,-2.2794,-2.34,-2.4615,-2.6056,-2.6902,-2.8807,-3.0772,-3.1575,-3.221,-3.2804,-3.3606,-3.4183,-3.508,-3.6681,-3.7409,-3.8068,-3.8967,-3.9395,-3.9761,-4.0258,-4.0636,-4.095,-4.1485,-4.1891,-4.2086,-4.211,-4.2369,-4.2513,-4.2513,-4.2818,-4.2986,-4.2986,-4.2986,-4.2986,-4.2986,-4.2986,-4.2986,-4.2986,-4.2986,-4.2986,-4.2986,-4.2986,-4.2986,-4.2986,-4.2986,-4.2986,-4.2986,-4.2986,-4.3129,-4.3406,-4.3708,-4.3899,-4.3844,-4.3517,-4.3381,-4.3432,-4.3677,-4.379,-4.379,-4.3815,-4.3815,-4.374,-4.3187,-4.2986,-4.2986,0.0,0.0,0.0,-1.1098,-1.1505,-1.1916,-1.2419,-1.21,-1.2197,-1.3378,-1.4318,0.0,0.0,0.0,0.0,0.0,-1.7909,-1.8605,-1.9711,-1.9857,-2.0164,-2.0706,-2.0823,-2.0984,-2.1203,-2.1203,-2.1364,-2.1701,-2.1701,-2.2008,-2.2623,-2.2623,-2.2798,-2.3106,-2.3106,-2.2988,-2.2798,-2.2901,-2.2818,-2.2601,-2.2394,-2.2289,-2.2299,-2.231,-2.2513,-2.2814,0.0,-2.2493,-2.2512,-2.2538,-2.3118,-2.4017,-2.5057,-2.6033,-2.7156,-2.8993,-3.0196,-3.1305,-3.2738,-3.328,-3.3857,-3.5533,-3.6122,-3.6746,-3.8359,-3.8911,-3.9275,-4.0105,-4.0314,-4.0483,-4.0868,-4.123,-4.1577,-4.1745,-4.22,-4.2559,-4.2818,-4.2616,-4.2512,-4.2741,-4.2535,-4.2481,-4.2625,-4.2849,-4.2986,-4.2986,-4.2986,-4.2986,-4.2986,-4.2986,-4.2986,-4.2986,-4.2986,-4.2986,-4.2986,-4.3184,-4.3295,-4.3295,-4.3487,-4.3857,-4.43,-4.4356,-4.4643,-4.5001,-4.4945,-4.4863,-4.4914,-4.5304,-4.5559,-4.5559,-4.5559,-4.533,-4.4922,-4.4306,-4.3873,-4.3543,0.0,0.0,0.0,0.0,0.0,0.0,0.0,0.0,0.0,0.0,0.0,0.0,0.0,0.0,0.0,0.0,0.0,-1.8766,-1.955,-1.9749,-1.9945,-2.0369,-2.0603,-2.0823,-2.1028,-2.1145,-2.1364,-2.1701,-2.1701,-2.1964,-2.2462,-2.2462,-2.2579,-2.2784,-2.2784,-2.2667,-2.2476,-2.2804,-2.2778,-2.2587,-2.269,-2.2803,-2.2921,-2.3035,-2.34,0.0,-2.386,-2.39,-2.3857,-2.3667,-2.407,-2.4869,-2.6054,-2.7232,-2.8608,-3.0508,-3.1548,-3.2351,-3.3671,-3.4494,-3.5333,-3.6741,-3.7539,-3.8319,-3.9618,-4.0127,-4.0439,-4.0886,-4.0926,-4.0853,-4.0755,-4.0856,-4.1082,-4.1389,-4.1698,-4.2102,-4.2616,-4.2421,-4.2317,-4.2549,-4.2258,-4.2167,-4.2369,-4.265,-4.2849,-4.2986,-4.2986,-4.2986,-4.2986,-4.2986,-4.2986,-4.2986,-4.3073,-4.3129,-4.3129,-4.3406,-4.3572,-4.3572,-4.3874,-4.4347,-4.4862,-4.4974,-4.5365,-4.5907,-4.5794,-4.5737,-4.5788,-4.6238,-4.6411,-4.6385,-4.618,-4.5898,-4.5488,-4.472,-4.4207,-4.3899,0.0,0.0,0.0,0.0,0.0,0.0,0.0,0.0,0.0,0.0,0.0,0.0,0.0,0.0,0.0,0.0,0.0,0.0,-1.9257,-1.9617,-1.9793,-1.9823,-2.034,-2.0676,-2.0691,-2.0998,-2.1306,-2.1628,-2.1642,-2.1818,-2.214,-2.2154,-2.2169,-2.2184,-2.2184,-2.2169,-2.2214,-2.2468,-2.2632,-2.2632,-2.296,-2.3284,-2.3607,-2.3891,-2.439,-2.4893,-2.511,-2.5504,-2.5821,-2.4827,-2.4896,-2.5566,-2.6474,-2.8333,-3.038,-3.1566,-3.279,-3.3901,-3.4481,-3.5837,-3.7146,-3.7248,-3.8453,-3.9785,-4.0315,-4.1132,-4.1558,-4.1248,-4.1115,-4.0745,-3.9873,-3.9485,-3.9574,-4.0297,-4.0472,-4.0838,-4.1653,-4.1852,-4.1907,-4.1883,-4.1947,-4.2054,-4.211,-4.2312,-4.2625,-4.2986,-4.2986,-4.2986,-4.2986,-4.2986,-4.2986,-4.2986,-4.324,-4.3381,-4.3381,-4.3764,-4.3955,-4.3955,-4.4255,-4.4649,-4.5274,-4.5578,-4.6029,-4.6552,-4.6269,-4.6099,-4.6124,-4.6405,-4.652,-4.6469,-4.5905,-4.5648,-4.5494,-4.4391,-4.398,-4.3955,0.0,0.0,0.0,0.0,0.0,0.0,0.0,0.0,0.0,0.0,0.0,0.0,0.0,0.0,0.0,0.0,0.0,0.0,-1.9272,-1.9412,-1.9558,-1.9808,-1.9969,-2.012,-2.03,-2.0387,-2.053,-2.0548,-2.0852,-2.113,-2.1467,-2.1715,-2.195,-2.2184,-2.2184,-2.2052,-2.1832,-2.2364,-2.2598,-2.2678,-2.3623,-2.4211,-2.458,-2.5238,-2.5753,-2.61,-2.631,-2.6586,-2.6755,-2.5985,-2.6852,-2.8291,-2.8834,-3.0105,-3.1599,-3.2681,-3.3377,-3.4208,-3.5992,-3.6754,-3.7474,-3.914,-3.973,-4.0194,-4.1428,-4.1493,-4.1233,-4.0894,-4.0455,-3.9814,-3.8848,-3.8927,-3.9235,-3.9545,-4.0383,-4.1113,-4.1561,-4.1733,-4.1768,-4.1602,-4.1509,-4.1598,-4.2054,-4.2167,-4.2425,-4.2986,-4.2986,-4.2986,-4.2986,-4.2986,-4.2986,-4.2986,-4.324,-4.3381,-4.3381,-4.3929,-4.4313,-4.4531,-4.5028,-4.5578,-4.6152,-4.6652,-4.7205,-4.7754,-4.7696,-4.7638,-4.7638,-4.7736,-4.773,-4.7678,-4.7106,-4.6612,-4.6169,-4.5441,-4.4895,-4.4531,0.0,0.0,0.0,0.0,0.0,0.0,0.0,0.0,0.0,0.0,0.0,0.0,0.0,0.0,0.0,0.0,0.0,0.0,0.0,-1.9272,-1.936,-1.9588,-1.9735,-1.9842,-2.0018,-2.0164,-2.0183,-2.0183,-2.0358,-2.0603,-2.0794,-2.1115,-2.1364,-2.1554,-2.1686,-2.1715,-2.1713,-2.2148,-2.2544,0.0,0.0,-2.4885,-2.5441,-2.6209,-2.6754,-2.7096,-2.7264,-2.7675,-2.813,-2.7931,-2.8725,-2.983,-3.0017,-3.1114,-3.2408,-3.3179,-3.4153,-3.5312,-3.6708,-3.778,-3.883,-4.0074,-4.066,-4.1096,-4.1728,-4.1516,-4.1,-4.0397,-3.9674,-3.8908,-3.8074,-3.8017,-3.8248,-3.8733,-3.9601,-4.0428,-4.0943,-4.1289,-4.1411,-4.1283,-4.1219,-4.1344,-4.1859,-4.2029,-4.2256,-4.2762,-4.293,-4.2986,-4.2986,-4.3129,-4.3184,-4.3184,-4.3572,-4.3848,-4.3958,-4.4287,-4.4585,-4.4694,-4.5294,-4.5924,-4.6499,-4.7074,-4.7649,-4.8172,-4.8172,-4.8172,-4.8172,-4.8172,-4.8172,-4.812,-4.7571,-4.697,-4.6421,-4.5846,-4.519,-4.4668,0.0,0.0,0.0,0.0,0.0,0.0,0.0,0.0,0.0,0.0,0.0,0.0,0.0,0.0,0.0,0.0,0.0,0.0,0.0,0.0,-1.9272,-1.9272,-1.9603,-1.9749,-1.9749,-1.9959,-2.0051,-2.0051,-2.015,-2.0179,-2.0124,-2.0501,-2.0662,-2.0676,-2.0955,-2.1299,-2.1568,-2.188,-2.2593,-2.3461,-2.4459,-2.5415,-2.6318,0.0,0.0,-2.8067,-2.8125,-2.8741,-2.961,-3.0012,-3.0394,-3.0671,-3.0732,-3.1795,-3.3074,-3.3603,-3.508,-3.6723,-3.7307,-3.8933,-4.0411,-4.0596,-4.1379,-4.1972,-4.1606,-4.1157,-4.0534,-3.9755,-3.8744,-3.7865,-3.7292,-3.7032,-3.7123,-3.7845,-3.8586,-3.9354,-4.0027,-4.062,-4.0975,-4.0905,-4.1089,-4.1344,-4.1663,-4.1972,-4.2256,-4.2538,-4.2849,-4.3017,-4.3017,-4.3295,-4.3462,-4.3517,-4.4039,-4.4422,-4.4668,-4.4668,-4.4668,-4.4694,-4.5401,-4.6003,-4.6499,-4.7074,-4.7597,-4.8068,-4.7989,-4.7963,-4.7963,-4.7963,-4.8015,-4.8015,-4.7519,-4.7022,-4.6525,-4.6029,-4.548,-4.4957,0.0,0.0,0.0,0.0,0.0,0.0,0.0,0.0,0.0,0.0,-1.729,0.0,0.0,0.0,0.0,0.0,0.0,0.0,0.0,0.0,0.0,-1.9272,-1.9382,-1.9412,-1.9412,-1.9418,-1.9447,-1.9447,-1.9711,-1.9842,-1.9857,-2.0164,-2.027,-2.0325,-2.0589,-2.0728,-2.0823,-2.1836,-2.2662,-2.3389,-2.5023,-2.6199,-2.7088,0.0,0.0,0.0,-2.9339,-2.9813,-3.0364,-3.075,-3.1115,-3.1513,-3.2107,-3.2859,-3.3741,-3.4918,-3.5893,-3.6995,-3.8897,-3.9873,-4.0676,-4.1872,-4.1874,-4.1606,-4.1263,-4.0067,-3.8896,-3.8328,-3.7367,-3.6496,-3.6215,-3.6545,-3.7001,-3.7205,-3.828,-3.9181,-3.9309,-4.0269,-4.0834,-4.0411,-4.1024,-4.1688,-4.1972,-4.2256,-4.2594,-4.2874,-4.3184,-4.3351,-4.3351,-4.3406,-4.3628,-4.4148,-4.4258,-4.4422,-4.4668,-4.4668,-4.4668,-4.4694,-4.582,-4.6395,-4.6499,-4.7074,-4.733,-4.7466,-4.697,-4.6761,-4.6761,-4.6761,-4.7048,-4.7466,-4.7304,-4.7226,-4.7179,-4.7017,-4.6682,-4.6186,0.0,0.0,0.0,0.0,0.0,0.0,0.0,0.0,0.0,0.0,-1.7662,-1.813,0.0,0.0,0.0,0.0,0.0,0.0,0.0,0.0,0.0,0.0,-1.9272,-1.9272,-1.9272,-1.9272,-1.9272,-1.9272,0.0,-1.9769,-1.9769,-2.0202,-2.0405,-2.042,-2.0693,-2.1093,-2.1549,-2.2176,-2.3263,-2.4686,-2.5829,-2.6965,0.0,0.0,0.0,0.0,-2.9997,-3.055,-3.1121,-3.1268,-3.1738,-3.221,-3.2395,-3.3137,-3.419,-3.5373,-3.6589,-3.8044,-3.9703,-4.0741,-4.146,-4.2294,-4.2061,-4.1492,-4.1033,-3.9418,-3.7898,-3.7376,-3.641,-3.5664,-3.5573,-3.6131,-3.6731,-3.6945,-3.7967,-3.8837,-3.9175,-4.0009,-4.0563,-4.0444,-4.1148,-4.172,-4.2054,-4.2369,-4.2681,-4.3184,-4.3351,-4.3381,-4.3381,-4.3683,-4.4068,-4.4505,-4.4531,-4.4559,-4.4668,-4.4668,-4.4668,-4.4694,-4.5611,-4.6029,-4.6055,-4.663,-4.6891,-4.6865,-4.6604,-4.6473,-4.6473,-4.6473,-4.6813,-4.7278,-4.7278,-4.7278,-4.7278,-4.7278,-4.697,-4.6473,0.0,0.0,0.0,0.0,0.0,0.0,0.0,-1.6213,-1.6623,-1.734,-1.794,-1.8335,-1.8394,-1.8921,0.0,0.0,0.0,0.0,0.0,0.0,0.0,0.0,0.0,-1.9272,-1.9272,0.0,0.0,-1.9479,-1.9762,0.0,0.0,0.0,0.0,0.0,-2.0864,-2.1468,-2.2128,-2.2582,-2.393,0.0,0.0,-2.7584,0.0,0.0,0.0,0.0,0.0,-3.1177,-3.1707,-3.181,-3.2189,-3.2669,-3.242,-3.3247,-3.4547,-3.5641,-3.7223,-3.8954,-4.0305,-4.1347,-4.2167,-4.2425,-4.2004,-4.132,-4.0605,-3.8861,-3.7169,-3.6631,-3.5589,-3.4867,-3.5077,-3.5715,-3.6417,-3.6807,-3.7796,-3.8656,-3.9249,-3.9896,-4.0421,-4.0792,-4.1344,-4.1834,-4.2142,-4.2425,-4.2849,-4.3351,-4.3517,-4.3572,-4.3572,-4.4094,-4.4476,-4.4668,-4.4668,-4.4668,-4.4668,-4.4668,-4.4668,-4.4694,-4.5294,-4.5581,-4.5637,-4.6081,-4.629,-4.629,-4.6159,-4.6107,-4.6107,-4.6107,-4.6525,-4.7153,-4.7153,-4.731,-4.7519,-4.7519,-4.7231,-4.6839,0.0,0.0,0.0,0.0,0.0,0.0,0.0,-1.6389,-1.6756,-1.7647,-1.8072,-1.8423,-1.8716,-1.9067,0.0,0.0,0.0,0.0,0.0,0.0,0.0,0.0,0.0,0.0,0.0,0.0,0.0,-2.0136,-2.0435,0.0,0.0,0.0,0.0,0.0,0.0,-2.1123,-2.1466,-2.2687,0.0,0.0,0.0,0.0,0.0,0.0,0.0,0.0,0.0,-3.189,-3.205,-3.2463,-3.2628,-3.2669,-3.2669,-3.3419,-3.4611,-3.6312,-3.7839,-3.9346,-4.1046,-4.181,-4.2167,-4.2425,-4.1859,-4.1,-4.0024,-3.8121,-3.6421,-3.5913,-3.4606,-3.382,-3.4671,-3.5321,-3.6033,-3.6803,-3.7954,-3.8871,-3.9249,-4.0071,-4.0792,-4.1115,-4.1712,-4.2142,-4.2425,-4.2737,-4.3073,-4.3406,-4.3903,-4.4203,-4.4203,-4.4505,-4.4668,-4.4668,-4.4668,-4.4668,-4.4668,-4.4668,-4.4668,-4.4694,-4.5294,-4.5581,-4.5581,-4.5689,-4.5715,-4.5663,-4.5114,-4.4879,-4.4879,-4.4879,-4.5558,-4.6552,-4.6552,-4.7205,-4.812,-4.812,-4.8068,-4.8015,0.0,0.0,0.0,0.0,0.0,0.0,0.0,-1.6419,-1.6829,-1.7955,-1.8218,-1.8496,-1.9023,-1.9199,-1.9272,0.0,0.0,0.0,0.0,0.0,0.0,0.0,0.0,0.0,0.0,0.0,-1.9915,-2.0181,-2.0725,0.0,0.0,0.0,0.0,0.0,0.0,-2.1725,-2.235,-2.3485,0.0,0.0,0.0,0.0,0.0,0.0,0.0,0.0,0.0,0.0,-3.2421,-3.2607,-3.2483,-3.2256,-3.2256,-3.3056,-3.4304,-3.6117,-3.7655,-3.9162,-4.0913,-4.1549,-4.1834,-4.1948,-4.1263,-4.0421,-3.9638,-3.7632,-3.5765,-3.5451,-3.4295,-3.3575,-3.4277,-3.511,-3.6089,-3.7226,-3.8395,-3.9403,-4.0305,-4.0884,-4.1402,-4.1712,-4.2086,-4.2369,-4.2457,-4.2818,-4.3209,-4.3653,-4.4203,-4.4531,-4.4531,-4.4613,-4.4668,-4.4668,-4.4668,-4.4668,-4.4668,-4.4668,-4.4668,-4.4668,-4.4903,-4.5033,-4.5033,-4.5033,-4.5033,-4.5007,-4.4772,-4.4668,-4.4748,-4.5059,-4.5741,-4.6499,-4.6865,-4.7466,-4.8172,-4.8172,-4.8172,-4.8172,0.0,0.0,0.0,0.0,0.0,0.0,-1.6331,-1.6492,-1.6991,-1.8145,-1.8306,-1.8555,-1.925,-1.9272,-1.9272,-1.9272,0.0,0.0,0.0,0.0,0.0,0.0,0.0,0.0,0.0,0.0,-2.0223,-2.0475,-2.1294,-2.1885,0.0,0.0,-2.2392,-2.2488,0.0,0.0,0.0,0.0,0.0,0.0,0.0,0.0,0.0,0.0,0.0,0.0,0.0,0.0,0.0,0.0,0.0,-3.1967,-3.1878,-3.2434,-3.3492,-3.5404,-3.7221,-3.8909,-4.032,-4.0875,-4.1127,-4.1157,-4.0334,-3.936,-3.8798,-3.6883,-3.5214,-3.4806,-3.4026,-3.3513,-3.4049,-3.4984,-3.6213,-3.7786,-3.8979,-4.0176,-4.1513,-4.1856,-4.2103,-4.2445,-4.2468,-4.2513,-4.2625,-4.2905,-4.3321,-4.3844,-4.4313,-4.4613,-4.4668,-4.4668,-4.4668,-4.4668,-4.4668,-4.4668,-4.4668,-4.4668,-4.4668,-4.4668,-4.4668,-4.4668,-4.4668,-4.4668,-4.4668,-4.4668,-4.4668,-4.4826,-4.5036,-4.5399,-4.6055,-4.6761,-4.7179,-4.7675,-4.8172,-4.8172,-4.8172,-4.8172,0.0,0.0,0.0,0.0,0.0,0.0,0.0,-1.6683,-1.724,-1.8174,-1.8306,-1.8555,-1.925,-1.9272,-1.9272,-1.9272,0.0,0.0,0.0,0.0,0.0,0.0,0.0,0.0,0.0,0.0,-2.0822,-2.1093,-2.2379,-2.2927,-2.2921,-2.325,-2.3216,-2.2905,0.0,0.0,0.0,0.0,0.0,0.0,0.0,0.0,0.0,0.0,0.0,0.0,0.0,0.0,0.0,0.0,0.0,0.0,0.0,-3.16,-3.2205,-3.4084,-3.651,-3.8701,-3.9333,-3.9732,-3.9988,-4.0163,-3.9012,-3.7702,-3.7331,-3.5991,-3.4662,-3.4028,-3.3622,-3.3513,-3.4049,-3.4984,-3.632,-3.8287,-3.9719,-4.1104,-4.2604,-4.2832,-4.3012,-4.3382,-4.2861,-4.2625,-4.2986,-4.324,-4.3517,-4.3899,-4.4148,-4.4422,-4.4668,-4.4668,-4.4668,-4.4668,-4.4668,-4.4668,-4.4668,-4.4668,-4.4668,-4.4668,-4.4668,-4.4668,-4.4668,-4.4668,-4.4668,-4.4668,-4.4668,-4.5007,-4.5555,-4.5581,-4.6234,-4.7278,-4.7278,-4.7675,-4.8172,-4.8172,-4.8172,-4.8172,0.0,0.0,0.0,0.0,0.0,0.0,0.0,-1.6683,-1.7167,-1.7867,-1.816,-1.8467,-1.8891,-1.914,-1.9272,-1.9272,0.0,0.0,0.0,0.0,0.0,0.0,0.0,0.0,0.0,0.0,0.0,-2.1742,-2.2561,-2.3295,-2.3906,-2.393,-2.4108,-2.44,-2.4403,-2.4715,0.0,0.0,0.0,0.0,0.0,0.0,0.0,0.0,0.0,0.0,0.0,0.0,0.0,0.0,0.0,0.0,0.0,0.0,0.0,-3.2432,-3.4371,-3.6477,-3.7725,-3.8284,-3.8421,-3.8344,-3.7622,-3.6786,-3.6443,-3.5229,-3.4143,-3.397,-3.3622,-3.3513,-3.4049,-3.4984,-3.6419,-3.8592,-3.9997,-4.146,-4.3163,-4.3474,-4.3654,-4.4144,-4.3719,-4.3275,-4.3011,-4.324,-4.3517,-4.3899,-4.4148,-4.4422,-4.4668,-4.4668,-4.4668,-4.4668,-4.4668,-4.4668,-4.4668,-4.4668,-4.4668,-4.4668,-4.4668,-4.4668,-4.4668,-4.4668,-4.4668,-4.4694,-4.5166,-4.5399,-4.5634,-4.6417,-4.6939,-4.7362,-4.8011,-4.839,-4.8548,-4.8779,-4.8837,-4.8837,0.0,0.0,0.0,0.0,0.0,0.0,0.0,-1.6683,-1.7138,-1.7735,-1.8101,-1.8423,-1.8745,-1.9081,-1.9324,-1.9428,0.0,0.0,0.0,0.0,0.0,0.0,0.0,0.0,0.0,0.0,0.0,0.0,0.0,-2.3753,-2.4518,-2.472,-2.5035,-2.5505,-2.5589,-2.5971,0.0,0.0,0.0,0.0,0.0,0.0,0.0,0.0,0.0,0.0,0.0,0.0,0.0,0.0,0.0,0.0,0.0,0.0,0.0,0.0,-3.2522,-3.3988,-3.589,-3.6645,-3.6838,-3.6697,-3.613,-3.5509,-3.5302,-3.4402,-3.3602,-3.3487,-3.3643,-3.3955,-3.4247,-3.541,-3.7062,-3.9225,-4.0657,-4.2102,-4.3752,-4.4062,-4.4091,-4.4016,-4.389,-4.3589,-4.3037,-4.3442,-4.3746,-4.3899,-4.4148,-4.4422,-4.4668,-4.4668,-4.4668,-4.4668,-4.4668,-4.4668,-4.4668,-4.4668,-4.4668,-4.4668,-4.4668,-4.4668,-4.4694,-4.4957,-4.5007,-4.5088,-4.5689,-4.6055,0.0,-4.6991,-4.7524,-4.7875,-4.8474,-4.8721,-4.8837,-4.9068,-4.9125,-4.9125,0.0,0.0,0.0,0.0,0.0,0.0,0.0,0.0,0.0,0.0,-1.8072,-1.8473,-1.8766,-1.9118,-1.948,0.0,0.0,0.0,0.0,0.0,0.0,0.0,0.0,0.0,0.0,-2.113,-2.1742,-2.2065,-2.3337,-2.4239,-2.4889,0.0,-2.5898,-2.6209,-2.6686,-2.715,0.0,0.0,0.0,0.0,0.0,0.0,0.0,0.0,0.0,0.0,0.0,0.0,0.0,0.0,0.0,0.0,0.0,0.0,0.0,0.0,0.0,0.0,0.0,-3.484,-3.5198,-3.533,-3.4733,-3.4025,-3.3938,-3.3555,0.0,-3.2841,-3.3722,-3.4564,-3.4665,-3.6161,-3.8061,-4.0059,-4.1439,-4.282,-4.4301,-4.4634,-4.4342,-4.3212,-4.3589,-4.3689,-4.3143,-4.3852,-4.4209,-4.3951,-4.4148,-4.4422,-4.4668,-4.4668,-4.4668,-4.4668,-4.4668,-4.4668,-4.4668,-4.4668,-4.4668,-4.4668,-4.4668,-4.4748,-4.4746,-4.532,-4.5637,-4.5715,-4.629,-4.6839,-4.7336,-4.7388,-4.7959,-4.8721,-4.8721,-4.8895,-4.9125,-4.9183,-4.9183,-4.9183,0.0,0.0,0.0,0.0,0.0,0.0,0.0,0.0,0.0,0.0,0.0,-1.8716,-1.9003,-1.9583,0.0,0.0,0.0,0.0,0.0,0.0,0.0,0.0,0.0,0.0,0.0,-2.1396,-2.2172,-2.2708,-2.3778,-2.4701,-2.5514,-2.5844,0.0,0.0,0.0,0.0,0.0,0.0,0.0,0.0,0.0,0.0,0.0,0.0,0.0,0.0,-3.0118,-3.016,0.0,0.0,0.0,0.0,0.0,0.0,0.0,0.0,-3.0784,-3.1087,-3.2323,0.0,-3.3583,-3.3941,-3.3898,-3.3713,0.0,-3.3586,-3.3466,-3.3409,-3.3932,-3.4556,-3.5189,-3.6295,-3.7888,-4.014,-4.1377,-4.2743,-4.4635,-4.5485,-4.5497,-4.4367,-4.4744,-4.481,-4.4055,-4.4193,-4.4265,-4.42,-4.4258,-4.4422,-4.4668,-4.4668,-4.4668,-4.4668,-4.4668,-4.4668,-4.4668,-4.4668,-4.4668,-4.4668,-4.4668,-4.4903,-4.5373,-4.5558,-4.5872,-4.6316,-4.6891,-4.7319,-4.7705,-4.8153,-4.8616,-4.901,-4.9297,-4.9469,-4.9499,-4.9727,-4.9783,-4.9783,0.0,0.0,0.0,0.0,0.0,0.0,0.0,0.0,0.0,0.0,0.0,0.0,0.0,0.0,0.0,0.0,0.0,0.0,0.0,0.0,0.0,0.0,0.0,0.0,0.0,-2.2067,-2.2815,0.0,0.0,-2.5348,0.0,0.0,0.0,0.0,0.0,0.0,0.0,0.0,0.0,0.0,0.0,0.0,0.0,0.0,0.0,0.0,-2.9435,-2.9497,0.0,-2.9684,-2.9829,-2.9994,0.0,0.0,0.0,0.0,-3.0367,-3.0627,-3.1649,-3.2322,-3.2818,-3.3283,-3.3636,-3.3861,-3.3861,-3.3896,-3.4009,-3.4009,-3.4775,-3.5684,-3.6214,-3.7533,-3.9101,-4.0834,-4.2051,-4.336,-4.4992,-4.5404,-4.538,-4.4868,-4.5296,-4.537,-4.4597,-4.4837,-4.4857,-4.431,-4.4422,-4.4585,-4.4668,-4.4668,-4.4668,-4.4668,-4.4668,-4.4668,-4.4668,-4.4668,-4.4668,-4.4668,-4.5009,-4.5268,-4.5637,-4.613,-4.6634,-4.7118,-4.7722,-4.8131,-4.8417,-4.8762,-4.9068,-4.9354,-4.9499,-4.967,-4.9783,-4.9953,-5.001,-5.001,0.0,0.0,0.0,0.0,0.0,0.0,0.0,0.0,0.0,0.0,0.0,0.0,0.0,0.0,0.0,0.0,0.0,0.0,0.0,0.0,0.0,0.0,0.0,-2.1776,-2.1827,-2.2856,-2.3561,0.0,0.0,0.0,0.0,0.0,-2.8121,0.0,0.0,0.0,0.0,0.0,0.0,0.0,0.0,0.0,0.0,0.0,0.0,0.0,0.0,0.0,0.0,-2.929,-2.9559,-2.9911,-2.9973,0.0,0.0,0.0,0.0,0.0,-3.1491,-3.2256,-3.2789,-3.3226,-3.3805,-3.4255,-3.4311,-3.4568,-3.4747,-3.4747,-3.5982,-3.7087,-3.7417,-3.9093,-4.0795,-4.1962,-4.3272,-4.4451,-4.5422,-4.5238,-4.5102,-4.536,-4.569,-4.5686,-4.4981,-4.5464,-4.5451,-4.4445,-4.4559,-4.4668,-4.4668,-4.4668,-4.4668,-4.4668,-4.4772,-4.4853,-4.4853,-4.4774,-4.4774,-4.4824,-4.5375,-4.566,-4.5924,-4.6891,-4.7591,-4.7982,-4.851,-4.8895,-4.9183,-4.9183,-4.9354,-4.967,-4.967,-4.9783,-5.001,-5.001,-5.001,-5.001,0.0,0.0,0.0,0.0,0.0,0.0,0.0,0.0,0.0,0.0,0.0,0.0,0.0,0.0,0.0,0.0,0.0,0.0,0.0,0.0,0.0,0.0,-2.2131,-2.2131,-2.2367,-2.3322,-2.4137,0.0,0.0,0.0,-2.7618,-2.8014,-2.8654,-2.9396,0.0,0.0,0.0,0.0,0.0,0.0,-2.9994,0.0,0.0,0.0,0.0,0.0,0.0,0.0,0.0,-2.9166,-2.9352,-2.9477,-2.987,0.0,0.0,0.0,0.0,0.0,-3.1545,-3.2545,-3.3453,-3.3871,-3.4401,-3.4858,-3.5157,-3.5598,-3.6036,-3.6036,-3.6769,-3.7655,-3.8353,-4.0144,-4.1834,-4.3004,-4.4759,-4.5959,-4.5859,-4.6366,-4.6739,-4.6527,-4.6407,-4.6213,-4.583,-4.5473,-4.5067,-4.4666,-4.4668,-4.4668,-4.4668,-4.4668,-4.4668,-4.4668,-4.5218,-4.5425,-4.5425,-4.4983,-4.4983,-4.5425,-4.5584,-4.6133,-4.7074,-4.7516,-4.8057,-4.8589,-4.8926,-4.924,-4.9499,-4.9499,-4.967,-4.9953,-4.9953,-4.9953,-5.001,-5.001,-5.001,-5.001,0.0,0.0,0.0,0.0,0.0,0.0,0.0,0.0,0.0,0.0,0.0,0.0,0.0,0.0,0.0,0.0,0.0,0.0,0.0,0.0,0.0,-2.2736,-2.2887,-2.307,-2.337,-2.4267,-2.5094,-2.5811,0.0,-2.7569,-2.8315,-2.8761,-2.929,-2.9837,0.0,0.0,0.0,0.0,0.0,0.0,0.0,0.0,0.0,0.0,0.0,0.0,0.0,0.0,0.0,0.0,-2.8731,-2.9001,-2.9477,0.0,0.0,0.0,0.0,0.0,-3.1583,-3.2799,-3.395,-3.485,-3.5613,-3.6177,-3.6449,-3.7115,-3.7651,-3.7651,-3.8563,-3.9483,-4.0002,-4.1597,-4.3291,-4.4774,-4.5566,-4.5994,-4.6127,-4.6218,-4.6308,-4.6334,-4.6277,-4.6062,-4.5775,-4.5545,-4.521,-4.472,-4.4668,-4.4668,-4.4668,-4.4668,-4.4824,-4.5218,-4.548,-4.5767,-4.6081,-4.582,-4.582,-4.6081,-4.6395,-4.687,-4.7565,-4.8052,-4.863,-4.9183,-4.9354,-4.9556,-4.984,-4.984,-4.9897,-5.001,-5.001,-5.001,-5.001,-5.001,-5.001,-5.001,0.0,0.0,0.0,0.0,0.0,0.0,0.0,0.0,0.0,0.0,0.0,0.0,0.0,0.0,0.0,0.0,0.0,0.0,0.0,0.0,-2.2754,-2.3105,-2.3538,-2.3935,-2.4282,-2.522,-2.6109,-2.691,-2.7764,-2.8461,-2.9006,-2.9501,-2.9784,0.0,0.0,0.0,0.0,0.0,0.0,0.0,0.0,0.0,0.0,0.0,0.0,0.0,0.0,0.0,0.0,0.0,0.0,0.0,0.0,0.0,0.0,-2.9559,-3.0005,-3.0535,-3.1555,-3.3041,-3.4569,-3.5864,-3.6773,-3.7411,-3.7798,-3.8508,-3.914,-3.9261,-4.0489,-4.1583,-4.1781,-4.3281,-4.5037,-4.6553,-4.6463,-4.6334,-4.6656,-4.6277,-4.5974,-4.6202,-4.6026,-4.5827,-4.5607,-4.5451,-4.5218,-4.4694,-4.4668,-4.4668,-4.4668,-4.4668,-4.5009,-4.5555,-4.5767,-4.6107,-4.6682,-4.6813,-4.6813,-4.6682,-4.7184,-4.7617,-4.8061,-4.8625,-4.9183,-4.9613,-4.967,-4.9783,-5.001,-5.001,-5.001,-5.001,-5.001,-5.001,-5.001,-5.001,-5.0066,-5.015,0.0,0.0,0.0,0.0,0.0,0.0,0.0,0.0,0.0,0.0,0.0,0.0,0.0,0.0,0.0,0.0,0.0,0.0,0.0,0.0,-2.2837,-2.3356,-2.3836,-2.4332,-2.4824,-2.5836,-2.6813,-2.7703,-2.8451,-2.9208,-2.9889,-2.9942,-2.9994,-2.9994,0.0,0.0,-2.9994,-2.9994,-2.9994,0.0,0.0,0.0,0.0,0.0,0.0,0.0,0.0,0.0,0.0,0.0,0.0,0.0,0.0,0.0,-2.8669,-2.8711,-2.9375,-3.0376,-3.144,-3.3366,-3.5455,-3.6777,-3.7536,-3.8171,-3.8868,-3.9549,-4.0174,-4.067,-4.2103,-4.3326,-4.3326,-4.5181,-4.6953,-4.7899,-4.8035,-4.7893,-4.7626,-4.7334,-4.7111,-4.6881,-4.6117,-4.5607,-4.5581,-4.5059,-4.4774,-4.4668,-4.4668,-4.4668,-4.4668,-4.4668,-4.5009,-4.5555,-4.6133,-4.6682,-4.7257,-4.7806,-4.7806,-4.7283,-4.7595,-4.8057,-4.8669,-4.927,-4.9556,-4.9613,-4.984,-4.9953,-5.001,-5.001,-5.001,-5.001,-5.001,-5.001,-5.001,-5.001,-5.0206,-5.0431,0.0,0.0,0.0,0.0,0.0,0.0,0.0,0.0,0.0,0.0,0.0,0.0,0.0,0.0,0.0,0.0,0.0,0.0,0.0,0.0,-2.2854,-2.3406,-2.3836,-2.4529,-2.5362,-2.6379,-2.7361,-2.8307,-2.9147,-2.9724,-2.9994,-2.9994,0.0,0.0,0.0,-2.9994,-2.9994,-2.9994,-2.9994,-2.9994,0.0,0.0,0.0,0.0,0.0,0.0,0.0,0.0,0.0,0.0,-2.751,-2.7593,-2.8048,-2.8193,-2.8235,-2.8695,-2.9542,-3.0551,-3.1428,-3.3426,-3.5497,-3.6708,-3.7778,-3.883,-3.9773,-4.0617,-4.144,-4.2347,-4.3462,-4.4535,-4.5479,-4.6295,-4.7172,-4.8035,-4.7885,-4.7592,-4.7476,-4.7096,-4.6626,-4.6148,-4.5787,-4.5425,-4.5114,-4.4798,-4.4668,-4.4668,-4.4668,-4.4668,-4.4668,-4.5033,-4.5558,-4.6133,-4.6708,-4.7283,-4.7858,-4.8068,-4.8184,-4.8174,-4.8289,-4.8568,-4.8952,-4.9412,-4.967,-4.984,-4.9953,-5.001,-5.001,-5.001,-5.001,-5.001,-5.0206,-5.0404,-5.0572,-5.0572,-5.0628,-5.0767,0.0,0.0,0.0,0.0,0.0,0.0,0.0,0.0,0.0,0.0,0.0,0.0,0.0,0.0,0.0,0.0,0.0,0.0,0.0,-2.2603,-2.2837,-2.3488,-2.3985,-2.4726,-2.58,-2.6821,-2.7708,-2.8607,-2.9539,-2.9994,-2.9994,0.0,0.0,0.0,-2.9994,-2.9911,-2.9787,-2.9932,-2.9911,-2.9787,-2.9932,0.0,0.0,0.0,0.0,0.0,0.0,0.0,0.0,0.0,-2.7526,-2.7589,-2.7854,-2.7938,-2.8021,-2.853,-2.9501,-3.0569,-3.1479,-3.3549,-3.5755,-3.6845,-3.8289,-3.9647,-4.0576,-4.1344,-4.2299,-4.3598,-4.4776,-4.5856,-4.7126,-4.7282,-4.7496,-4.812,-4.7858,-4.7597,-4.7597,-4.71,-4.6604,-4.6212,-4.5846,-4.5454,-4.5007,-4.4826,-4.4668,-4.4668,-4.4668,-4.4746,-4.4955,-4.5401,-4.5976,-4.6734,-4.7127,-4.7597,-4.8172,-4.8172,-4.8373,-4.8663,-4.8779,-4.8952,-4.9297,-4.9556,-4.984,-5.001,-5.001,-5.001,-5.001,-5.001,-5.0066,-5.0206,-5.0487,-5.0767,-5.0906,-5.0906,-5.0962,-5.1072,0.0,0.0,0.0,0.0,0.0,0.0,0.0,0.0,0.0,0.0,0.0,0.0,0.0,0.0,0.0,0.0,0.0,0.0,0.0,-2.2603,-2.2937,-2.3687,-2.4233,-2.502,-2.6091,-2.7114,-2.7906,-2.8628,-2.9539,-2.9994,-2.9994,-2.9973,0.0,-2.9973,-2.9973,-2.9725,-2.9332,-2.9787,-2.9725,-2.9332,-2.9808,-2.9994,0.0,0.0,0.0,0.0,0.0,0.0,0.0,0.0,-2.7998,-2.7998,-2.7998,-2.7998,-2.7998,-2.7998,-2.9041,-3.0458,-3.154,-3.3895,-3.6336,-3.7344,-3.9066,-4.0651,-4.1175,-4.1757,-4.2669,-4.4361,-4.6073,-4.7519,-4.8068,-4.8172,-4.8172,-4.8172,-4.8172,-4.8172,-4.8172,-4.7702,-4.7278,-4.7278,-4.6286,-4.5637,-4.5581,-4.5033,-4.4694,-4.4668,-4.4694,-4.4955,-4.5584,-4.5637,-4.6104,-4.7226,-4.7278,-4.7623,-4.8172,-4.8172,-4.8373,-4.8721,-4.8952,-4.9297,-4.9613,-4.9897,-5.001,-5.001,-5.001,-5.001,-5.001,-5.001,-5.0206,-5.0571,-5.0795,-5.0906,-5.0906,-5.0906,-5.1155,-5.1376,0.0,0.0,0.0,0.0,0.0,0.0,0.0,0.0,0.0,0.0,0.0,0.0,0.0,0.0,0.0,0.0,0.0,0.0,0.0,-2.2804,-2.3138,-2.3687,-2.4381,-2.5216,-2.6091,-2.7211,-2.8219,-2.9104,-2.9373,-2.9518,0.0,0.0,-2.9021,-2.9021,-2.9021,-2.8938,-2.8835,-2.8959,-2.8938,-2.8856,-2.9332,-2.9518,0.0,0.0,0.0,0.0,0.0,0.0,0.0,0.0,0.0,0.0,-2.9024,-2.8932,-2.8905,-2.9609,-3.0401,-3.1369,-3.2769,-3.4556,-3.628,-3.7345,-3.8766,-4.0199,-4.1075,-4.2062,-4.3367,-4.5512,-4.7012,-4.7989,-4.8146,-4.8172,-4.8172,-4.8172,-4.8172,-4.8172,-4.8172,-4.8041,-4.778,-4.733,-4.6991,-4.6443,-4.566,-4.5454,-4.5192,-4.4694,-4.5059,-4.5373,-4.5555,-4.6338,-4.6939,-4.7278,-4.7728,-4.8015,-4.8172,-4.8431,-4.8721,-4.901,-4.9297,-4.9499,-4.9613,-4.9897,-5.001,-5.001,-5.001,-5.001,-5.001,-5.0263,-5.0655,-5.1128,-5.1211,-5.1376,-5.1513,-5.1513,-5.1568,-5.1706,0.0,0.0,0.0,0.0,0.0,0.0,0.0,0.0,0.0,0.0,-2.2603,0.0,0.0,0.0,0.0,0.0,0.0,0.0,0.0,0.0,-2.3238,-2.3836,-2.4627,-2.5635,-2.6786,-2.7721,-2.8462,0.0,0.0,0.0,0.0,-2.8752,-2.8607,-2.8607,-2.8607,-2.8504,-2.8359,-2.8545,-2.8504,-2.838,-2.8956,-2.9194,-2.9182,0.0,0.0,0.0,0.0,0.0,0.0,0.0,0.0,0.0,-2.9966,-2.992,-2.9988,-3.0813,-3.1506,-3.2345,-3.3887,-3.5356,-3.6799,-3.8116,-3.9418,-4.0679,-4.2163,-4.33,-4.4531,-4.632,-4.7503,-4.8257,-4.8373,-4.8315,-4.8172,-4.8172,-4.8172,-4.8172,-4.8172,-4.8172,-4.8068,-4.7702,-4.7466,-4.7017,-4.6312,-4.6107,-4.582,-4.5454,-4.5767,-4.6055,-4.6234,-4.6913,-4.744,-4.7675,-4.8015,-4.8172,-4.8172,-4.8548,-4.8837,-4.9125,-4.9469,-4.967,-4.9727,-4.9953,-5.001,-5.001,-5.015,-5.0206,-5.0263,-5.0655,-5.1072,-5.1404,-5.1541,-5.1651,-5.1787,-5.1787,-5.2065,-5.2371,0.0,0.0,0.0,0.0,0.0,0.0,0.0,0.0,0.0,0.0,-2.2603,-2.2603,0.0,0.0,0.0,0.0,0.0,0.0,0.0,0.0,-2.3338,-2.4084,-2.499,-2.6211,-2.7813,-2.8317,0.0,0.0,0.0,0.0,-2.8545,-2.8504,-2.8483,-2.8483,-2.8483,-2.8255,-2.7883,-2.8317,-2.8255,-2.7903,-2.8627,-2.8914,-2.8922,-2.9085,0.0,0.0,0.0,0.0,0.0,0.0,0.0,0.0,-3.0958,-3.1048,-3.1097,-3.1709,-3.2413,-3.3336,-3.4968,-3.6309,-3.7641,-3.9293,-4.0551,-4.1951,-4.3945,-4.5055,-4.5887,-4.6784,-4.7622,-4.8294,-4.8663,-4.8489,-4.8257,-4.8257,-4.8257,-4.823,-4.8172,-4.8172,-4.8172,-4.8172,-4.7728,-4.733,-4.7278,-4.6865,-4.6525,-4.6473,-4.6525,-4.6787,-4.7252,-4.733,-4.7649,-4.8172,-4.8172,-4.8172,-4.8257,-4.8548,-4.8837,-4.9125,-4.9442,-4.9727,-5.001,-5.001,-5.001,-5.001,-5.0319,-5.0487,-5.0543,-5.1183,-5.1376,-5.1431,-5.1677,-5.1787,-5.1787,-5.1843,-5.2456,-5.3211,0.0,0.0,0.0,0.0,0.0,0.0,0.0,0.0,0.0,0.0,0.0,0.0,0.0,0.0,0.0,0.0,0.0,0.0,0.0,0.0,-2.3538,-2.4084,-2.5838,-2.6996,0.0,0.0,0.0,0.0,0.0,-2.8069,-2.8069,-2.7717,-2.76,-2.76,-2.76,-2.7489,-2.7455,-2.7558,-2.7537,-2.7496,-2.8147,-2.8432,-2.853,-2.9128,-2.9324,0.0,0.0,0.0,0.0,0.0,0.0,0.0,-3.2025,-3.1913,-3.1995,-3.3144,-3.3463,-3.3922,-3.5962,-3.6998,-3.7866,-3.9293,-4.117,-4.3003,-4.4565,-4.5573,-4.6425,-4.7176,-4.7758,-4.8368,-4.893,-4.8952,-4.8837,-4.8606,-4.8606,-4.8489,-4.8257,-4.8172,-4.8172,-4.8172,-4.8068,-4.7832,-4.733,-4.7231,-4.697,-4.6499,-4.6891,-4.7205,-4.7278,-4.7754,-4.8068,-4.8172,-4.8172,-4.8315,-4.8606,-4.8895,-4.9183,-4.9499,-4.9783,-4.9953,-5.001,-5.001,-5.001,-5.001,-5.0319,-5.0599,-5.085,-5.1211,-5.1541,-5.1732,-5.1787,-5.1787,-5.1843,-5.2321,-5.2823,-5.3296,0.0,0.0,0.0,0.0,0.0,0.0,0.0,0.0,0.0,0.0,0.0,0.0,0.0,0.0,0.0,0.0,0.0,0.0,0.0,0.0,-2.3637,-2.4609,-2.633,-2.7305,0.0,0.0,0.0,0.0,0.0,-2.7593,-2.7593,-2.7413,-2.7309,-2.7309,-2.7309,-2.7309,-2.7309,-2.7309,-2.7309,-2.7378,-2.7941,-2.819,-2.8216,-2.8976,-2.9352,-2.9495,-3.0057,0.0,0.0,0.0,0.0,0.0,0.0,0.0,-3.2698,-3.3672,-3.4049,-3.4548,-3.6495,-3.7392,-3.8241,-4.023,-4.2174,-4.3924,-4.5074,-4.5955,-4.6839,-4.7622,-4.8105,-4.8525,-4.9042,-4.911,-4.9068,-4.8895,-4.8779,-4.8606,-4.8489,-4.8315,-4.8172,-4.8172,-4.8172,-4.8068,-4.778,-4.7728,-4.7623,-4.731,-4.7571,-4.7728,-4.7728,-4.8015,-4.8172,-4.8172,-4.8373,-4.8548,-4.8663,-4.9125,-4.9469,-4.9613,-4.984,-5.001,-5.001,-5.001,-5.0066,-5.0263,-5.0543,-5.0878,-5.1155,-5.1486,-5.1706,-5.1787,-5.1787,-5.1983,-5.2264,-5.2739,-5.3525,-5.437,0.0,0.0,0.0,0.0,0.0,0.0,0.0,0.0,0.0,0.0,0.0,0.0,0.0,0.0,0.0,0.0,0.0,0.0,0.0,-2.2902,-2.3737,-2.5148,0.0,0.0,0.0,0.0,0.0,0.0,-2.751,-2.7413,-2.7413,-2.7413,-2.7475,-2.7537,-2.7455,-2.7413,-2.7413,-2.733,-2.7309,-2.7357,-2.7762,-2.7951,-2.8092,-2.8792,-2.9209,-2.9531,-3.0261,-3.0847,-3.1339,-3.2025,0.0,0.0,0.0,0.0,-3.3237,-3.3746,-3.4223,-3.4951,-3.6584,-3.7713,-3.8995,-4.1275,-4.3162,-4.4639,-4.5555,-4.6323,-4.7139,-4.7975,-4.8353,-4.865,-4.8952,-4.8994,-4.8946,-4.8889,-4.866,-4.8457,-4.8505,-4.8274,-4.8068,-4.8172,-4.8172,-4.8172,-4.8172,-4.8172,-4.8172,-4.8172,-4.8172,-4.8172,-4.8172,-4.8172,-4.8172,-4.8172,-4.8548,-4.8721,-4.8779,-4.9354,-4.9613,-4.967,-4.9897,-5.001,-5.001,-5.001,-5.0206,-5.0487,-5.0795,-5.11,-5.1431,-5.1706,-5.1787,-5.1787,-5.1787,-5.2152,-5.2769,-5.3214,-5.4258,-5.5536,0.0,0.0,0.0,0.0,0.0,0.0,0.0,0.0,0.0,0.0,-2.2603,-2.2465,-2.2038,-2.2004,0.0,0.0,0.0,0.0,-2.2073,0.0,0.0,-2.4922,0.0,0.0,0.0,0.0,0.0,0.0,-2.7676,-2.7841,-2.7841,-2.7841,-2.8048,-2.8421,-2.8007,-2.7841,-2.78,-2.7475,-2.7309,-2.7309,-2.7547,-2.7762,-2.8045,-2.8606,-2.8978,-2.9255,-2.9988,-3.0578,-3.1026,-3.1605,-3.2201,0.0,0.0,0.0,-3.3237,-3.3746,-3.3947,-3.4374,-3.6078,-3.8291,-4.0455,-4.1819,-4.3405,-4.4938,-4.606,-4.6742,-4.7418,-4.7963,-4.8159,-4.8373,-4.868,-4.8545,-4.8271,-4.7995,-4.7718,-4.7625,-4.7872,-4.7639,-4.7623,-4.812,-4.8172,-4.8172,-4.8172,-4.8172,-4.8172,-4.8172,-4.8172,-4.8172,-4.8172,-4.8172,-4.8172,-4.8172,-4.8548,-4.8779,-4.9068,-4.9412,-4.9727,-4.9953,-4.9953,-5.001,-5.001,-5.001,-5.0206,-5.0487,-5.0795,-5.11,-5.1431,-5.1706,-5.1787,-5.1787,-5.1787,-5.2152,-5.2826,-5.364,-5.4628,-5.5622,0.0,0.0,0.0,0.0,0.0,0.0,0.0,0.0,0.0,0.0,0.0,-2.2379,-2.173,-2.1662,0.0,0.0,0.0,0.0,-2.197,-2.2927,0.0,0.0,0.0,0.0,0.0,0.0,0.0,-2.7309,-2.7696,-2.8048,-2.8317,-2.8835,-2.8918,-2.8607,-2.84,-2.8317,-2.8276,-2.7821,-2.7634,-2.7683,-2.8067,-2.8307,-2.8471,-2.9276,-2.9719,-2.9961,-3.0141,-3.0606,-3.1155,-3.1413,-3.1937,-3.255,-3.268,0.0,0.0,0.0,-3.3558,-3.4055,-3.5713,-3.7739,-3.9699,-4.1131,-4.2664,-4.4168,-4.5608,-4.648,-4.7133,-4.7545,-4.7664,-4.7815,-4.8316,-4.8272,-4.8137,-4.8028,-4.7643,-4.7418,-4.7572,-4.7411,-4.744,-4.7675,-4.7989,-4.8172,-4.8172,-4.8172,-4.8172,-4.8172,-4.8172,-4.8172,-4.8172,-4.8172,-4.8172,-4.8172,-4.8663,-4.8952,-4.9125,-4.9556,-4.9897,-5.001,-5.001,-5.001,-5.001,-5.001,-5.0235,-5.0767,-5.085,-5.1183,-5.1651,-5.1732,-5.1787,-5.1787,-5.1787,-5.2487,-5.3528,-5.4145,-5.5222,-5.6392,0.0,0.0,0.0,0.0,0.0,0.0,0.0,0.0,0.0,0.0,0.0,0.0,-2.1627,0.0,0.0,0.0,0.0,0.0,-2.1953,0.0,0.0,0.0,0.0,0.0,0.0,0.0,-2.6948,-2.7214,-2.7648,-2.8152,-2.8628,-2.9435,-2.9518,-2.8959,-2.8959,-2.8897,-2.8752,-2.8173,-2.7986,-2.809,-2.8452,-2.8737,-2.8961,-2.9862,-3.0356,-3.0581,-3.0513,-3.0808,-3.1228,-3.1266,-3.1749,-3.2245,-3.2463,-3.2723,0.0,0.0,0.0,-3.3707,-3.5041,-3.6713,-3.8421,-3.9911,-4.1487,-4.3087,-4.4811,-4.5712,-4.6447,-4.695,-4.7029,-4.7114,-4.7553,-4.77,-4.7731,-4.7677,-4.7242,-4.6994,-4.7017,-4.71,-4.7179,-4.7252,-4.7832,-4.8172,-4.8172,-4.8172,-4.8172,-4.8172,-4.8172,-4.8172,-4.8172,-4.8172,-4.8172,-4.8172,-4.8779,-4.9125,-4.9125,-4.967,-5.001,-5.001,-5.001,-5.001,-5.001,-5.0066,-5.0404,-5.0906,-5.0906,-5.1238,-5.1787,-5.1787,-5.1787,-5.1787,-5.1896,-5.2821,-5.4147,-5.4537,-5.5618,-5.6993,0.0,0.0,0.0,0.0,0.0,0.0,0.0,0.0,0.0,0.0,0.0,0.0,0.0,0.0,0.0,0.0,0.0,0.0,0.0,0.0,0.0,0.0,0.0,0.0,0.0,-2.6091,-2.664,-2.69,-2.7572,-2.8152,-2.8628,-2.9104,-2.9559,-2.9932,-2.9932,-2.9684,-2.9208,-2.8297,-2.8173,-2.8545,-2.8453,-2.8781,-2.943,-2.997,-3.0383,-3.0674,-3.1157,-3.1221,-3.1066,-3.1298,-3.1565,-3.1761,-3.1957,-3.222,-3.2487,0.0,0.0,0.0,-3.3696,-3.5342,-3.714,-3.8352,-4.0078,-4.1963,-4.3623,-4.4415,-4.5099,-4.6215,-4.6218,-4.6086,-4.6113,-4.6379,-4.6511,-4.6167,-4.5902,-4.5768,-4.6024,-4.6327,-4.6734,-4.7257,-4.7832,-4.8172,-4.8172,-4.8172,-4.8172,-4.8172,-4.8172,-4.8172,-4.8172,-4.8172,-4.8172,-4.8172,-4.8779,-4.9125,-4.9125,-4.967,-5.001,-5.001,-5.001,-5.001,-5.001,-5.0319,-5.0655,-5.0906,-5.0906,-5.1238,-5.1787,-5.1787,-5.1787,-5.1841,-5.2059,-5.2986,-5.4203,-5.4759,-5.5785,-5.6993,0.0,0.0,0.0,0.0,0.0,0.0,0.0,0.0,0.0,0.0,0.0,0.0,0.0,-2.1867,-2.1627,-2.1251,0.0,0.0,0.0,0.0,0.0,0.0,0.0,0.0,0.0,-2.58,-2.6448,-2.69,-2.7572,-2.8007,-2.8193,-2.9249,-2.9684,-2.9559,-2.987,-2.9911,-2.9704,-2.9083,-2.8897,-2.9093,-2.9379,-2.9621,-2.9941,-3.0974,-3.1406,-3.1512,-3.1569,-3.1637,-3.1654,-3.1297,-3.1412,-3.1701,-3.1813,-3.1893,-3.1893,-3.1605,-3.1748,-3.2019,-3.218,-3.3241,-3.4788,-3.6716,-3.8396,-4.0134,-4.2287,-4.3232,-4.3913,-4.5072,-4.5206,-4.5287,-4.5688,-4.5822,-4.5875,-4.5742,-4.5502,-4.5499,-4.5917,-4.6275,-4.6682,-4.7257,-4.7832,-4.8172,-4.8172,-4.8172,-4.8172,-4.8172,-4.8172,-4.8172,-4.8172,-4.8172,-4.8172,-4.8172,-4.8606,-4.901,-4.9412,-4.9783,-5.001,-5.001,-5.001,-5.0123,-5.0319,-5.0431,-5.0767,-5.1211,-5.1211,-5.1431,-5.1787,-5.2004,-5.2059,-5.2115,-5.2838,-5.374,-5.4761,-5.5384,-5.6299,-5.7247,0.0,0.0,0.0,0.0,0.0,0.0,0.0,0.0,0.0,0.0,0.0,0.0,0.0,0.0,-2.1833,-2.1439,-2.1764,0.0,0.0,0.0,0.0,0.0,0.0,0.0,-2.4627,-2.5509,-2.6255,-2.6757,-2.7359,-2.7779,-2.7945,-2.8876,-2.9208,-2.9083,-2.9394,-2.9622,-2.9725,-2.927,-2.9166,-2.9342,-2.9754,-3.0168,-3.0717,-3.1944,-3.2472,-3.2612,-3.2527,-3.2506,-3.2381,-3.1729,-3.1599,-3.1692,-3.1677,-3.1571,-3.1318,-3.0736,-3.0721,-3.0902,-3.0914,-3.1765,-3.3073,-3.4951,-3.6673,-3.8558,-4.0866,-4.1956,-4.2762,-4.3913,-4.4308,-4.4547,-4.497,-4.5209,-4.5315,-4.5448,-4.5341,-4.5337,-4.5807,-4.6219,-4.6682,-4.7257,-4.7832,-4.8172,-4.8172,-4.8172,-4.8172,-4.8172,-4.8172,-4.8172,-4.8172,-4.8172,-4.8257,-4.8373,-4.8663,-4.9068,-4.9556,-4.984,-5.001,-5.001,-5.0123,-5.0263,-5.0515,-5.0738,-5.1017,-5.1404,-5.1486,-5.1651,-5.1841,-5.2059,-5.2167,-5.2306,-5.3337,-5.4268,-5.5065,-5.581,-5.6725,-5.7528,0.0,0.0,0.0,0.0,0.0,0.0,0.0,0.0,0.0,-2.2603,0.0,0.0,0.0,0.0,0.0,-2.1473,-2.1799,-2.2021,-2.2021,0.0,0.0,0.0,0.0,0.0,-2.4084,-2.5148,-2.5994,-2.6496,-2.7023,-2.7489,-2.7903,-2.7875,-2.8152,-2.8587,-2.8607,-2.8856,-2.9228,-2.8814,-2.8897,-2.9321,-2.9458,-3.0346,-3.1667,-3.2767,-3.3496,-3.393,-3.4005,-3.3729,-3.3247,-3.2718,-3.219,-3.1733,-3.1716,-3.1315,-3.0758,-3.0102,-3.003,-3.013,0.0,0.0,0.0,-3.3074,-3.5067,-3.7276,-3.9239,-4.0515,-4.1673,-4.2762,-4.3441,-4.3912,-4.3912,-4.433,-4.4776,-4.5126,-4.5206,-4.5309,-4.5584,-4.6133,-4.6708,-4.7226,-4.7832,-4.8172,-4.8172,-4.8172,-4.8172,-4.8172,-4.8172,-4.8172,-4.8172,-4.8172,-4.8373,-4.8663,-4.8952,-4.924,-4.9556,-4.984,-5.001,-5.001,-5.0319,-5.0487,-5.0515,-5.1128,-5.1376,-5.1459,-5.1706,-5.1787,-5.1841,-5.2113,-5.225,-5.2389,-5.3582,-5.4432,-5.5149,-5.609,-5.6977,-5.7836,0.0,0.0,0.0,0.0,0.0,0.0,-2.2603,-2.2603,-2.2603,0.0,0.0,0.0,-2.2603,-2.25,-2.2397,-2.2294,-2.2379,-2.2448,-2.2448,-2.2534,0.0,0.0,-2.3238,-2.3886,-2.4381,-2.546,-2.6235,-2.6805,-2.7119,-2.7372,-2.7448,-2.7779,-2.7986,-2.8131,-2.8462,-2.8504,-2.8338,-2.8876,-2.9289,-2.9617,-3.0206,-3.0974,-3.1909,-3.2819,-3.3496,-3.3974,-3.4416,-3.4486,-3.4303,-3.3775,-3.3247,-3.2676,-3.1528,-3.0973,-3.0578,-3.0057,-2.9942,-2.994,-2.9663,0.0,0.0,0.0,0.0,0.0,-3.8565,-3.9702,-4.0617,-4.211,-4.2866,-4.3389,-4.3807,-4.433,-4.4722,-4.483,-4.5197,-4.564,-4.6159,-4.6734,-4.731,-4.7885,-4.8094,-4.8172,-4.8172,-4.8172,-4.8172,-4.8172,-4.8172,-4.8172,-4.8172,-4.8172,-4.8257,-4.8373,-4.8837,-4.9125,-4.924,-4.9727,-5.001,-5.001,-5.0319,-5.0599,-5.0795,-5.1211,-5.1486,-5.1677,-5.1787,-5.1787,-5.1841,-5.2358,-5.2829,-5.334,-5.4515,-5.5452,-5.6119,-5.6783,-5.7411,-5.7836,0.0,0.0,0.0,0.0,0.0,-2.2603,-2.2603,-2.2603,-2.2603,0.0,0.0,0.0,-2.2603,-2.2603,-2.2603,-2.2603,-2.2603,-2.2603,-2.2603,-2.2603,-2.2653,-2.2754,-2.3388,-2.3985,-2.4627,-2.5606,-2.6352,-2.69,-2.7167,-2.7309,-2.7309,-2.7531,-2.7655,-2.7655,-2.7924,-2.7903,-2.7696,-2.852,-2.9086,-2.9497,-3.0338,-3.13,-3.2338,-3.3404,-3.4123,-3.458,-3.4964,-3.5106,-3.5014,-3.4509,-3.3866,-3.3132,-3.1994,-3.1248,-3.0743,-3.0697,-3.0629,-3.0537,-3.0605,-3.1196,-3.2025,-3.3049,0.0,0.0,-3.794,-3.9114,-4.015,-4.1248,-4.2082,-4.284,-4.3415,-4.399,-4.4434,-4.4696,-4.5428,-4.6107,-4.6421,-4.697,-4.7545,-4.812,-4.8172,-4.8172,-4.8172,-4.8172,-4.8172,-4.8172,-4.8172,-4.8172,-4.8172,-4.8172,-4.8172,-4.8172,-4.8663,-4.901,-4.9125,-4.9556,-4.9953,-5.0206,-5.0543,-5.0822,-5.1155,-5.1431,-5.1651,-5.1787,-5.1896,-5.195,-5.2004,-5.2627,-5.3159,-5.3735,-5.4938,-5.5823,-5.649,-5.7071,-5.7584,-5.8003,0.0,0.0,-2.2603,-2.2603,-2.2637,-2.2654,-2.2654,-2.2688,-2.2723,0.0,-2.2723,-2.2723,-2.2723,-2.2688,-2.2654,-2.2654,-2.262,-2.2603,-2.2603,-2.2603,-2.2703,-2.3005,-2.3488,-2.4134,-2.4941,-2.5703,-2.64,-2.6948,-2.7167,-2.7309,-2.7309,-2.7309,-2.7309,-2.7309,-2.7309,-2.7309,-2.733,-2.7986,-2.8593,-2.9147,-3.0228,-3.1516,-3.2922,-3.4267,-3.5029,-3.5466,-3.5557,-3.5611,-3.552,-3.5037,-3.4211,-3.3361,-3.2818,-3.1994,-3.1321,-3.183,-3.1833,-3.1762,-3.2254,-3.2722,-3.3216,-3.3696,-3.4896,0.0,-3.7379,-3.8797,-3.9936,-4.0334,-4.1298,-4.2239,-4.2814,-4.3389,-4.3964,-4.4539,-4.5558,-4.6342,-4.6447,-4.7022,-4.7623,-4.812,-4.8172,-4.8172,-4.8172,-4.8172,-4.8172,-4.8172,-4.8172,-4.8172,-4.8172,-4.8172,-4.8172,-4.8172,-4.8548,-4.8837,-4.9125,-4.9469,-4.9924,-5.0515,-5.0739,-5.11,-5.1404,-5.1706,-5.1787,-5.1787,-5.2059,-5.2167,-5.2221,-5.2841,-5.3378,-5.3875,-5.4967,-5.5852,-5.6578,-5.71,-5.764,-5.814,0.0,-2.2603,-2.2603,-2.2603,-2.2809,-2.2997,-2.2997,-2.3254,-2.3495,-2.3495,-2.3495,-2.3495,-2.3495,-2.3186,-2.2997,-2.2997,-2.2774,0.0,0.0,0.0,-2.2703,-2.3005,-2.3637,-2.443,-2.5197,-2.5994,-2.6688,-2.7214,-2.7262,-2.7309,-2.7309,-2.7309,-2.7309,-2.7309,-2.7309,-2.7309,-2.7309,-2.782,-2.8588,-2.9508,-3.0896,-3.2236,-3.3489,-3.4589,-3.5301,-3.5785,-3.6054,-3.6117,-3.6048,-3.5543,-3.4849,-3.4101,-3.3608,-3.3023,-3.2581,-3.2933,-3.3118,-3.33,-3.3397,-3.3761,-3.4195,-3.4525,-3.5299,0.0,-3.7661,-3.8324,-3.9025,-4.0177,-4.0984,-4.1664,-4.2239,-4.2814,-4.3389,-4.3938,-4.4617,-4.5401,-4.6342,-4.7362,-4.8068,-4.8172,-4.8172,-4.8172,-4.8172,-4.8172,-4.8172,-4.8172,-4.8172,-4.8172,-4.8172,-4.8172,-4.8172,-4.8172,-4.8721,-4.9068,-4.9125,-4.9613,-5.015,-5.0515,-5.0739,-5.11,-5.1404,-5.1706,-5.1787,-5.1787,-5.2059,-5.2167,-5.2221,-5.2841,-5.3744,-5.478,-5.5195,-5.6113,-5.7158,-5.7274,-5.7528,-5.7892,-2.2603,-2.2603,-2.2603,-2.2603,-2.286,-2.3117,-2.3117,-2.3425,-2.3718,-2.3718,-2.3718,-2.3718,-2.3718,-2.3494,-2.3391,-2.3391,-2.3272,0.0,0.0,-2.2826,-2.2944,-2.3206,-2.3786,-2.4529,-2.5489,-2.6139,-2.6736,-2.7309,-2.7309,-2.7309,-2.7309,-2.7309,-2.7309,-2.7309,-2.7309,-2.7357,-2.7499,-2.7857,-2.8647,-2.9784,-3.0996,-3.231,-3.3648,-3.4674,-3.5409,-3.584,-3.6168,-3.6332,-3.6286,-3.6141,-3.5805,-3.539,-3.5286,-3.4984,-3.4823,-3.533,-3.559,-3.5771,-3.5998,-3.6273,-3.6472,-3.6616,-3.6807,0.0,0.0,-3.8381,-3.8726,-3.9394,-4.0043,-4.0723,-4.1585,-4.1977,-4.2448,-4.331,-4.4173,-4.4931,-4.5532,-4.6839,-4.7754,-4.7754,-4.8015,-4.8068,-4.778,-4.7754,-4.7754,-4.7754,-4.8015,-4.8172,-4.8172,-4.8172,-4.8172,-4.8172,-4.8663,-4.8952,-4.9125,-4.9556,-5.0123,-5.0711,-5.085,-5.1128,-5.1596,-5.1732,-5.1841,-5.2004,-5.2329,-5.2519,-5.268,-5.3107,-5.407,-5.5198,-5.5362,-5.62,-5.7303,-5.7303,-5.7472,-5.7836,-2.2603,-2.2603,-2.2603,-2.2603,-2.2912,-2.322,-2.322,-2.3597,-2.3958,-2.4044,-2.4044,-2.4078,-2.4093,-2.4096,-2.4044,-2.4044,-2.3907,-2.3648,-2.334,-2.3186,-2.3237,-2.348,-2.3872,-2.4627,-2.5703,-2.6255,-2.6736,-2.7309,-2.7309,-2.7309,-2.7309,-2.7309,-2.7351,-2.7434,-2.7482,-2.7619,-2.7893,-2.8227,-2.9005,-3.0116,-3.1004,-3.2243,-3.3701,-3.4781,-3.5463,-3.595,-3.6223,-3.6332,-3.644,-3.6712,-3.6737,-3.6659,-3.6972,-3.6937,-3.6997,-3.7692,-3.7958,-3.8092,-3.8526,-3.8653,-3.8628,-3.8526,-3.8287,-3.8118,0.0,0.0,0.0,-3.8684,-3.9102,-3.9782,-4.0932,-4.1141,-4.1507,-4.2683,-4.3624,-4.4304,-4.4539,-4.5872,-4.6917,-4.7153,-4.7571,-4.7675,-4.7205,-4.7179,-4.7179,-4.7179,-4.7702,-4.8015,-4.8015,-4.8178,-4.8315,-4.8315,-4.8663,-4.8952,-4.9183,-4.9583,-5.0123,-5.0906,-5.0962,-5.1293,-5.1787,-5.1787,-5.195,-5.2221,-5.2573,-5.2841,-5.3136,-5.354,-5.4371,-5.5416,-5.5362,-5.609,-5.7191,-5.7191,-5.736,-5.7669,-2.2603,-2.2603,-2.2603,-2.2603,-2.3186,-2.3649,-2.3649,-2.423,-2.4812,-2.5138,-2.5228,-2.5309,-2.5652,-2.5378,-2.5228,-2.5228,-2.4556,-2.4091,-2.4056,-2.3477,-2.3306,-2.3819,-2.4035,-2.4627,-2.5703,-2.6255,-2.6736,-2.7309,-2.7309,-2.7309,-2.7309,-2.7309,-2.7469,-2.7841,-2.8132,-2.8509,-2.8887,-2.9379,-3.0095,-3.0893,-3.1456,-3.2549,-3.4019,-3.507,-3.5787,-3.6277,-3.6277,-3.644,-3.6712,-3.6958,-3.7268,-3.7515,-3.78,-3.8041,-3.8333,-3.8579,-3.8846,-3.9062,-3.9091,-3.9091,-3.9036,-3.8519,-3.8385,-3.8251,-3.8017,0.0,-3.8135,-3.8606,0.0,-3.9155,-4.0305,0.0,0.0,-4.2082,-4.2421,-4.2866,-4.3833,-4.4591,-4.5454,-4.6447,-4.663,-4.6656,-4.6578,-4.6578,-4.6578,-4.6578,-4.71,-4.744,-4.744,-4.82,-4.8606,-4.8606,-4.9183,-4.9499,-4.9556,-5.0093,-5.0599,-5.0906,-5.1211,-5.1486,-5.1787,-5.1787,-5.195,-5.2221,-5.2573,-5.2841,-5.3164,-5.4008,-5.4807,-5.5362,-5.5143,-5.5812,-5.6936,-5.6936,-5.6993,-5.7107,-2.2603,-2.2603,-2.2603,-2.2603,-2.322,-2.3718,-2.3682,-2.4504,-2.5189,-2.54,-2.5566,-2.5754,-2.5867,-2.5788,-2.5703,-2.5703,-2.5412,-2.4979,-2.4607,-2.4427,-2.4367,-2.4503,-2.4804,-2.5332,-2.6251,-2.6569,-2.6928,-2.7309,-2.7309,-2.7309,-2.7309,-2.7309,-2.7633,-2.8216,-2.8313,-2.8809,-2.9479,-2.9698,-3.0324,-3.1252,-3.1867,-3.2999,-3.4313,-3.4857,-3.5588,-3.6332,-3.6332,-3.6495,-3.6766,-3.7251,-3.7777,-3.8368,-3.8858,-3.9399,-3.9923,-3.9973,-4.0221,-4.0444,-4.0444,-4.0444,-4.0288,-3.9715,-3.9325,-3.8934,-3.8454,-3.837,-3.8423,-3.8658,0.0,0.0,0.0,0.0,0.0,0.0,-4.1951,-4.2395,-4.2866,-4.3389,-4.4304,-4.582,-4.629,-4.6342,-4.6003,-4.5976,-4.5976,-4.5976,-4.6525,-4.7027,-4.7595,-4.7947,-4.8435,-4.8952,-4.9354,-4.9832,-5.0354,-5.078,-5.1426,-5.2266,-5.2379,-5.2603,-5.2854,-5.2489,-5.2514,-5.2788,-5.25,-5.268,-5.3164,-5.3744,-5.4432,-5.5146,-5.5022,-5.5764,-5.688,-5.6709,-5.6709,-5.6993,-2.2603,-2.2603,-2.2603,-2.2603,-2.322,-2.3821,-2.411,-2.4847,-2.5446,-2.5652,-2.6011,-2.6285,-2.6388,-2.6431,-2.6559,-2.6559,-2.6413,-2.6127,-2.5691,-2.5625,-2.5646,-2.5658,-2.5858,-2.6287,-2.6973,-2.7045,-2.7208,-2.7448,-2.7372,-2.7309,-2.7309,-2.7309,-2.7744,-2.8551,-2.8648,-2.9394,-3.0528,-3.0578,-3.1212,-3.2202,-3.2814,-3.3673,-3.4728,-3.5099,-3.5634,-3.6332,-3.6332,-3.6549,-3.6928,-3.7518,-3.8262,-3.9077,-3.9724,-4.0389,-4.0896,-4.0997,-4.1147,-4.1324,-4.1324,-4.1324,-4.1141,-4.0383,-3.9886,-3.9416,-3.8658,-3.8606,-3.871,-3.871,-3.9181,0.0,0.0,0.0,-4.0618,-4.1219,0.0,-4.1977,-4.2185,-4.2526,-4.3389,-4.4957,-4.5663,-4.5846,-4.5428,-4.532,-4.532,-4.532,-4.5924,-4.6533,-4.7265,-4.7721,-4.8319,-4.9087,-4.9616,-5.017,-5.0862,-5.1258,-5.1818,-5.2714,-5.2937,-5.3191,-5.3388,-5.3107,-5.3049,-5.3185,-5.2703,-5.2662,-5.3005,-5.3592,-5.4247,-5.49,-5.5168,-5.5851,-5.6595,-5.6365,-5.648,-5.688,-2.2603,-2.2603,-2.2603,-2.2603,-2.322,-2.4096,-2.5194,-2.54,-2.5634,-2.6354,-2.6799,-2.7176,-2.7518,-2.7895,-2.8117,-2.8117,-2.7739,-2.7589,-2.7889,-2.7172,-2.6958,-2.7384,-2.7304,-2.7402,-2.7753,-2.7659,-2.766,-2.7903,-2.7469,-2.7309,-2.7309,-2.7309,-2.7931,-2.8964,-2.9303,-3.0522,-3.2315,-3.2597,-3.3302,-3.4327,-3.435,-3.4827,-3.5543,-3.6048,-3.6286,-3.6332,-3.6332,-3.6657,-3.7197,-3.7761,-3.8579,-3.9413,-4.0236,-4.0643,-4.0946,-4.1198,-4.1274,-4.1324,-4.1324,-4.1324,-4.1036,-3.9913,-3.9625,-3.9311,-3.8187,-3.8344,-3.871,-3.871,-3.9181,-3.9782,-4.0305,-4.0409,0.0,0.0,-4.1324,0.0,0.0,-4.2238,-4.2682,-4.3834,-4.4434,-4.4774,-4.4748,-4.4748,-4.4748,-4.4748,-4.5323,-4.5773,-4.6049,-4.7466,-4.8527,-4.9086,-5.0019,-5.0599,-5.0878,-5.1238,-5.1432,-5.146,-5.2295,-5.2742,-5.2742,-5.336,-5.35,-5.3213,-5.3185,-5.298,-5.282,-5.3994,-5.4482,-5.4596,-5.5566,-5.6019,-5.6048,-5.6048,-5.6193,-5.6566,-2.334,-2.334,-2.3255,-2.2963,-2.334,-2.4096,-2.5245,-2.6011,-2.6593,-2.685,-2.7432,-2.786,-2.798,-2.8117,-2.8312,-2.8501,-2.8614,-2.8674,-2.8696,-2.8806,-2.8842,-2.892,-2.8928,-2.8993,-2.9001,-2.8809,-2.859,-2.838,-2.8235,-2.8105,-2.7959,-2.7959,-2.8368,-2.9052,-2.952,-3.0621,-3.22,-3.2635,-3.3421,-3.4418,-3.4918,-3.5512,-3.6048,-3.6208,-3.6332,-3.6332,-3.6332,-3.6549,-3.6928,-3.7518,-3.8315,-3.9129,-3.9981,-4.0542,-4.0946,-4.1198,-4.1324,-4.1324,-4.1324,-4.1324,-4.1115,-4.0331,-3.9886,-3.952,-3.9128,-3.9181,-3.9416,-3.9756,-4.0618,-4.1246,-4.1063,-4.1324,0.0,0.0,0.0,-4.1376,0.0,-4.1925,-4.2368,-4.2761,-4.3572,-4.4304,-4.4696,-4.4668,-4.4668,-4.4668,-4.4905,-4.5411,-4.6298,-4.7178,-4.8237,-4.9391,-5.013,-5.0903,-5.1794,-5.1933,-5.2296,-5.2939,-5.3248,-5.3557,-5.395,-5.3754,-5.3613,-5.35,-5.3078,-5.2933,-5.3067,-5.3724,-5.429,-5.4856,-5.5477,-5.5671,-5.5671,-5.5671,-5.6135,-5.6936,-2.3718,-2.3718,-2.3649,-2.3357,-2.3734,-2.4419,-2.5412,-2.6422,-2.7124,-2.7244,-2.7929,-2.8408,-2.8408,-2.8639,-2.8899,-2.9217,-2.9582,-2.9901,-3.0181,-3.0493,-3.0723,-3.0697,-3.0807,-3.0765,-3.0544,-3.013,-2.9701,-2.9408,-2.9074,-2.8726,-2.8431,-2.8431,-2.8673,-2.9128,-2.9678,-3.0921,-3.2552,-3.3146,-3.4042,-3.5101,-3.5711,-3.6195,-3.6603,-3.6712,-3.6549,-3.6332,-3.6332,-3.6495,-3.6766,-3.7251,-3.7945,-3.8635,-3.9492,-4.016,-4.0694,-4.1047,-4.1224,-4.1324,-4.1324,-4.1324,-4.1167,-4.0566,-4.0148,-3.9834,-3.9651,-3.9756,-3.9991,-4.0357,-4.1193,-4.1742,-4.1376,-4.1611,-4.1742,0.0,0.0,0.0,0.0,-4.1638,-4.1951,-4.2185,-4.3232,-4.3938,-4.4095,-4.4487,-4.4643,-4.4434,-4.4617,-4.5096,-4.6141,-4.6727,-4.7809,-4.9391,-5.0023,-5.0906,-5.2128,-5.2128,-5.2435,-5.2995,-5.322,-5.3669,-5.4259,-5.4091,-5.4007,-5.395,-5.3332,-5.305,-5.3076,-5.3529,-5.4008,-5.4572,-5.5245,-5.5496,-5.5496,-5.5613,-5.6423,-5.7557,-2.3821,-2.3821,-2.3838,-2.3855,-2.4419,-2.5155,-2.5816,-2.6645,-2.7261,-2.7621,-2.834,-2.8901,-2.8901,-2.9535,-3.007,-3.0378,-3.0747,-3.1332,-3.2296,-3.2299,-3.2475,-3.2789,-3.2804,-3.2671,-3.2371,-3.1529,-3.1016,-3.0952,-3.0027,-2.9323,-2.8764,-2.8791,-2.8935,-2.9219,-2.9921,-3.1324,-3.3279,-3.4087,-3.5123,-3.6332,-3.6603,-3.6874,-3.7197,-3.7542,-3.7143,-3.6386,-3.6386,-3.6472,-3.6766,-3.6958,-3.7441,-3.808,-3.8921,-3.9595,-4.016,-4.0744,-4.1097,-4.1324,-4.1324,-4.1324,-4.1167,-4.0592,-4.0435,-4.0278,-3.9808,-4.0069,-4.0435,-4.0461,-4.0932,-4.135,-4.1324,-4.1324,-4.135,0.0,0.0,0.0,-4.1324,-4.1324,-4.1507,-4.2107,-4.3154,-4.3572,-4.3075,-4.3963,-4.4434,-4.3912,-4.4382,-4.4966,-4.5555,-4.6195,-4.7325,-4.9029,-4.9691,-5.0572,-5.1787,-5.1787,-5.1787,-5.1787,-5.2377,-5.2995,-5.3641,-5.4259,-5.454,-5.4512,-5.3922,-5.3332,-5.2798,-5.3416,-5.3754,-5.3838,-5.5046,-5.5496,-5.5554,-5.5903,-5.6993,-5.8305,-2.536,-2.536,-2.5446,-2.572,-2.5925,-2.6217,-2.6713,-2.7415,-2.8049,-2.8426,-2.9388,-2.9986,-2.9986,-3.0915,-3.1553,-3.1545,-3.2394,-3.2906,-3.2936,-3.3658,-3.406,-3.4094,-3.4365,-3.4116,-3.333,-3.3074,-3.2435,-3.1317,-3.1083,-3.0653,-3.0041,-2.9894,-2.9964,-3.0207,-3.0607,-3.1843,-3.3611,-3.4139,-3.523,-3.6603,-3.6874,-3.7281,-3.7814,-3.8104,-3.8051,-3.7785,-3.7143,-3.682,-3.6688,-3.6766,-3.7012,-3.7495,-3.8582,-3.926,-3.9879,-4.0668,-4.1097,-4.1324,-4.1324,-4.1324,-4.1272,-4.1115,-4.0749,-4.0488,-4.0801,-4.0644,-4.054,-4.0984,-4.1559,-4.1821,-4.1402,-4.1664,-4.1794,-4.1376,-4.1324,-4.1324,-4.1324,-4.1324,-4.1376,-4.1507,-4.216,-4.2709,-4.2997,-4.3232,-4.3572,-4.3912,-4.4203,-4.4758,-4.5582,-4.6357,-4.7487,-4.9029,-4.9691,-5.0572,-5.1787,-5.1787,-5.1787,-5.1787,-5.1955,-5.2349,-5.2967,-5.3613,-5.3894,-5.3894,-5.3754,-5.3585,-5.3445,-5.3613,-5.3922,-5.4428,-5.5187,-5.5613,-5.5961,-5.6709,-5.736,-5.8029,-2.5885,-2.6199,-2.6542,-2.6919,-2.7228,-2.7427,-2.7356,-2.8209,-2.9025,-2.9232,-3.0386,-3.111,-3.111,-3.1974,-3.2629,-3.2739,-3.3574,-3.4127,-3.4258,-3.4902,-3.5289,-3.5299,-3.5634,-3.5466,-3.4712,-3.445,-3.3658,-3.2502,-3.223,-3.1641,-3.0858,-3.0844,-3.0847,-3.0793,-3.1285,-3.2316,-3.3788,-3.4827,-3.5856,-3.6904,-3.7334,-3.7921,0.0,-3.8973,-3.9129,-3.9077,-3.8425,-3.7708,-3.7089,-3.6928,-3.6982,-3.7227,-3.8027,-3.8687,-3.9415,-4.0313,-4.0846,-4.1147,-4.1274,-4.1324,-4.1324,-4.1324,-4.1063,-4.0906,-4.1246,-4.1063,-4.0906,-4.1246,-4.1559,-4.169,-4.1376,-4.1585,-4.169,-4.1376,-4.1324,-4.1324,-4.1324,-4.1324,-4.1324,-4.1324,-4.1611,-4.1925,-4.2239,-4.2735,-4.3206,-4.3704,-4.4098,-4.4758,-4.5715,-4.6329,-4.7322,-4.8696,-4.9411,-5.0371,-5.1555,-5.1701,-5.1841,-5.195,-5.1841,-5.2124,-5.2714,-5.336,-5.381,-5.4063,-5.3782,-5.3726,-5.3726,-5.3726,-5.3866,-5.4345,-5.5333,-5.5845,-5.6135,-5.7163,-5.7696,-5.814,-2.6175,-2.6765,-2.7391,-2.7751,-2.8442,-2.8787,-2.8303,-2.934,-3.0183,-3.0289,-3.1589,-3.2442,-3.2442,-3.3185,-3.3737,-3.3946,-3.4673,-3.5346,-3.5718,-3.6141,-3.6372,-3.6436,-3.6752,-3.675,-3.6238,-3.5565,-3.4869,-3.3989,-3.3312,-3.2465,-3.1556,-3.1672,-3.1573,-3.1285,-3.189,-3.276,-3.3976,-3.5657,-3.6657,-3.7251,-3.7964,-3.8704,-3.9488,-4.0158,-4.044,-4.0389,-4.0106,-3.9019,-3.7679,-3.7358,-3.7197,-3.7143,-3.7542,-3.8157,-3.8896,-3.9801,-4.0491,-4.0946,-4.1198,-4.1324,-4.1324,-4.1324,-4.1324,-4.1324,-4.1324,-4.1324,-4.1324,-4.1324,-4.1324,-4.1324,-4.1324,-4.1324,-4.1324,-4.1324,-4.1324,-4.1324,-4.1324,-4.1324,-4.1324,-4.1324,-4.1324,0.0,-4.1324,-4.2213,-4.297,-4.3438,-4.3939,-4.4784,-4.5927,-4.627,-4.6962,-4.8172,-4.9014,-5.0051,-5.1339,-5.1663,-5.1974,-5.2329,-5.2059,-5.2177,-5.2712,-5.35,-5.4092,-5.443,-5.4036,-5.3726,-5.3613,-5.3698,-5.3838,-5.412,-5.5507,-5.6105,-5.625,-5.7445,-5.8029,-5.8415,-2.7792,-2.7912,-2.8243,-2.8876,-2.9626,-3.0459,-3.1552,-3.1433,-3.1533,-3.2522,-3.3661,-3.4432,-3.4432,-3.5345,-3.5807,-3.554,-3.6446,-3.6917,-3.6593,-3.7445,-3.7883,-3.7754,-3.8121,-3.8005,-3.7309,-3.6809,-3.6072,-3.5134,-3.4173,-3.3414,-3.2862,-3.2284,-3.2229,-3.2547,-3.2453,-3.3242,-3.4687,-3.6033,-3.6982,-3.7619,-3.8883,-3.9851,-4.0689,-4.1774,-4.2163,-4.2163,-4.2111,-4.0557,-3.8502,-3.8027,-3.7495,-3.7197,-3.7761,-3.821,-3.8659,-3.975,-4.0491,-4.0946,-4.1198,-4.1324,-4.1324,-4.1324,-4.1324,-4.1324,-4.1324,-4.1324,-4.1324,-4.1324,-4.1324,-4.1324,-4.1324,-4.1324,-4.1324,-4.1324,-4.1324,-4.1324,-4.1324,-4.1324,-4.1324,-4.1324,-4.1324,-4.1324,-4.1324,-4.1507,-4.2105,-4.3385,-4.3802,-4.4567,-4.5953,-4.6508,-4.7252,-4.8172,-4.8806,-4.9916,-5.1628,-5.1928,-5.2349,-5.2919,-5.2623,-5.2548,-5.2772,-5.3913,-5.4226,-5.3801,-5.4255,-5.3975,-5.3301,-5.3585,-5.4431,-5.5678,-5.6165,-5.648,-5.688,-5.8029,-5.847,-5.8689,-2.8734,-2.8939,-2.9327,-3.0018,-3.0954,-3.2118,-3.3861,-3.4646,-3.4995,-3.4987,-3.6189,-3.6933,-3.6714,-3.728,-3.7557,-3.711,-3.7687,-3.796,-3.7695,-3.8487,-3.8906,-3.8759,-3.8987,-3.8873,-3.838,-3.7839,-3.6961,-3.5837,-3.4958,-3.4133,-3.3389,-3.2946,-3.2841,-3.3092,-3.3518,-3.4096,-3.4877,-3.6464,-3.7543,-3.8347,-3.9741,-4.0821,-4.164,-4.2475,-4.2788,-4.2788,-4.2788,-4.185,-4.0448,-3.9599,-3.8791,-3.8217,-3.8489,-3.8815,-3.9223,-4.0395,-4.1154,-4.1595,-4.1719,-4.1768,-4.169,-4.1402,-4.1324,-4.1324,-4.1324,-4.1324,-4.1324,-4.1324,-4.1324,-4.1324,-4.1324,-4.1559,-4.1768,-4.1768,-4.2004,-4.2213,-4.2213,-4.1951,-4.1768,-4.1768,-4.1507,-4.1324,-4.1324,-4.1324,-4.1896,-4.3385,-4.3774,-4.4512,-4.59,-4.6717,-4.7374,-4.7937,-4.8888,-5.0058,-5.1295,-5.2143,-5.2762,-5.3186,-5.3274,-5.341,-5.3679,-5.4601,-5.4861,-5.4547,-5.456,-5.4139,-5.3461,-5.378,-5.4658,-5.5852,-5.6736,-5.7332,-5.7696,-5.8689,-5.9177,-5.9362,-2.9487,-2.9795,-3.0238,-3.0988,-3.2111,-3.3569,-3.5656,-3.7618,-3.8502,-3.757,-3.861,-3.9309,-3.8854,-3.8948,-3.8916,-3.837,-3.8681,-3.8929,-3.8872,-3.9432,-3.979,-3.9766,-3.9882,-3.9749,-3.934,-3.8698,-3.7768,-3.6522,-3.5749,-3.4903,-3.4016,-3.3719,-3.3614,-3.3637,-3.4555,-3.5014,-3.5251,-3.6866,-3.8131,-3.9093,-4.0577,-4.1667,-4.2415,-4.3126,-4.3389,-4.3389,-4.3389,-4.302,-4.2381,-4.1384,-4.0196,-3.9229,-3.9253,-3.9419,-3.9837,-4.0981,-4.1732,-4.2238,-4.2371,-4.2343,-4.2213,-4.1638,-4.1507,-4.1455,-4.135,-4.1324,-4.1324,-4.1324,-4.1324,-4.1324,-4.1324,-4.1768,-4.2211,-4.2211,-4.2657,-4.3023,-4.3023,-4.2631,-4.2342,-4.2238,-4.1768,-4.1455,-4.1324,-4.1374,-4.1946,-4.3385,-4.3774,-4.4512,-4.6006,-4.6873,-4.7391,-4.7726,-4.8991,-5.0133,-5.1092,-5.2335,-5.3183,-5.3532,-5.3958,-5.4397,-5.4861,-5.545,-5.5546,-5.5376,-5.4976,-5.4304,-5.3433,-5.375,-5.4571,-5.5734,-5.7149,-5.7967,-5.847,-5.9369,-5.9819,-6.0084,-3.0309,-3.0361,-3.0599,-3.1311,-3.2715,-3.4515,-3.6702,-3.9048,-4.0541,-4.0324,-4.0686,-4.0829,-4.0378,-3.9979,-3.9608,-3.912,-3.9407,-3.9735,-4.0084,-4.0452,-4.0746,-4.0909,-4.0967,-4.0637,-4.0006,-3.9455,-3.8676,-3.7667,-3.6635,-3.5856,-3.5306,-3.4877,-3.4647,-3.4693,-3.5221,-3.5703,-3.6217,-3.7364,-3.8508,-3.9702,-4.1395,-4.241,-4.3031,-4.4141,-4.4565,-4.4565,-4.4565,-4.4212,-4.3636,-4.3002,-4.1305,-3.9561,-3.953,-3.9585,-3.9837,-4.0981,-4.1732,-4.2315,-4.2788,-4.2944,-4.2814,-4.2239,-4.2133,-4.1951,-4.1428,-4.1324,-4.1324,-4.1324,-4.1324,-4.1324,-4.1324,-4.1768,-4.2211,-4.2211,-4.2657,-4.3023,-4.3023,-4.2971,-4.2735,-4.229,-4.2159,-4.1873,-4.135,-4.1498,-4.2198,-4.3437,-4.3774,-4.4642,-4.6348,-4.6977,-4.7391,-4.7726,-4.8767,-4.9997,-5.1366,-5.2564,-5.3563,-5.4379,-5.482,-5.5355,-5.6042,-5.6407,-5.6084,-5.5289,-5.5371,-5.444,-5.2825,-5.3131,-5.4284,-5.5956,-5.687,-5.7991,-5.9099,-6.0008,-6.0324,-6.0377,-3.141,-3.1635,-3.2088,-3.309,-3.4382,-3.5927,-3.7997,-4.0084,-4.1822,-4.2757,-4.2779,-4.2404,-4.1659,-4.1214,-4.0776,-4.0192,-4.0257,-4.0517,-4.0864,-4.1229,-4.146,-4.1534,-4.1428,-4.1273,-4.1046,-4.0181,-3.94,-3.8688,-3.7678,-3.692,-3.636,-3.5611,-3.5221,-3.5244,-3.5749,-3.6254,-3.6838,-3.8283,-3.9347,-4.0258,-4.1966,-4.3047,-4.3621,-4.4427,-4.4668,-4.4668,-4.4668,-4.4367,-4.3789,-4.3209,-4.1879,-4.0523,-4.0547,-4.0523,-4.0725,-4.1977,-4.2747,-4.3293,-4.3465,-4.352,-4.3389,-4.2814,-4.2422,-4.2159,-4.1873,-4.1559,-4.1324,-4.1324,-4.1324,-4.1324,-4.1324,-4.2056,-4.2683,-4.2683,-4.3441,-4.4042,-4.4042,-4.3755,-4.3337,-4.2762,-4.2369,-4.1951,-4.1376,-4.1547,-4.214,-4.3139,-4.3766,-4.4718,-4.6111,-4.6873,-4.7545,-4.8156,-4.9178,-5.0319,-5.1494,-5.3144,-5.4097,-5.4387,-5.5383,-5.6375,-5.7251,-5.6874,-5.5961,-5.4749,-5.4099,-5.3143,-5.2235,-5.3069,-5.4073,-5.5188,-5.6592,-5.7902,-5.9085,-5.9765,-6.03,-6.0638,-3.2402,-3.268,-3.3247,-3.4451,-3.5585,-3.697,-3.899,-4.0843,-4.2609,-4.4068,-4.4135,-4.3731,-4.2906,-4.2458,-4.1993,-4.126,-4.1193,-4.1256,-4.1444,-4.1678,-4.187,-4.1934,-4.1868,-4.1719,-4.1581,-4.0869,-4.0112,-3.9308,-3.8573,-3.7907,-3.7242,-3.653,-3.6185,-3.6208,-3.6553,-3.7012,-3.754,-3.8881,-4.0059,-4.1031,-4.2612,-4.3731,-4.4442,-4.5025,-4.5245,-4.5218,-4.5062,-4.4626,-4.3994,-4.326,-4.2174,-4.1091,-4.1057,-4.1057,-4.132,-4.2513,-4.3321,-4.3907,-4.409,-4.4121,-4.399,-4.3415,-4.2971,-4.263,-4.229,-4.1847,-4.1507,-4.135,-4.1324,-4.1324,-4.1324,-4.2239,-4.3023,-4.3023,-4.399,-4.4668,-4.4668,-4.4382,-4.3859,-4.3101,-4.2657,-4.2185,-4.1476,-4.1647,-4.2183,-4.3045,-4.3825,-4.4783,-4.5973,-4.6867,-4.7801,-4.8581,-4.9493,-5.0508,-5.1572,-5.3448,-5.4402,-5.4449,-5.6059,-5.7167,-5.7801,-5.6705,-5.5567,-5.4322,-5.3016,-5.2221,-5.1869,-5.2975,-5.3909,-5.4754,-5.6333,-5.7833,-5.9161,-5.9625,-6.0209,-6.0794,-3.3183,-3.3256,-3.3619,-3.4775,-3.5971,-3.748,-3.9404,-4.1327,-4.2888,-4.4135,-4.4594,-4.4596,-4.4164,-4.3692,-4.3085,-4.2188,-4.2098,-4.2026,-4.1829,-4.1806,-4.1934,-4.2275,-4.2275,-4.2086,-4.1581,-4.1558,-4.0823,-3.9308,-3.9285,-3.878,-3.777,-3.777,-3.7747,-3.7747,-3.777,-3.8068,-3.8631,-3.9265,-4.0487,-4.2059,-4.3275,-4.4516,-4.5679,-4.6221,-4.6447,-4.6395,-4.582,-4.5197,-4.4535,-4.3386,-4.2174,-4.1033,-4.0769,-4.0884,-4.132,-4.2231,-4.3154,-4.401,-4.4559,-4.4668,-4.4591,-4.4016,-4.3912,-4.3546,-4.2473,-4.2211,-4.2004,-4.1428,-4.1324,-4.1324,-4.1324,-4.2239,-4.3023,-4.3023,-4.399,-4.4668,-4.4668,-4.4668,-4.4304,-4.3154,-4.3023,-4.2655,-4.1752,-4.1944,-4.248,-4.3345,-4.3922,-4.4738,-4.5942,-4.7086,-4.8055,-4.8859,-4.962,-5.0508,-5.1572,-5.3448,-5.4496,-5.4714,-5.6792,-5.7678,-5.7381,-5.5952,-5.4855,-5.4028,-5.2775,-5.2059,-5.1841,-5.2759,-5.3825,-5.5014,-5.6166,-5.7749,-5.942,-5.9676,-6.0209,-6.0794,-3.3989,-3.4335,-3.4864,-3.5999,-3.7172,-3.8557,-4.0187,-4.1869,-4.3438,-4.5022,-4.5165,-4.5279,-4.5462,-4.4324,-4.3354,-4.2924,-4.2628,-4.2509,-4.2651,-4.2331,-4.2212,-4.2275,-4.2275,-4.227,-4.2109,-4.1742,-4.1329,-4.0846,-4.0502,-3.9997,-3.939,-3.939,-3.939,-3.939,-3.939,-3.9808,-4.0449,-4.1129,-4.2064,-4.3238,-4.4252,-4.5158,-4.5907,-4.636,-4.6473,-4.6447,-4.6264,-4.5818,-4.5201,-4.4624,-4.3573,-4.2525,-4.249,-4.1866,-4.132,-4.2513,-4.3321,-4.401,-4.4585,-4.4668,-4.4696,-4.4513,-4.4173,-4.3834,-4.3468,-4.2787,-4.2004,-4.1428,-4.1324,-4.1428,-4.1821,-4.2526,-4.3154,-4.3546,-4.4225,-4.4776,-4.5018,-4.5018,-4.4678,-4.3647,-4.3721,-4.3421,-4.2373,-4.2631,-4.31,-4.3506,-4.4401,-4.5253,-4.5993,-4.6873,-4.7906,-4.91,-5.0076,-5.1173,-5.2546,-5.3926,-5.4851,-5.5407,-5.7008,-5.735,-5.6485,-5.5486,-5.4304,-5.3045,-5.2252,-5.1896,-5.1841,-5.2759,-5.3564,-5.4316,-5.5478,-5.7051,-5.8746,-5.9,-5.9809,-6.0794,-3.4765,-3.5262,-3.5852,-3.7051,-3.8325,-3.9738,-4.1304,-4.2877,-4.4339,-4.5658,-4.5919,-4.5989,-4.6104,-4.5119,-4.4256,-4.3843,-4.3524,-4.3317,-4.3372,-4.289,-4.2614,-4.2614,-4.2431,-4.2275,-4.2275,-4.2017,-4.1765,-4.1581,-4.1076,-4.0663,-4.0341,-4.0341,-4.0341,-4.0341,-4.0523,-4.0866,-4.1532,-4.234,-4.3273,-4.4274,-4.5211,-4.5975,-4.67,-4.7012,-4.7127,-4.71,-4.6865,-4.6389,-4.579,-4.5272,-4.4328,-4.3423,-4.3566,-4.2983,-4.2396,-4.3112,-4.3762,-4.4266,-4.4637,-4.4668,-4.4668,-4.4668,-4.446,-4.4147,-4.3912,-4.3154,-4.2317,-4.1768,-4.1738,-4.1894,-4.2285,-4.2888,-4.3519,-4.4072,-4.4677,-4.518,-4.5448,-4.5316,-4.4916,-4.434,-4.4219,-4.3904,-4.3218,-4.3471,-4.3804,-4.4153,-4.4922,-4.5712,-4.646,-4.7236,-4.8273,-4.9659,-5.0508,-5.164,-5.3113,-5.4159,-5.5068,-5.5715,-5.6659,-5.6677,-5.5893,-5.4854,-5.3666,-5.2437,-5.2004,-5.1787,-5.1896,-5.2865,-5.3553,-5.4149,-5.53,-5.6899,-5.8592,-5.8743,-5.9624,-6.0794,-3.5456,-3.5978,-3.659,-3.7862,-3.9366,-4.1056,-4.2669,-4.4227,-4.5538,-4.6272,-4.6674,-4.6701,-4.6288,-4.6173,-4.5737,-4.4796,-4.4658,-4.4405,-4.39,-4.3395,-4.3142,-4.3142,-4.266,-4.2385,-4.2385,-4.2298,-4.2109,-4.1627,-4.1145,-4.0915,-4.0915,-4.0938,-4.0915,-4.0915,-4.1283,-4.1686,-4.205,-4.3035,-4.4136,-4.526,-4.6119,-4.6978,-4.7762,-4.8055,-4.8172,-4.812,-4.7513,-4.6927,-4.6327,-4.5501,-4.4627,-4.3959,-4.4311,-4.4369,-4.4328,-4.4016,-4.432,-4.478,-4.4846,-4.4772,-4.4746,-4.4746,-4.4748,-4.4565,-4.399,-4.3467,-4.2918,-4.2395,-4.2494,-4.2724,-4.2774,-4.3429,-4.4115,-4.4702,-4.5288,-4.5742,-4.606,-4.5548,-4.5213,-4.5116,-4.4612,-4.4346,-4.4415,-4.4452,-4.4684,-4.5218,-4.5475,-4.6143,-4.746,-4.8066,-4.9039,-5.0383,-5.1011,-5.1981,-5.3376,-5.4313,-5.5161,-5.5838,-5.592,-5.5882,-5.5634,-5.4159,-5.3025,-5.2167,-5.1896,-5.1787,-5.1896,-5.3025,-5.3815,-5.4406,-5.5611,-5.7178,-5.8793,-5.8824,-5.9686,-6.0794,-3.553,-3.6201,-3.7053,-3.832,-4.0078,-4.1866,-4.3456,-4.5069,-4.6362,-4.7176,-4.7044,-4.6977,-4.7252,-4.6586,-4.6035,-4.5783,-4.5048,-4.4566,-4.4428,-4.3923,-4.3625,-4.3625,-4.3165,-4.2913,-4.2913,-4.2522,-4.227,-4.2155,-4.204,-4.1908,-4.1971,-4.2223,-4.2349,-4.2349,-4.295,-4.3569,-4.4159,-4.4913,-4.577,-4.6705,-4.7203,-4.7691,-4.8055,-4.8172,-4.8055,-4.7795,-4.7665,-4.7228,-4.6696,-4.6696,-4.6231,-4.5779,-4.6349,-4.6349,-4.6054,-4.5355,-4.5417,-4.5731,-4.5995,-4.5741,-4.5401,-4.5401,-4.5007,-4.4565,-4.399,-4.3966,-4.3809,-4.3307,-4.3562,-4.4026,-4.4481,-4.4927,-4.5351,-4.5894,-4.6137,-4.6376,-4.6925,-4.6582,-4.6351,-4.6446,-4.6253,-4.5999,-4.5673,-4.584,-4.6092,-4.6462,-4.6506,-4.72,-4.8682,-4.9102,-4.9727,-5.0668,-5.1944,-5.3064,-5.411,-5.4989,-5.6084,-5.7285,-5.6427,-5.5882,-5.5634,-5.4159,-5.3025,-5.2167,-5.1896,-5.1787,-5.1896,-5.3025,-5.3815,-5.4436,-5.6124,-5.7606,-5.8854,-5.9347,-6.0086,-6.0794,-3.6293,-3.7107,-3.8051,-3.9269,-4.1126,-4.3022,-4.4656,-4.61,-4.7235,-4.7869,-4.7734,-4.7597,-4.7643,-4.7067,-4.6724,-4.6495,-4.553,-4.4956,-4.4956,-4.4474,-4.4176,-4.4176,-4.3693,-4.3303,-4.3096,-4.2821,-4.2568,-4.2275,-4.2466,-4.257,-4.2759,-4.3075,-4.3326,-4.349,-4.4175,-4.4792,-4.5342,-4.613,-4.6849,-4.7442,-4.7821,-4.8055,-4.8172,-4.8172,-4.7997,-4.7703,-4.7703,-4.729,-4.6866,-4.7087,-4.6874,-4.6601,-4.7231,-4.7324,-4.7162,-4.6863,-4.6616,-4.6415,-4.6495,-4.6264,-4.595,-4.5689,-4.532,-4.4983,-4.4382,-4.4492,-4.4573,-4.4148,-4.4584,-4.5255,-4.5837,-4.6247,-4.6745,-4.7378,-4.7513,-4.7582,-4.7734,-4.7419,-4.7156,-4.7189,-4.6966,-4.68,-4.677,-4.6915,-4.7239,-4.7829,-4.7859,-4.8473,-4.993,-5.0245,-5.0804,-5.176,-5.2667,-5.3711,-5.4972,-5.579,-5.6625,-5.7364,-5.6525,-5.5932,-5.5372,-5.4221,-5.3237,-5.2383,-5.195,-5.1787,-5.1896,-5.3025,-5.399,-5.4931,-5.6395,-5.7911,-5.9285,-5.9655,-6.0209,-6.0794,-3.7402,-3.8267,-3.9248,-4.0398,-4.2387,-4.4263,-4.5742,-4.7063,-4.8013,-4.84,-4.8473,-4.8312,-4.7875,-4.776,-4.7601,-4.7164,-4.6197,-4.553,-4.553,-4.5002,-4.4727,-4.4727,-4.4199,-4.3739,-4.3326,-4.323,-4.2972,-4.2466,-4.2759,-4.3137,-4.349,-4.3864,-4.4175,-4.4546,-4.522,-4.5707,-4.607,-4.6909,-4.7442,-4.7821,-4.8055,-4.8172,-4.8172,-4.8172,-4.7938,-4.7619,-4.7619,-4.7231,-4.6866,-4.7087,-4.7053,-4.7019,-4.7586,-4.7762,-4.7821,-4.8114,-4.7684,-4.7017,-4.6808,-4.6682,-4.6473,-4.5898,-4.5689,-4.5506,-4.4983,-4.5125,-4.5236,-4.5126,-4.5768,-4.6533,-4.7113,-4.7688,-4.8252,-4.8907,-4.9042,-4.894,-4.8606,-4.8177,-4.7892,-4.7894,-4.751,-4.7459,-4.8011,-4.8054,-4.8382,-4.9217,-4.9248,-4.9796,-5.1029,-5.1375,-5.2047,-5.3235,-5.3421,-5.4297,-5.5838,-5.6502,-5.681,-5.681,-5.6519,-5.5948,-5.5149,-5.4304,-5.3471,-5.2623,-5.2113,-5.1898,-5.2091,-5.3222,-5.4393,-5.5634,-5.6868,-5.8339,-5.9809,-5.9901,-6.0301,-6.0794,-3.8282,-3.938,-4.0418,-4.1305,-4.3436,-4.5325,-4.6323,-4.7507,-4.8328,-4.84,-4.8691,-4.8884,-4.8815,-4.8683,-4.845,-4.8003,-4.7052,-4.6334,-4.6012,-4.553,-4.53,-4.53,-4.475,-4.4451,-4.4382,-4.3771,-4.3398,-4.3137,-4.3514,-4.3927,-4.4546,-4.4915,-4.5281,-4.5586,-4.6276,-4.673,-4.7027,-4.7442,-4.7821,-4.8114,-4.8198,-4.8172,-4.8172,-4.8172,-4.7821,-4.7265,-4.7265,-4.7053,-4.6866,-4.7087,-4.7383,-4.7645,-4.7997,-4.8114,-4.8114,-4.8172,-4.812,-4.7983,-4.7937,-4.7571,-4.7074,-4.6499,-4.5976,-4.564,-4.5781,-4.5847,-4.6033,-4.6682,-4.7651,-4.8503,-4.9075,-4.9611,-5.0007,-5.0143,-5.0143,-5.0033,-4.9651,-4.9202,-4.9119,-4.9477,-4.9166,-4.9286,-5.0125,-5.0187,-5.0291,-5.0426,-5.0457,-5.0795,-5.1519,-5.2147,-5.3069,-5.4375,-5.4483,-5.5175,-5.6625,-5.6748,-5.681,-5.681,-5.6519,-5.6077,-5.5481,-5.4611,-5.3785,-5.3025,-5.2383,-5.2478,-5.3069,-5.3992,-5.5225,-5.6637,-5.8096,-5.9133,-5.987,-6.0424,-6.0701,-6.0794,-3.9982,-4.0884,-4.1884,-4.3034,-4.4518,-4.595,-4.7073,-4.7868,-4.8473,-4.8691,-4.9029,-4.9223,-4.9156,-4.9251,-4.9036,-4.8427,-4.7748,-4.7097,-4.6496,-4.5782,-4.5438,-4.5438,-4.514,-4.4955,-4.4879,-4.451,-4.4307,-4.4293,-4.4794,-4.5244,-4.5646,-4.5949,-4.625,-4.661,-4.7087,-4.7324,-4.7501,-4.7821,-4.8055,-4.8172,-4.8172,-4.8172,-4.8172,-4.8172,-4.788,-4.7442,-4.7442,-4.729,-4.7053,-4.7409,-4.756,-4.7762,-4.8114,-4.8172,-4.8172,-4.8172,-4.8172,-4.8172,-4.8172,-4.7989,-4.7649,-4.7074,-4.6848,-4.6784,-4.6745,-4.6867,-4.7153,-4.7961,-4.8752,-4.9464,-5.0124,-5.0698,-5.1075,-5.1246,-5.1246,-5.1053,-5.0515,-5.0351,-5.0288,-5.01,-5.0087,-5.0199,-5.0667,-5.0697,-5.0851,-5.1221,-5.1251,-5.1528,-5.2206,-5.2883,-5.3714,-5.4652,-5.5438,-5.6115,-5.681,-5.681,-5.681,-5.681,-5.6664,-5.6323,-5.578,-5.4917,-5.4221,-5.3757,-5.3058,-5.31,-5.3749,-5.4656,-5.5869,-5.7345,-5.8519,-5.9561,-6.0363,-6.0701,-6.0794,-6.0794,-4.1693,-4.2413,-4.3301,-4.4398,-4.5372,-4.6465,-4.7427,-4.8091,-4.8499,-4.8889,-4.9273,-4.9558,-4.9456,-4.9869,-4.9769,-4.8926,-4.8415,-4.7766,-4.6978,-4.6123,-4.5551,-4.5415,-4.5483,-4.5455,-4.5213,-4.5384,-4.5493,-4.5663,-4.6204,-4.6548,-4.6813,-4.6925,-4.7172,-4.7442,-4.7703,-4.7821,-4.7821,-4.8055,-4.8277,-4.8381,-4.8381,-4.846,-4.859,-4.859,-4.8446,-4.821,-4.821,-4.7988,-4.7766,-4.8061,-4.8101,-4.8055,-4.8347,-4.8373,-4.8315,-4.8315,-4.8257,-4.8172,-4.8172,-4.8172,-4.8126,-4.7707,-4.7758,-4.7887,-4.7911,-4.8164,-4.852,-4.9314,-4.9894,-5.0493,-5.1058,-5.1526,-5.1926,-5.2109,-5.2185,-5.1941,-5.1271,-5.1283,-5.1203,-5.0682,-5.0826,-5.0974,-5.1159,-5.1159,-5.1374,-5.1898,-5.2082,-5.239,-5.2914,-5.3745,-5.4483,-5.5191,-5.6207,-5.681,-5.681,-5.681,-5.681,-5.681,-5.681,-5.6519,-5.5979,-5.517,-5.4657,-5.4351,-5.3623,-5.3665,-5.4346,-5.5236,-5.6544,-5.7999,-5.8882,-5.9866,-6.0794,-6.0794,-6.0794,-6.0794,-4.2888,-4.3679,-4.4291,-4.4379,-4.5796,-4.6951,-4.7019,-4.779,-4.8506,-4.8709,-4.9343,-4.9824,-5.0,-5.0695,-5.0804,-5.0038,-4.9236,-4.8382,-4.7658,-4.6846,-4.6025,-4.5438,-4.5686,-4.5792,-4.5677,-4.659,-4.714,-4.732,-4.7417,-4.7809,-4.8446,-4.7903,-4.7821,-4.8114,-4.8114,-4.8172,-4.8172,-4.8172,-4.8512,-4.9008,-4.9008,-4.9322,-4.9766,-4.9766,-4.9766,-4.9766,-4.9766,-4.958,-4.9311,-4.937,-4.9202,-4.901,-4.901,-4.8837,-4.8663,-4.8663,-4.8431,-4.8172,-4.8172,-4.8172,-4.823,-4.8495,-4.8417,-4.8362,-4.9226,-4.9844,-5.0298,-5.0763,-5.1695,-5.2343,-5.2216,-5.2397,-5.2608,-5.2684,-5.2684,-5.2438,-5.1761,-5.1669,-5.1638,-5.1577,-5.1621,-5.1867,-5.2513,-5.2575,-5.2575,-5.2637,-5.3221,-5.3591,-5.3607,-5.4853,-5.5869,-5.6625,-5.6748,-5.681,-5.681,-5.681,-5.681,-5.681,-5.681,-5.6519,-5.5979,-5.535,-5.4813,-5.4351,-5.3812,-5.4059,-5.4998,-5.5954,-5.7218,-5.86,-5.9576,-6.0294,-6.0794,-6.0794,-6.0794,-6.0794,-4.409,-4.4592,-4.5117,-4.5411,-4.6007,-4.6626,-4.7242,-4.7813,-4.8333,-4.9015,-4.9749,-5.029,-5.0265,-5.0917,-5.0963,-5.0177,-4.9661,-4.9057,-4.8251,-4.7748,-4.7072,-4.6025,-4.6362,-4.6736,-4.7119,-4.7947,-4.8515,-4.8874,-4.9168,-4.9135,-4.8908,-4.9012,-4.8942,-4.8747,-4.9087,-4.9244,-4.9244,-4.9244,-4.9374,-4.9584,-4.9584,-4.9714,-4.9897,-4.9897,-5.0018,-5.0199,-5.0199,-5.0426,-5.0687,-5.0896,-5.0995,-5.1095,-5.1095,-5.0864,-5.0573,-5.0191,-5.0132,-5.0084,-4.9653,-4.9017,-4.8606,-4.8868,-4.9254,-4.9854,-5.0876,-5.1421,-5.1947,-5.2773,-5.29,-5.2835,-5.2933,-5.2794,-5.2698,-5.2698,-5.2698,-5.2637,-5.2359,-5.2329,-5.2329,-5.2329,-5.2329,-5.2421,-5.2698,-5.3098,-5.3345,-5.3345,-5.3914,-5.4314,-5.4314,-5.5191,-5.6023,-5.6779,-5.681,-5.681,-5.681,-5.681,-5.681,-5.681,-5.681,-5.6519,-5.5979,-5.5822,-5.5456,-5.4931,-5.4816,-5.5111,-5.5679,-5.6392,-5.738,-5.8415,-5.9315,-6.0008,-6.0586,-6.0742,-6.0794,-6.0794,-4.5006,-4.521,-4.5461,-4.5829,-4.6082,-4.6565,-4.7328,-4.7819,-4.8374,-4.9349,-5.0032,-5.0522,-5.0608,-5.1113,-5.1216,-5.0474,-5.0175,-4.9771,-4.9072,-4.8805,-4.8058,-4.6764,-4.7208,-4.7738,-4.8306,-4.9087,-4.9684,-5.015,-5.0369,-5.0184,-4.9636,-4.9939,-4.9868,-4.9554,-5.0015,-5.0199,-5.0199,-5.0199,-5.0244,-5.0341,-5.0341,-5.0385,-5.042,-5.0542,-5.0812,-5.1115,-5.1296,-5.1701,-5.2162,-5.2544,-5.2782,-5.2846,-5.296,-5.2731,-5.227,-5.1657,-5.1657,-5.1751,-5.1347,-5.0658,-4.9885,-4.9697,-5.0237,-5.1127,-5.2244,-5.2937,-5.3516,-5.4211,-5.4044,-5.3802,-5.3775,-5.3515,-5.3283,-5.3067,-5.3037,-5.2944,-5.2729,-5.2698,-5.2698,-5.2698,-5.2698,-5.2698,-5.2698,-5.3345,-5.3714,-5.3805,-5.4638,-5.5271,-5.558,-5.5966,-5.6381,-5.6875,-5.6858,-5.681,-5.681,-5.681,-5.681,-5.681,-5.681,-5.661,-5.6282,-5.6182,-5.5929,-5.5597,-5.5533,-5.5652,-5.5932,-5.6595,-5.736,-5.814,-5.9123,-5.9849,-6.0429,-6.069,-6.0794,-6.0794,-4.5438,-4.5438,-4.5438,-4.5438,-4.6126,-4.6817,-4.7113,-4.7903,-4.88,-4.9719,-5.0106,-5.0493,-5.1045,-5.1408,-5.1471,-5.112,-5.0804,-5.0487,-5.0129,-4.9783,-4.9007,-4.7563,-4.8199,-4.8698,-4.9023,-5.0078,-5.0804,-5.112,-5.0887,-5.0786,-5.0786,-5.0548,-5.0405,-5.0405,-5.0764,-5.0943,-5.0943,-5.0943,-5.1083,-5.1337,-5.1311,-5.1408,-5.1659,-5.1996,-5.2306,-5.2711,-5.3349,-5.3604,-5.373,-5.4425,-5.4403,-5.4202,-5.4509,-5.4202,-5.3585,-5.2988,-5.2816,-5.2874,-5.3188,-5.3023,-5.2407,-5.1211,-5.132,-5.2002,-5.3232,-5.4355,-5.509,-5.4922,-5.5302,-5.5499,-5.4806,-5.4683,-5.4468,-5.3837,-5.3745,-5.3498,-5.2821,-5.2729,-5.2729,-5.2729,-5.2729,-5.2729,-5.2729,-5.3345,-5.3836,-5.4109,-5.5349,-5.6513,-5.7464,-5.7227,-5.7084,-5.7084,-5.6875,-5.681,-5.681,-5.681,-5.681,-5.681,-5.681,-5.6856,-5.6869,-5.6363,-5.6196,-5.6235,-5.5734,-5.5538,-5.5554,-5.6537,-5.7191,-5.7833,-5.9015,-5.9849,-6.0429,-6.069,-6.0794,-6.0794,-4.5438,-4.5438,-4.5438,-4.5438,-4.6006,-4.6714,-4.7451,-4.8275,-4.9133,-5.0015,-5.056,-5.0921,-5.1083,-5.1408,-5.1534,-5.1471,-5.112,-5.0804,-5.0487,-5.055,-5.0487,-5.0014,-5.0014,-5.0245,-5.0816,-5.1346,-5.181,-5.2156,-5.2059,-5.183,-5.1546,-5.2063,-5.2172,-5.2009,-5.2772,-5.3201,-5.344,-5.3201,-5.301,-5.2836,-5.241,-5.2271,-5.228,-5.2183,-5.2615,-5.341,-5.3987,-5.4623,-5.5333,-5.6421,-5.6868,-5.6945,-5.6834,-5.6555,-5.6133,-5.5737,-5.5794,-5.5935,-5.5781,-5.5797,-5.542,-5.3509,-5.3152,-5.3524,-5.4662,-5.532,-5.5758,-5.6146,-5.5958,-5.5622,-5.5438,-5.5037,-5.4621,-5.4406,-5.4375,-5.4314,-5.4099,-5.4068,-5.4068,-5.4068,-5.4068,-5.4068,-5.4068,-5.473,-5.5193,-5.5473,-5.6684,-5.7465,-5.7778,-5.7543,-5.7275,-5.7084,-5.6875,-5.681,-5.681,-5.681,-5.681,-5.681,-5.7303,-5.7315,-5.69,-5.7303,-5.7084,-5.6263,-5.6164,-5.5907,-5.5554,-5.625,-5.6908,-5.7528,-5.8743,-5.9613,-6.0144,-6.0638,-6.0794,-6.0794,-4.5438,-4.5438,-4.5415,-4.5551,-4.616,-4.6926,-4.7882,-4.8723,-4.9561,-5.047,-5.0883,-5.1183,-5.1309,-5.1471,-5.1596,-5.1596,-5.156,-5.1497,-5.1408,-5.1685,-5.1996,-5.2218,-5.2315,-5.2289,-5.213,-5.265,-5.3017,-5.3383,-5.3383,-5.3193,-5.2869,-5.3522,-5.3828,-5.3768,-5.454,-5.506,-5.5205,-5.5001,-5.4556,-5.3926,-5.3383,-5.2956,-5.2588,-5.2773,-5.3322,-5.4047,-5.4911,-5.5847,-5.6765,-5.7722,-5.8415,-5.8882,-5.8525,-5.8305,-5.814,-5.7833,-5.7833,-5.7996,-5.7912,-5.7803,-5.747,-5.6403,-5.5647,-5.5293,-5.5953,-5.6293,-5.6549,-5.6774,-5.6471,-5.6115,-5.6115,-5.5807,-5.5438,-5.5161,-5.513,-5.5007,-5.4714,-5.4683,-5.4683,-5.4683,-5.4683,-5.473,-5.4823,-5.5456,-5.6185,-5.7027,-5.7944,-5.8473,-5.8473,-5.8119,-5.7778,-5.7448,-5.7067,-5.6906,-5.681,-5.7087,-5.721,-5.721,-5.7641,-5.7725,-5.7688,-5.7963,-5.7616,-5.6696,-5.648,-5.6077,-5.5554,-5.6135,-5.6737,-5.7416,-5.8664,-5.9452,-6.0039,-6.0586,-6.0794,-6.0794,-4.5438,-4.5415,-4.5551,-4.589,-4.663,-4.7497,-4.8436,-4.9242,-5.004,-5.0994,-5.112,-5.1246,-5.1596,-5.1596,-5.1659,-5.1659,-5.1996,-5.2368,-5.2711,-5.3044,-5.3531,-5.4079,-5.4793,-5.4616,-5.3389,-5.3959,-5.4378,-5.4675,-5.4675,-5.4675,-5.4675,-5.5029,-5.5381,-5.5644,-5.6251,-5.6566,-5.6623,-5.6509,-5.579,-5.4734,-5.4318,-5.3598,-5.2956,-5.3779,-5.4318,-5.4852,-5.6106,-5.7134,-5.7889,-5.858,-5.9369,-5.9986,-5.969,-5.9583,-5.9476,-5.9261,-5.9207,-5.9261,-5.9529,-5.9183,-5.8858,-5.9408,-5.8507,-5.7346,-5.7132,-5.7281,-5.7315,-5.6915,-5.681,-5.681,-5.681,-5.681,-5.6594,-5.5899,-5.5776,-5.5592,-5.4976,-5.4914,-5.4914,-5.4961,-5.4961,-5.5054,-5.5333,-5.5953,-5.7042,-5.8592,-5.9152,-5.9419,-5.9375,-5.8927,-5.8427,-5.7918,-5.7401,-5.7019,-5.681,-5.7487,-5.7826,-5.7826,-5.7949,-5.8327,-5.8954,-5.8437,-5.7907,-5.7303,-5.668,-5.6077,-5.5554,-5.6135,-5.6737,-5.7416,-5.8664,-5.9452,-6.0039,-6.0586,-6.0794,-6.0794,-4.5438,-4.5619,-4.589,-4.6204,-4.734,-4.8461,-4.9267,-5.0168,-5.0931,-5.1408,-5.1471,-5.1534,-5.1596,-5.1846,-5.1996,-5.1996,-5.2553,-5.3105,-5.3658,-5.4019,-5.4437,-5.506,-5.5731,-5.6222,-5.6366,-5.602,-5.5933,-5.5991,-5.5991,-5.5991,-5.5991,-5.6566,-5.6936,-5.7189,-5.7833,-5.8221,-5.847,-5.7974,-5.733,-5.6594,-5.5528,-5.5029,-5.4821,-5.4821,-5.544,-5.6423,-5.7472,-5.825,-5.8907,-5.9743,-6.0272,-6.0586,-6.0272,-6.0061,-5.9933,-6.0061,-5.9986,-5.9933,-6.0377,-6.0411,-6.0319,-6.0475,-6.0248,-5.9563,-5.7997,-5.7678,-5.7543,-5.6915,-5.681,-5.681,-5.681,-5.681,-5.6748,-5.6594,-5.6594,-5.658,-5.6586,-5.6555,-5.6681,-5.687,-5.6918,-5.7012,-5.7246,-5.7927,-5.8645,-5.9323,-5.987,-6.0076,-5.987,-5.9399,-5.876,-5.7918,-5.7401,-5.7019,-5.681,-5.7487,-5.7826,-5.7826,-5.8854,-5.9348,-5.9295,-5.9236,-5.8624,-5.7555,-5.7021,-5.6308,-5.5554,-5.6135,-5.6737,-5.7416,-5.8664,-5.9452,-6.0039,-6.0586,-6.0794,-6.0794,-4.5619,-4.6092,-4.6563,-4.7074,-4.8043,-4.9023,-4.9976,-5.0677,-5.1246,-5.1534,-5.1721,-5.1872,-5.1872,-5.2306,-5.2738,-5.32,-5.3685,-5.4286,-5.4852,-5.5323,-5.5847,-5.6308,-5.6936,-5.7472,-5.7948,-5.7751,-5.7528,-5.7247,-5.7247,-5.7247,-5.7247,-5.7751,-5.8085,-5.8415,-5.8931,-5.9339,-5.9506,-5.9045,-5.8415,-5.764,-5.6708,-5.6136,-5.5961,-5.6193,-5.6765,-5.7584,-5.847,-5.9207,-5.9796,-6.0377,-6.069,-6.0794,-6.0638,-6.0481,-6.0407,-6.0534,-6.0481,-6.046,-6.069,-6.0794,-6.0794,-6.0794,-6.0794,-6.0424,-5.9039,-5.8485,-5.8104,-5.7426,-5.7025,-5.681,-5.681,-5.681,-5.681,-5.681,-5.681,-5.6906,-5.7036,-5.718,-5.7417,-5.7793,-5.7933,-5.8211,-5.8669,-5.9298,-5.9827,-6.0269,-6.0642,-6.076,-6.0548,-6.0087,-5.9387,-5.8427,-5.7887,-5.7417,-5.6923,-5.7943,-5.8387,-5.827,-5.9285,-5.9809,-5.9857,-5.9645,-5.9015,-5.8055,-5.7416,-5.6794,-5.6394,-5.668,-5.7247,-5.8029,-5.8907,-5.9636,-6.025,-6.0638,-6.0794,-6.0794,-4.616,-4.6764,-4.7431,-4.8043,-4.8763,-4.9604,-5.0525,-5.0994,-5.1309,-5.1659,-5.1934,-5.2121,-5.2245,-5.2983,-5.3806,-5.4734,-5.5147,-5.5556,-5.6164,-5.6651,-5.7134,-5.7528,-5.8029,-5.8445,-5.8719,-5.8991,-5.8882,-5.836,-5.836,-5.836,-5.8415,-5.8773,-5.9075,-5.9315,-5.9819,-6.0084,-6.0092,-5.9796,-5.9177,-5.8415,-5.7863,-5.7303,-5.6964,-5.7666,-5.8195,-5.858,-5.9339,-6.0008,-6.0481,-6.0742,-6.0794,-6.0794,-6.0794,-6.0742,-6.0742,-6.0794,-6.0742,-6.0742,-6.0794,-6.0794,-6.0794,-6.0794,-6.0794,-6.064,-6.0086,-5.9439,-5.8762,-5.8085,-5.7549,-5.7148,-5.7148,-5.7148,-5.7166,-5.7043,-5.706,-5.7174,-5.7258,-5.7511,-5.7887,-5.8395,-5.876,-5.9165,-5.9751,-6.0259,-6.0717,-6.1103,-6.1383,-6.1383,-6.121,-6.076,-6.0076,-5.9107,-5.866,-5.8122,-5.7414,-5.8714,-5.9247,-5.9078,-5.9675,-6.0167,-6.0429,-5.9902,-5.9315,-5.8634,-5.7863,-5.7416,-5.7303,-5.7416,-5.7918,-5.8689,-5.9285,-5.9902,-6.0429,-6.069,-6.0794,-6.0794,-4.7298,-4.7804,-4.8436,-4.8828,-4.9668,-5.0525,-5.0994,-5.1309,-5.1659,-5.1996,-5.2059,-5.2306,-5.2861,-5.4047,-5.5088,-5.6049,-5.6366,-5.6851,-5.7501,-5.7613,-5.7948,-5.85,-5.8555,-5.8773,-5.9045,-5.9099,-5.9045,-5.8991,-5.8991,-5.9099,-5.9315,-5.9667,-5.9986,-6.0219,-6.0534,-6.069,-6.0638,-6.0377,-6.0031,-5.9629,-5.9069,-5.8828,-5.8773,-5.8882,-5.9231,-5.9736,-6.0136,-6.0481,-6.0742,-6.0794,-6.0794,-6.0794,-6.0794,-6.0638,-6.0481,-6.0742,-6.0638,-6.0481,-6.0742,-6.0794,-6.0794,-6.0794,-6.0794,-6.0763,-6.0701,-6.0147,-5.947,-5.8793,-5.8577,-5.8516,-5.8516,-5.8715,-5.8646,-5.8027,-5.8159,-5.8308,-5.8074,-5.8257,-5.8714,-5.9387,-6.0044,-6.043,-6.0515,-6.1011,-6.1342,-6.1588,-6.179,-6.183,-6.1628,-6.1185,-6.0482,-5.9575,-5.9425,-5.9174,-5.8656,-5.9576,-6.0059,-6.004,-6.0435,-6.0701,-6.0742,-6.0429,-5.9849,-5.8991,-5.858,-5.8029,-5.736,-5.7863,-5.8305,-5.8689,-5.9523,-6.0084,-6.0429,-6.069,-6.0794,-6.0742,-4.833,-4.8918,-4.95,-4.9822,-5.0461,-5.0994,-5.1372,-5.1659,-5.1934,-5.2059,-5.2711,-5.3322,-5.3806,-5.5147,-5.6308,-5.7078,-5.7416,-5.7807,-5.828,-5.8445,-5.8664,-5.8882,-5.8936,-5.8991,-5.9099,-5.9099,-5.9099,-5.9099,-5.9261,-5.9369,-5.9529,-6.0039,-6.0302,-6.0429,-6.069,-6.0794,-6.0794,-6.0534,-6.0324,-6.0136,-5.9743,-5.9613,-5.9613,-5.9743,-5.9978,-6.0189,-6.0534,-6.069,-6.0794,-6.0794,-6.0794,-6.0794,-6.0794,-6.069,-6.0638,-6.0742,-6.069,-6.0638,-6.0742,-6.0794,-6.0794,-6.0794,-6.0794,-6.0794,-6.0794,-6.0681,-6.0383,-5.9552,-5.9039,-5.8843,-5.8993,-5.9142,-5.9166,-5.9149,-5.9377,-5.9586,-5.9786,-6.0307,-6.0907,-6.1774,-6.2278,-6.2574,-6.2699,-6.2907,-6.3113,-6.3316,-6.3397,-6.3357,-6.3153,-6.2791,-6.2297,-6.1698,-6.141,-6.1018,-6.0372,-6.0834,-6.0899,-6.0665,-6.1068,-6.1103,-6.0794,-6.0534,-6.0167,-5.9796,-5.9285,-5.8991,-5.8828,-5.8882,-5.9177,-5.966,-6.0031,-6.0377,-6.0638,-6.0742,-6.069,-6.0534]},{"header":{"parameterUnit":"m.s-1","parameterCategory":1,"la1":30.6,"la2":28.766,"lo1":-90.7593,"lo2":-88.6598,"dy":0.0162,"dx":0.0183,"nx":116,"ny":114,"refTime":"2024-06-15T00:00:00:Z","depth":0,"parameterNumber":3,"parameterNumberName":"V-component_of_WINDS"},"data":[0.0,0.0,0.0,0.0,0.0,0.0,0.0,0.0,0.0,0.0,0.0,0.0,0.0,0.0,0.0,0.0,0.0,0.0,0.0,0.0,0.0,0.0,0.0,0.0,0.0,0.0,0.0,0.0,0.0,0.0,0.0,0.0,0.0,0.0,0.0,0.0,0.0,0.0,0.0,0.0,0.0,0.0,0.0,0.0,0.0,0.0,0.0,0.0,0.0,0.0,0.0,0.0,0.0,0.0,0.0,0.0,0.0,0.0,0.0,0.0,0.0,0.0,0.0,0.0,0.0,0.0,0.0,0.0,0.0,0.0,0.0,0.0,0.0,0.0,0.0,0.0,0.0,0.0,0.0,0.0,0.0,0.0,0.0,0.0,0.0,0.0,0.0,0.0,0.0,0.0,0.0,0.0,0.0,0.0,0.0,0.0,0.0,0.0,0.0,0.0,0.0,0.0,0.0,0.0,0.0,0.0,0.0,0.0,0.0,0.0,0.0,0.0,0.0,0.0,0.0,0.0,0.0,0.0,0.0,0.0,0.0,0.0,0.0,0.0,0.0,0.0,0.0,0.0,0.0,0.0,0.0,0.0,0.0,0.0,0.0,0.0,0.0,0.0,0.0,0.0,0.0,0.0,0.0,0.0,0.0,0.0,0.0,0.0,0.0,0.0,0.0,0.0,0.0,0.0,0.0,0.0,0.0,0.0,0.0,0.0,0.0,0.0,0.0,0.0,0.0,0.0,0.0,0.0,0.0,0.0,0.0,0.0,0.0,0.0,0.0,0.0,0.0,0.0,0.0,0.0,0.0,0.0,0.0,0.0,0.0,0.0,0.0,0.0,0.0,0.0,0.0,0.0,0.0,0.0,0.0,0.0,0.0,0.0,0.0,0.0,0.0,0.0,0.0,0.0,0.0,0.0,0.0,0.0,0.0,0.0,0.0,0.0,0.0,0.0,0.0,0.0,0.0,0.0,0.0,0.0,0.0,0.0,0.0,0.0,0.0,0.0,0.0,0.0,0.0,0.0,0.0,0.0,0.0,0.0,0.0,0.0,0.0,0.0,0.0,0.0,0.0,0.0,0.0,0.0,0.0,0.0,0.0,0.0,0.0,0.0,0.0,0.0,0.0,0.0,0.0,0.0,0.0,0.0,0.0,0.0,0.0,0.0,0.0,0.0,0.0,0.0,0.0,0.0,0.0,0.0,0.0,0.0,0.0,0.0,0.0,0.0,0.0,0.0,0.0,0.0,0.0,0.0,0.0,0.0,0.0,0.0,0.0,0.0,0.0,0.0,0.0,0.0,0.0,0.0,0.0,0.0,0.0,0.0,0.0,0.0,0.0,0.0,0.0,0.0,0.0,0.0,0.0,0.0,0.0,0.0,0.0,0.0,0.0,0.0,0.0,0.0,0.0,0.0,0.0,0.0,0.0,0.0,0.0,0.0,0.0,0.0,0.0,0.0,0.0,0.0,0.0,0.0,0.0,0.0,0.0,0.0,0.0,0.0,0.0,0.0,0.0,0.0,0.0,0.0,0.0,0.0,0.0,0.0,0.0,0.0,0.0,0.0,0.0,0.0,0.0,0.0,0.0,0.0,0.0,0.0,0.0,0.0,0.0,0.0,0.0,0.0,0.0,0.0,0.0,0.0,0.0,0.0,0.0,0.0,0.0,0.0,0.0,0.0,0.0,0.0,0.0,0.0,0.0,0.0,0.0,0.0,0.0,0.0,0.0,0.0,0.0,0.0,0.0,0.0,0.0,0.0,0.0,0.0,0.0,0.0,0.0,0.0,0.0,0.0,0.0,0.0,0.0,0.0,0.0,0.0,0.0,0.0,0.0,0.0,0.0,0.0,0.0,0.0,0.0,0.0,0.0,0.0,0.0,0.0,0.0,0.0,0.0,0.0,0.0,0.0,0.0,0.0,0.0,0.0,0.0,0.0,0.0,0.0,0.0,0.0,0.0,0.0,0.0,0.0,0.0,0.0,0.0,0.0,0.0,0.0,0.0,0.0,0.0,0.0,0.0,0.0,0.0,0.0,0.0,0.0,0.0,0.0,0.0,0.0,0.0,0.0,0.0,0.0,0.0,0.0,0.0,0.0,0.0,0.0,0.0,0.0,0.0,0.0,0.0,0.0,0.0,0.0,0.0,0.0,0.0,0.0,0.0,0.0,0.0,0.0,0.0,0.0,0.0,0.0,0.0,0.0,0.0,0.0,0.0,0.0,0.0,0.0,0.0,0.0,0.0,0.0,0.0,0.0,0.0,0.0,0.0,0.0,0.0,0.0,0.0,0.0,0.0,0.0,0.0,0.0,0.0,0.0,0.0,0.0,0.0,0.0,0.0,0.0,0.0,0.0,0.0,0.0,0.0,0.0,0.0,0.0,0.0,0.0,0.0,0.0,0.0,0.0,0.0,0.0,0.0,0.0,0.0,0.0,0.0,0.0,0.0,0.0,0.0,0.0,0.0,0.0,0.0,0.0,0.0,0.0,0.0,0.0,0.0,0.0,0.0,0.0,0.0,0.0,0.0,0.0,0.0,0.0,0.0,0.0,0.0,0.0,0.0,0.0,0.0,0.0,0.0,0.0,0.0,0.0,0.0,0.0,0.0,0.0,0.0,0.0,0.0,0.0,0.0,0.0,0.0,0.0,0.0,0.0,0.0,0.0,0.0,0.0,0.0,0.0,0.0,0.0,0.0,0.0,0.0,0.0,0.0,0.0,0.0,0.0,0.0,0.0,0.0,0.0,0.0,0.0,0.0,0.0,0.0,0.0,0.0,0.0,0.0,0.0,0.0,0.0,0.0,0.0,0.0,0.0,0.0,0.0,0.0,0.0,0.0,0.0,0.0,0.0,0.0,0.0,0.0,0.0,0.0,0.0,0.0,0.0,0.0,0.0,0.0,0.0,0.0,0.0,0.0,0.0,0.0,0.0,0.0,0.0,0.0,0.0,0.0,0.0,0.0,0.0,0.0,0.0,0.0,0.0,0.0,0.0,0.0,0.0,0.0,0.0,0.0,0.0,0.0,0.0,0.0,0.0,0.0,0.0,0.0,0.0,0.0,0.0,0.0,0.0,0.0,0.0,0.0,0.0,0.0,0.0,0.0,0.0,0.0,0.0,0.0,0.0,0.0,0.0,0.0,0.0,0.0,0.0,0.0,0.0,0.0,0.0,0.0,0.0,0.0,0.0,0.0,0.0,0.0,0.0,0.0,0.0,0.0,0.0,0.0,0.0,0.0,0.0,0.0,0.0,0.0,0.0,0.0,0.0,0.0,0.0,0.0,0.0,0.0,0.0,0.0,0.0,0.0,0.0,0.0,0.0,0.0,0.0,0.0,0.0,0.0,0.0,0.0,0.0,0.0,0.0,0.0,0.0,0.0,0.0,0.0,0.0,0.0,0.0,0.0,0.0,0.0,0.0,0.0,0.0,0.0,0.0,0.0,0.0,0.0,0.0,0.0,0.0,0.0,0.0,0.0,0.0,0.0,0.0,0.0,0.0,0.0,0.0,0.0,0.0,0.0,0.0,0.0,0.0,0.0,0.0,0.0,0.0,0.0,0.0,0.0,0.0,0.0,0.0,0.0,0.0,0.0,0.0,0.0,0.0,0.0,0.0,0.0,0.0,0.0,0.0,0.0,0.0,0.0,0.0,0.0,0.0,0.0,0.0,0.0,0.0,0.0,0.0,0.0,0.0,0.0,0.0,0.0,0.0,0.0,0.0,0.0,0.0,0.0,0.0,0.0,0.0,0.0,0.0,0.0,0.0,0.0,0.0,0.0,0.0,0.0,0.0,0.0,0.0,0.0,0.0,0.0,0.0,0.0,0.0,0.0,0.0,0.0,0.0,0.0,0.0,0.0,0.0,0.0,0.0,0.0,0.0,0.0,0.0,0.0,0.0,0.0,0.0,0.0,0.0,0.0,0.0,0.0,0.0,0.0,0.0,0.0,0.0,0.0,0.0,0.0,0.0,0.0,0.0,0.0,0.0,0.0,0.0,0.0,0.0,0.0,0.0,0.0,0.0,0.0,0.0,0.0,0.0,0.0,0.0,0.0,0.0,0.0,0.0,0.0,0.0,0.0,0.0,0.0,0.0,0.0,0.0,0.0,0.0,0.0,0.0,0.0,0.0,0.0,0.0,0.0,0.0,0.0,0.0,0.0,0.0,0.0,0.0,0.0,0.0,0.0,0.0,0.0,0.0,0.0,0.0,0.0,0.0,0.0,0.0,0.0,0.0,0.0,0.0,0.0,0.0,0.0,0.0,0.0,0.0,0.0,0.0,0.0,0.0,0.0,0.0,0.0,0.0,0.0,0.0,0.0,0.0,0.0,0.0,0.0,0.0,0.0,0.0,0.0,0.0,0.0,0.0,0.0,0.0,0.0,0.0,0.0,0.0,0.0,0.0,0.0,0.0,0.0,0.0,0.0,0.0,0.0,0.0,0.0,0.0,0.0,0.0,0.0,0.0,0.0,0.0,0.0,0.0,0.0,0.0,0.0,0.0,0.0,0.0,0.0,0.0,0.0,0.0,0.0,0.0,0.0,0.0,0.0,0.0,0.0,0.0,0.0,0.0,0.0,0.0,0.0,0.0,0.0,0.0,0.0,0.0,0.0,0.0,0.0,0.0,0.0,0.0,0.0,0.0,0.0,0.0,0.0,0.0,0.0,0.0,0.0,0.0,0.0,0.0,0.0,0.0,0.0,0.0,0.0,0.0,0.0,0.0,0.0,0.0,0.0,0.0,0.0,0.0,0.0,0.0,0.0,0.0,0.0,0.0,0.0,0.0,0.0,0.0,0.0,0.0,0.0,0.0,0.0,0.0,0.0,0.0,0.0,0.0,0.0,0.0,0.0,0.0,0.0,0.0,0.0,0.0,0.0,0.0,0.0,0.0,0.0,0.0,0.0,0.0,0.0,0.0,0.0,0.0,0.0,0.0,0.0,0.0,0.0,0.0,0.0,0.0,0.0,0.0,0.0,0.0,0.0,0.0,0.0,0.0,0.0,0.0,0.0,0.0,0.0,0.0,0.0,0.0,0.0,0.0,0.0,0.0,0.0,0.0,0.0,0.0,0.0,0.0,0.0,0.0,0.0,0.0,0.0,0.0,0.0,0.0,0.0,0.0,0.0,0.0,0.0,0.0,0.0,0.0,0.0,0.0,0.0,0.0,0.0,0.0,0.0,0.0,0.0,0.0,0.0,0.0,0.0,0.0,0.0,0.0,0.0,0.0,0.0,0.0,0.0,0.0,0.0,0.0,0.0,0.0,0.0,0.0,0.0,0.0,0.0,0.0,0.0,0.0,0.0,0.0,0.0,0.0,0.0,0.0,0.0,0.0,0.0,0.0,0.0,0.0,0.0,0.0,0.0,0.0,0.0,0.0,0.0,0.0,0.0,0.0,0.0,0.0,0.0,0.0,0.0,0.0,0.0,0.0,0.0,0.0,0.0,0.0,0.0,0.0,0.0,0.0,0.0,0.0,0.0,0.0,0.0,0.0,0.0,0.0,0.0,0.0,0.0,0.0,0.0,0.0,0.0,0.0,0.0,0.0,0.0,0.0,0.0,0.0,0.0,0.0,0.0,0.0,0.0,0.0,0.0,0.0,0.0,0.0,0.0,0.0,0.0,0.0,0.0,0.0,0.0,0.0,0.0,0.0,0.0,0.0,0.0,0.0,0.0,0.0,0.0,0.0,0.0,0.0,0.0,0.0,0.0,0.0,0.0,0.0,0.0,0.0,0.0,0.0,0.0,0.0,0.0,0.0,0.0,0.0,0.0,0.0,0.0,0.0,0.0,0.0,0.0,0.0,0.0,0.0,0.0,0.0,0.0,0.0,0.0,0.0,0.0,0.0,0.0,0.0,0.0,0.0,0.0,0.0,0.0,0.0,0.0,0.0,0.0,0.0,0.0,0.0,0.0,0.0,0.0,0.0,0.0,0.0,0.0,0.0,0.0,0.0,0.0,0.0,0.0,0.0,0.0,0.0,0.0,0.0,0.0,0.0,0.0,0.0,0.0,0.0,0.0,0.0,0.0,0.0,0.0,0.0,0.0,0.0,0.0,0.0,0.0,0.0,0.0,0.0,0.0,0.0,0.0,0.0,0.0,0.0,0.0,0.0,0.0,0.0,4.0977,4.0236,0.0,0.0,0.0,0.0,0.0,0.0,0.0,0.0,0.0,0.0,0.0,0.0,0.0,0.0,0.0,0.0,0.0,0.0,0.0,0.0,0.0,0.0,0.0,3.9224,4.0564,4.2158,4.2266,4.2448,4.2865,0.0,0.0,0.0,0.0,0.0,3.9948,3.9948,3.9731,3.9297,3.8898,3.8681,3.8645,3.7884,3.6689,3.5152,0.0,0.0,0.0,0.0,0.0,0.0,0.0,0.0,0.0,0.0,0.0,0.0,0.0,0.0,0.0,0.0,0.0,0.0,0.0,0.0,0.0,0.0,0.0,0.0,0.0,0.0,0.0,0.0,0.0,0.0,0.0,0.0,0.0,0.0,0.0,0.0,0.0,0.0,0.0,0.0,0.0,0.0,0.0,0.0,0.0,0.0,0.0,0.0,0.0,0.0,0.0,0.0,0.0,0.0,0.0,0.0,0.0,0.0,0.0,0.0,0.0,0.0,0.0,0.0,0.0,0.0,0.0,0.0,0.0,0.0,4.3172,4.2304,0.0,0.0,0.0,0.0,0.0,0.0,0.0,0.0,0.0,0.0,0.0,0.0,0.0,0.0,0.0,0.0,0.0,0.0,0.0,0.0,0.0,3.6472,3.8227,3.9659,4.1144,4.2737,4.2901,4.2901,4.2901,4.2901,0.0,0.0,0.0,4.1524,4.0727,4.0691,4.0619,4.051,4.051,4.051,4.0474,3.9876,3.8536,3.66,3.6347,0.0,0.0,0.0,0.0,0.0,0.0,0.0,0.0,0.0,0.0,0.0,0.0,0.0,0.0,0.0,0.0,0.0,0.0,0.0,0.0,0.0,0.0,0.0,0.0,0.0,0.0,0.0,0.0,0.0,0.0,0.0,0.0,0.0,0.0,0.0,0.0,0.0,0.0,0.0,0.0,0.0,0.0,0.0,0.0,0.0,0.0,0.0,0.0,0.0,0.0,0.0,0.0,0.0,0.0,0.0,0.0,0.0,0.0,0.0,0.0,0.0,0.0,0.0,4.7339,4.7638,4.7638,4.7493,4.7405,4.7346,4.603,4.5263,4.4794,4.3702,0.0,0.0,0.0,0.0,0.0,0.0,0.0,0.0,0.0,0.0,0.0,0.0,0.0,0.0,0.0,0.0,0.0,0.0,0.0,3.6689,3.8971,3.9985,4.1144,4.2737,4.2901,4.2901,4.2901,4.2901,0.0,0.0,4.2737,4.2375,4.156,4.1524,4.1198,4.051,4.051,4.051,4.051,4.0401,4.0184,3.9822,3.8464,3.7502,3.685,0.0,0.0,0.0,0.0,0.0,0.0,0.0,0.0,0.0,0.0,0.0,0.0,0.0,0.0,0.0,0.0,0.0,0.0,0.0,0.0,0.0,0.0,0.0,0.0,0.0,0.0,0.0,0.0,0.0,0.0,0.0,0.0,0.0,0.0,0.0,0.0,0.0,0.0,0.0,0.0,0.0,4.6342,4.6544,0.0,0.0,0.0,0.0,0.0,0.0,0.0,0.0,0.0,0.0,0.0,0.0,0.0,4.7297,4.704,4.7698,4.8027,4.8027,4.873,4.906,4.906,4.9015,4.9015,4.9015,4.879,0.0,4.5532,4.5355,0.0,0.0,0.0,0.0,0.0,0.0,0.0,0.0,0.0,0.0,0.0,0.0,0.0,0.0,0.0,0.0,0.0,0.0,0.0,0.0,0.0,4.0057,4.1144,4.2737,4.2901,4.2901,4.2901,4.2901,4.2901,4.2901,4.2901,4.2737,4.2375,4.2375,4.2411,4.252,4.2991,4.3208,4.3208,4.3208,4.3208,4.3172,4.2484,4.0999,3.8898,3.8046,0.0,0.0,0.0,0.0,0.0,0.0,0.0,0.0,0.0,0.0,0.0,0.0,0.0,0.0,0.0,0.0,0.0,0.0,0.0,0.0,0.0,0.0,0.0,0.0,0.0,0.0,0.0,0.0,0.0,0.0,0.0,0.0,0.0,0.0,0.0,0.0,0.0,0.0,0.0,4.6608,4.7745,4.805,4.8292,4.8396,0.0,0.0,0.0,0.0,0.0,0.0,0.0,0.0,0.0,4.8446,4.9161,4.9356,4.8955,4.9613,4.9942,4.9942,5.0212,5.0361,5.0361,5.0361,5.0361,5.0361,5.0361,4.9582,4.8164,4.7465,4.6602,4.5679,0.0,0.0,0.0,0.0,4.4132,4.4608,0.0,0.0,0.0,0.0,0.0,0.0,0.0,0.0,0.0,0.0,0.0,0.0,3.9405,4.0166,4.1144,4.2737,4.2901,4.2901,4.2901,4.2901,4.2901,4.2901,4.2901,4.301,4.3208,4.3408,4.3788,4.4403,4.5019,4.5309,4.5309,4.5309,4.5309,4.5309,4.5309,4.3751,4.1035,3.9876,3.906,3.8408,0.0,0.0,0.0,0.0,0.0,0.0,0.0,0.0,0.0,0.0,0.0,0.0,0.0,0.0,0.0,0.0,0.0,0.0,0.0,0.0,0.0,0.0,0.0,0.0,0.0,0.0,0.0,0.0,0.0,0.0,0.0,0.0,0.0,0.0,0.0,0.0,0.0,4.7696,4.8761,4.9293,4.9857,5.0085,0.0,0.0,0.0,0.0,0.0,0.0,5.0307,5.0897,5.0965,5.0402,5.1117,5.1348,5.099,5.1319,5.1468,5.1468,5.1289,5.1229,5.1229,5.1229,5.1229,5.1229,5.1229,5.093,5.0345,4.9254,4.8386,4.7758,4.707,4.6621,4.6292,4.6112,4.6052,4.6052,0.0,0.0,0.0,0.0,0.0,0.0,0.0,0.0,0.0,0.0,0.0,3.7828,4.0184,4.0474,4.1144,4.2737,4.2901,4.2901,4.2901,4.2901,4.2901,4.2901,4.2901,4.3263,4.4005,4.4802,4.52,4.5236,4.5273,4.5309,4.5309,4.5309,4.5309,4.5309,4.5309,4.4367,4.2792,4.272,4.1379,3.9333,3.926,0.0,0.0,0.0,0.0,0.0,0.0,0.0,0.0,0.0,0.0,0.0,0.0,0.0,0.0,0.0,0.0,0.0,0.0,0.0,0.0,0.0,0.0,0.0,0.0,0.0,0.0,0.0,0.0,0.0,0.0,0.0,0.0,0.0,0.0,0.0,0.0,0.0,0.0,4.9536,4.9632,0.0,0.0,0.0,0.0,5.1201,5.1331,5.1685,5.2517,5.2762,5.275,5.2483,5.2719,5.295,5.3025,5.2456,5.2157,5.2127,5.1498,5.1229,5.1229,5.1229,5.1229,5.1229,5.1229,5.1199,5.1109,5.0375,4.9763,4.9149,4.8446,4.8536,4.903,4.8356,4.8147,4.8147,0.0,0.0,0.0,0.0,0.0,3.4191,3.4309,3.4746,3.534,3.5996,3.7119,3.8531,4.0311,4.0945,4.194,4.3534,4.3679,4.3896,4.4403,4.444,4.444,4.444,4.444,4.4584,4.4874,4.5671,4.6069,4.6069,4.6613,4.683,4.683,4.683,4.683,4.683,4.683,4.625,4.5164,4.4114,4.3172,4.2339,4.1289,4.0564,0.0,0.0,0.0,0.0,0.0,0.0,0.0,0.0,0.0,0.0,0.0,0.0,0.0,0.0,0.0,0.0,0.0,0.0,0.0,0.0,0.0,0.0,0.0,0.0,0.0,0.0,0.0,0.0,0.0,0.0,0.0,0.0,0.0,0.0,0.0,0.0,0.0,4.9567,5.0451,0.0,5.0644,5.0607,5.0848,5.1476,5.1991,5.2508,5.3104,5.3344,5.3215,5.2681,5.2887,5.2859,5.2546,5.2306,5.2187,5.2187,5.1528,5.1229,5.1229,5.1229,5.1229,5.1229,5.1229,5.1229,5.1199,5.096,5.0481,4.9883,4.9643,4.9434,4.9269,4.906,4.897,4.8865,0.0,0.0,0.0,0.0,3.3717,3.4618,3.472,3.5166,3.5873,3.6883,3.8063,3.9339,4.0852,4.1706,4.2684,4.3969,4.4331,4.4729,4.5273,4.5309,4.5309,4.5309,4.5562,4.5707,4.5707,4.6504,4.6902,4.6902,4.7446,4.7699,4.7699,4.7699,4.7699,4.7699,4.7699,4.7409,4.683,4.578,4.4983,4.4403,4.3353,4.2755,4.2429,0.0,0.0,0.0,0.0,0.0,0.0,0.0,0.0,0.0,0.0,0.0,0.0,0.0,0.0,0.0,0.0,0.0,0.0,0.0,0.0,0.0,0.0,0.0,0.0,0.0,0.0,0.0,0.0,0.0,0.0,0.0,0.0,0.0,0.0,4.8474,4.9515,4.9859,5.0769,5.128,5.1016,5.1204,5.1501,5.1933,5.2556,5.3136,5.3629,5.3518,5.3295,5.2915,5.287,5.2765,5.2516,5.2306,5.2187,5.2187,5.1528,5.1229,5.1229,5.1229,5.1229,5.1229,5.1229,5.1229,5.1229,5.1229,5.096,5.0524,5.0524,5.0301,4.9912,4.9912,4.9793,4.9464,0.0,0.0,0.0,3.3374,3.4051,3.4761,3.5503,3.607,3.698,3.8582,3.935,4.0341,4.1864,4.2687,4.343,4.4097,4.4874,4.5345,4.5381,4.5381,4.5381,4.5381,4.6106,4.654,4.654,4.7301,4.7699,4.7699,4.7735,4.7714,4.7714,4.7772,4.7772,4.7772,4.7772,4.7772,4.7772,4.7772,4.683,4.5417,4.5345,4.4874,4.4077,0.0,0.0,0.0,0.0,0.0,0.0,0.0,0.0,0.0,0.0,0.0,0.0,0.0,0.0,0.0,0.0,0.0,0.0,0.0,0.0,0.0,0.0,0.0,0.0,0.0,0.0,0.0,0.0,0.0,0.0,0.0,0.0,0.0,4.8864,4.8994,4.9397,5.0435,5.0557,5.0589,5.0621,5.119,5.1893,5.2629,5.3095,5.3587,5.4028,5.3377,5.3079,5.3254,5.2802,5.2725,5.3114,5.2486,5.2187,5.2157,5.1528,5.1229,5.1229,5.1229,5.1229,5.1229,5.1229,5.1229,5.1229,5.1229,5.1229,5.1229,5.1229,5.1229,5.1229,5.1229,5.0764,5.0016,0.0,0.0,3.3472,3.3639,3.4202,3.4905,3.5642,3.6286,3.7249,3.8813,4.0095,4.1209,4.2106,4.3305,4.4324,4.5048,4.5747,4.6432,4.7011,4.7047,4.7047,4.7047,4.7265,4.7373,4.7373,4.7591,4.7699,4.7699,4.8257,4.8547,4.8583,4.9184,4.9438,4.9438,4.9438,4.9438,4.9401,4.8822,4.8294,4.7787,4.6649,4.6033,4.5743,0.0,0.0,0.0,0.0,0.0,0.0,0.0,0.0,0.0,0.0,0.0,0.0,0.0,0.0,0.0,0.0,0.0,0.0,0.0,0.0,0.0,0.0,0.0,0.0,0.0,0.0,0.0,0.0,0.0,0.0,0.0,4.7838,4.8139,4.7886,4.8721,4.9486,4.9757,5.0122,5.0437,5.0787,5.0848,5.1316,5.2418,5.2585,5.2778,5.3069,5.2877,5.2534,5.2076,5.1967,5.1824,5.1768,5.1588,5.1498,5.1498,5.1319,5.1229,5.1229,5.1229,5.1229,5.1229,5.1229,5.1229,5.1229,5.1229,5.1229,5.1229,5.1229,5.1229,5.1229,5.1229,5.0764,5.0136,0.0,3.3176,3.3878,3.414,3.4761,3.5475,3.6235,3.6943,3.8077,4.0015,4.0969,4.1912,4.2918,4.3938,4.4802,4.5472,4.6114,4.683,4.7663,4.7699,4.7844,4.8206,4.8185,4.8351,4.8713,4.8713,4.8713,4.8713,4.9184,4.9401,4.9401,4.9872,5.0112,5.0112,5.0112,5.0112,5.0075,4.9582,4.9401,4.9329,4.8387,4.7591,4.6902,4.6106,4.5526,4.5055,4.4729,4.4295,4.3896,4.3896,0.0,0.0,0.0,0.0,0.0,0.0,0.0,0.0,0.0,0.0,0.0,0.0,0.0,0.0,0.0,0.0,0.0,0.0,0.0,0.0,0.0,0.0,0.0,0.0,4.8265,4.8427,4.7864,4.8644,4.9285,4.9416,4.99,5.034,5.0627,5.11,5.159,5.2187,5.2399,5.252,5.2532,5.2337,5.2063,5.1618,5.1479,5.1369,5.1229,5.1229,5.1229,5.1229,5.1229,5.1229,5.1229,5.1229,5.1229,5.1229,5.1229,5.1229,5.1229,5.1229,5.1229,5.1229,0.0,0.0,0.0,0.0,5.0913,5.0554,0.0,3.3875,3.4165,3.4907,3.5543,3.6238,3.711,3.7814,3.9102,4.1614,4.187,4.2393,4.3847,4.4435,4.4912,4.5459,4.6137,4.6866,4.7663,4.7787,4.8149,4.8873,4.8981,4.9365,5.0075,5.0112,5.0112,5.0112,5.0184,5.0257,5.0257,5.0329,5.0365,5.0365,5.0365,5.0365,5.0365,5.0293,5.0257,5.022,5.0148,4.9184,4.7772,4.7047,4.6757,4.6685,4.5852,4.5635,4.5707,4.5599,0.0,0.0,0.0,0.0,0.0,0.0,0.0,0.0,0.0,0.0,0.0,0.0,0.0,0.0,0.0,0.0,0.0,0.0,0.0,0.0,0.0,0.0,0.0,0.0,4.8559,4.8907,4.8471,4.8843,4.9182,4.9362,4.9967,5.0362,5.0424,5.1534,5.2151,5.2038,5.2404,5.2518,5.2261,5.1803,0.0,0.0,0.0,5.1229,5.1229,5.1229,5.1229,5.1229,5.1229,5.1229,5.1229,5.1229,5.1229,5.1229,5.1229,5.1229,5.1229,5.1229,5.1229,5.1229,5.1229,5.1229,5.1229,5.1229,5.1229,5.1139,0.0,3.4369,3.5011,3.5808,3.6013,3.6556,3.8011,3.8328,3.9345,4.1832,4.2057,4.251,4.4013,4.458,4.4849,4.4875,4.5967,4.6948,4.7663,4.8294,4.8728,4.8873,4.951,4.9945,5.0112,5.0112,5.0112,5.0112,5.0764,5.109,5.1067,5.1719,5.2045,5.2045,5.2045,5.2045,5.1973,5.1321,5.109,5.0995,5.0365,4.951,4.8656,4.8475,4.8438,4.833,4.7497,4.7663,4.8076,4.7446,4.6794,4.6287,4.6287,4.6168,0.0,0.0,0.0,0.0,0.0,0.0,0.0,0.0,0.0,0.0,0.0,0.0,0.0,0.0,0.0,0.0,0.0,0.0,0.0,4.8699,4.9425,4.9874,4.9418,4.9881,5.0235,5.0123,5.0359,5.0722,5.1277,5.1308,5.1483,5.1987,5.2094,5.2017,5.1757,5.1618,5.1479,5.1246,5.1229,5.1229,5.1229,5.1229,5.1229,5.1229,5.1229,0.0,5.1229,5.1229,5.1229,5.1229,5.1229,5.1229,5.1229,5.1229,5.1229,5.1229,5.1229,5.1229,5.1229,5.1229,5.1229,5.1199,3.4404,3.5086,3.5713,3.6071,3.6755,3.7532,3.8328,3.8841,3.9844,4.192,4.2159,4.2645,4.421,4.4389,4.4489,4.4706,4.5951,4.7009,4.7747,4.8481,4.9075,4.9474,5.0271,5.0886,5.1285,5.1285,5.1285,5.1285,5.1683,5.19,5.19,5.2299,5.248,5.248,5.248,5.248,5.248,5.2082,5.19,5.1864,5.1466,5.0814,5.0053,4.9655,4.951,4.9438,4.9039,4.9148,4.9365,4.8568,4.8315,4.8242,4.7744,4.7738,4.7828,0.0,0.0,0.0,0.0,0.0,0.0,0.0,0.0,0.0,0.0,0.0,0.0,0.0,0.0,4.7891,4.8797,0.0,4.8922,4.9358,4.9729,4.9954,4.9953,5.0424,5.0608,5.0162,5.0511,5.0917,5.1297,5.1439,5.1592,5.1757,5.1787,5.1695,5.1386,5.1386,5.1369,5.1199,5.1229,5.1229,5.1229,5.1229,5.1229,5.1229,5.1229,5.1229,5.1229,5.1229,5.1229,5.1229,5.1229,5.1229,5.1229,5.1229,5.1229,5.1229,5.1229,5.1229,5.1229,5.1229,5.1229,5.1229,3.494,3.5799,3.6432,3.6333,3.7505,3.8505,3.8632,3.9244,4.0335,4.1995,4.2184,4.2748,4.4266,4.4131,4.4169,4.489,4.5897,4.6921,4.8006,4.8756,4.9474,5.0293,5.1104,5.1828,5.248,5.248,5.248,5.248,5.248,5.2589,5.2733,5.2733,5.2806,5.2951,5.2951,5.2951,5.2951,5.2806,5.2733,5.2733,5.2552,5.2118,5.1466,5.0814,5.0474,5.0329,5.0184,5.022,5.022,4.9401,4.9524,4.9937,4.9153,4.9144,4.9365,4.8951,4.8443,0.0,0.0,0.0,0.0,0.0,0.0,0.0,0.0,4.8013,4.8278,4.8913,4.86,4.8472,4.9134,4.8945,4.9001,4.9945,5.0001,5.0021,5.0323,5.0802,5.088,5.0214,5.0713,5.1137,5.1137,5.1577,5.1741,5.1526,5.1526,5.1463,5.1229,5.1229,5.1229,5.1229,5.1229,5.1229,5.1229,5.1229,5.1229,5.1229,5.1229,5.1229,5.1229,5.1229,5.1229,5.1229,5.1229,5.1229,5.1229,5.1229,5.1229,5.1229,5.1229,5.1229,5.1229,5.1229,5.1229,5.1229,0.0,3.6255,3.7227,3.7175,3.8001,3.8861,3.9455,3.969,4.0355,4.2007,4.2108,4.2578,4.4086,4.4017,4.4345,4.5423,4.5639,4.6597,4.8662,4.951,5.0307,5.1104,5.1937,5.2408,5.248,5.248,5.248,5.248,5.248,5.2878,5.3566,5.3566,5.3965,5.4653,5.4653,5.4653,5.4581,5.3856,5.3566,5.3494,5.277,5.2444,5.2371,5.2263,5.1792,5.1067,5.0365,5.0583,5.1031,5.0234,4.9951,4.9875,4.9631,4.9388,4.9075,4.8675,4.8119,4.7548,4.7062,4.7012,4.7162,4.7602,4.8101,4.8622,0.0,4.8871,4.8913,4.9132,4.8986,4.9126,5.0219,4.9905,4.9735,5.0389,5.0717,5.0788,5.0593,5.1106,5.1405,5.1083,5.1329,5.1528,5.1528,5.1403,5.1276,5.1276,5.1246,5.1229,5.1229,5.1229,5.1229,5.1229,5.1229,5.1229,5.1229,5.1229,5.1229,5.1229,5.1229,5.1229,5.1229,5.1229,5.1229,5.1229,5.1229,5.1229,5.1229,5.1229,5.1229,5.1229,5.1229,5.1229,5.1229,5.1229,5.1229,5.1229,0.0,3.5979,3.6851,3.7251,3.8401,3.9399,3.9647,3.972,4.0297,4.1858,4.2044,4.2537,4.3998,4.3892,4.428,4.5589,4.564,4.6544,4.8856,4.9699,5.0474,5.1249,5.2082,5.248,5.248,5.248,5.2733,5.3204,5.3204,5.3603,5.4399,5.4399,5.4581,5.4907,5.4907,5.4907,5.487,5.4544,5.4399,5.4327,5.353,5.3204,5.3132,5.2661,5.2253,5.1845,5.1588,5.1674,0.0,5.0954,5.0852,5.0952,5.0271,5.0069,5.0013,4.947,4.8941,4.8464,4.8205,4.816,4.8266,4.8621,4.884,4.8985,4.9195,4.909,4.9146,4.9868,4.9649,4.9595,5.0474,5.0162,5.0018,5.072,5.0788,5.0865,5.112,5.1282,5.1323,5.1229,5.1323,5.1369,5.1369,5.1276,5.1229,5.1229,5.1229,5.1229,5.1229,5.1229,5.1229,5.1229,5.1229,5.1229,5.1229,5.1229,5.1229,5.1229,5.1229,5.1229,5.1229,5.1229,5.1229,5.1229,5.1229,5.1229,5.1259,5.1618,5.1798,5.1828,5.2217,5.2127,5.1738,5.1349,5.1229,5.1229,0.0,3.5894,3.6737,3.7181,3.8588,3.9672,3.9662,3.9649,4.0189,4.1753,4.1911,4.2436,4.3801,4.373,4.4176,4.5644,4.564,4.6564,4.8877,4.972,5.0474,5.1249,5.2082,5.248,5.248,5.248,5.2878,5.3711,5.3711,5.4218,5.5196,5.5196,5.5341,5.5522,5.5522,5.5522,5.5522,5.5305,5.5196,5.5124,5.411,5.3711,5.3603,5.2759,5.2364,5.2293,5.2157,5.1992,0.0,5.0914,5.0856,5.0959,5.0079,5.0022,5.0133,4.9597,4.9282,4.9173,4.926,4.919,4.915,4.9447,4.9321,4.9254,4.9738,4.9536,4.9559,5.0516,5.0235,5.007,5.0746,5.0564,5.0543,5.1242,5.1152,5.1151,5.1635,5.1509,5.1323,5.1323,5.1276,5.1229,5.1229,5.1229,5.1229,5.1229,5.1229,5.1229,5.1229,5.1229,5.1229,5.1229,5.1229,5.1229,5.1229,5.1229,5.1229,5.1229,5.1229,5.1182,5.1058,5.1041,5.0994,5.0994,5.1088,5.1058,5.1165,5.187,5.2187,5.2247,5.2725,5.2606,5.2127,5.1468,5.1229,5.1229,0.0,0.0,3.7348,3.7224,3.8507,3.9575,3.9526,3.9514,4.0065,4.1604,4.1696,4.2134,4.3483,4.3566,4.4088,4.5475,4.5583,4.6524,4.8749,4.9655,5.0474,5.1249,5.2082,5.248,5.248,5.248,5.2878,5.3711,5.3711,5.4472,5.5957,5.5957,5.6355,5.7116,5.7116,5.7116,5.708,5.6283,5.5957,5.5812,5.4327,5.3711,5.3579,5.2665,5.2293,5.2221,5.1414,0.0,5.0641,4.9817,4.9329,4.9022,4.8649,4.8703,4.8747,4.8285,4.8541,4.9127,4.9682,4.9599,4.9444,4.9941,4.9737,4.9636,5.0603,5.0555,5.0403,5.0898,5.0765,5.0777,5.1528,5.1431,5.1481,5.2153,5.2079,5.1972,5.2002,5.1741,5.1572,5.1572,5.1369,5.1229,5.1229,5.1229,5.1229,5.1229,5.1229,5.1229,5.1229,5.1229,5.1229,5.1229,5.1229,5.1229,5.1229,5.1229,5.1229,5.1229,5.1229,5.1058,5.0822,5.0614,5.0501,5.0548,5.0728,5.0793,5.0852,5.1822,5.2187,5.2187,5.2217,5.2217,5.2127,5.1468,5.1229,5.1229,0.0,0.0,0.0,3.7616,3.8228,3.8674,3.909,3.9272,3.9896,4.1326,4.2331,0.0,0.0,0.0,0.0,0.0,4.6054,4.7082,4.8786,4.9148,4.9908,5.1249,5.1538,5.1937,5.248,5.248,5.2878,5.3711,5.3711,5.4472,5.5993,5.5993,5.6428,5.7188,5.7188,5.6899,5.6428,5.6681,5.6125,5.5074,5.4568,5.3977,5.3339,5.2401,5.1932,5.1544,0.0,4.9933,5.0267,4.9312,4.8741,4.8435,4.8521,4.8449,4.8367,4.8612,4.8795,4.9021,4.9815,4.9924,4.996,5.0512,5.0525,5.046,5.0673,5.0596,5.0611,5.1102,5.1138,5.1352,5.2192,5.2653,5.2977,5.3192,5.353,5.3744,5.3589,5.3099,5.2732,5.2546,5.206,5.1649,5.1479,5.1293,5.1229,5.1229,5.1229,5.1229,5.1229,5.1229,5.1229,5.1229,5.1229,5.1229,5.1229,5.1011,5.0917,5.0917,5.0805,5.0899,5.1187,5.1139,5.1356,5.1768,5.1817,5.1837,5.1896,5.2694,5.299,5.299,5.299,5.2724,5.225,5.1647,5.1143,5.0757,0.0,0.0,0.0,0.0,0.0,0.0,0.0,0.0,0.0,0.0,0.0,0.0,0.0,0.0,0.0,0.0,0.0,4.7186,4.8387,4.8728,4.9365,5.0416,5.0995,5.1538,5.2045,5.2335,5.2878,5.3711,5.3711,5.4363,5.5595,5.5595,5.5884,5.6391,5.6391,5.6102,5.5631,5.6088,5.5677,5.4699,5.4276,5.372,5.3032,5.2044,5.1495,0.0,4.9468,4.9275,4.96,4.839,4.7753,4.7519,4.786,4.801,4.8205,4.9061,4.9283,4.9461,5.0274,5.0424,5.0461,5.0802,5.0847,5.085,5.0938,5.0787,5.0839,5.1631,5.1798,5.2055,5.2874,5.3486,5.3903,5.4061,5.4464,5.4745,5.4792,5.4052,5.3438,5.3253,5.2535,5.1956,5.1741,5.1509,5.1293,5.1229,5.1229,5.1229,5.1229,5.1229,5.1229,5.1229,5.1105,5.1058,5.1058,5.0822,5.068,5.068,5.0471,5.068,5.1268,5.117,5.1502,5.2117,5.2218,5.2267,5.2326,5.3074,5.339,5.336,5.3124,5.28,5.2328,5.1444,5.0854,5.0501,0.0,0.0,0.0,0.0,0.0,0.0,0.0,0.0,0.0,0.0,0.0,0.0,0.0,0.0,0.0,0.0,0.0,0.0,4.7663,4.8402,4.8837,4.8909,5.0343,5.1176,5.1212,5.1973,5.2733,5.353,5.3566,5.4001,5.4798,5.4834,5.487,5.4907,5.4907,5.487,5.481,5.4749,5.4639,5.447,5.3441,5.2916,5.2559,5.1528,5.0991,5.0616,4.9547,4.8993,4.8562,4.7188,4.6576,4.648,4.6912,4.7505,4.8266,4.9549,5.0014,5.026,5.1,5.1062,5.0893,5.0916,5.0798,5.0808,5.1484,5.1135,5.1092,5.244,5.2743,5.298,5.364,5.3974,5.4344,5.4832,5.4945,5.5064,5.5527,5.4543,5.376,5.3729,5.2734,5.2048,5.2002,5.1787,5.1479,5.1229,5.1229,5.1229,5.1229,5.1229,5.1229,5.1229,5.0964,5.0793,5.0793,5.0567,5.0453,5.0453,5.0241,5.0467,5.1061,5.0842,5.112,5.1701,5.1954,5.2105,5.2134,5.3032,5.3398,5.3339,5.2691,5.2397,5.222,5.0953,5.0482,5.0453,0.0,0.0,0.0,0.0,0.0,0.0,0.0,0.0,0.0,0.0,0.0,0.0,0.0,0.0,0.0,0.0,0.0,0.0,4.7699,4.7895,4.8257,4.8873,4.9271,4.98,5.0401,5.0619,5.0814,5.1017,5.1611,5.2299,5.3132,5.3748,5.4327,5.4907,5.4907,5.4581,5.4037,5.4496,5.3891,5.2626,5.2594,5.2068,5.1246,5.062,5.0272,5.0004,4.8965,4.846,4.8143,4.7364,4.7461,4.8029,4.8707,4.9127,4.9482,5.0085,5.0188,5.0241,5.0809,5.0937,5.0992,5.1355,5.1543,5.1678,5.1849,5.2047,5.2303,5.2815,5.3201,5.3683,5.4338,5.4953,5.5645,5.6477,5.6746,5.6847,5.6811,5.576,5.4804,5.4095,5.3129,5.2413,5.2048,5.1956,5.1695,5.1229,5.1229,5.1229,5.1229,5.1229,5.1229,5.1229,5.0964,5.0793,5.0793,5.0423,5.0086,4.9892,5.0339,5.0842,5.1482,5.1926,5.2426,5.3036,5.3088,5.314,5.314,5.3367,5.3477,5.3419,5.2778,5.2224,5.1728,5.0912,5.03,4.9892,0.0,0.0,0.0,0.0,0.0,0.0,0.0,0.0,0.0,0.0,0.0,0.0,0.0,0.0,0.0,0.0,0.0,0.0,0.0,4.7699,4.7916,4.833,4.8692,4.9112,4.9546,4.9908,5.0112,5.0112,5.0546,5.0995,5.1466,5.2263,5.2878,5.3349,5.3675,5.3579,5.3074,5.2979,5.2471,0.0,0.0,5.0881,5.0474,5.008,4.9791,4.9517,4.8933,4.8791,4.8846,4.887,4.9133,4.9522,4.9957,5.0157,5.0263,5.0366,5.0515,5.0666,5.0873,5.1057,5.1296,5.1524,5.1809,5.2013,5.2109,5.2427,5.2833,5.3246,5.3738,5.4295,5.4883,5.5445,5.6044,5.6753,5.6819,5.6809,5.6873,5.5799,5.483,5.429,5.3355,5.2563,5.2155,5.2017,5.1834,5.1416,5.1276,5.1229,5.1229,5.1058,5.1011,5.1011,5.068,5.0442,5.0346,5.0057,4.9844,4.9746,5.0415,5.1004,5.1643,5.2281,5.292,5.35,5.35,5.35,5.35,5.35,5.35,5.3442,5.2833,5.2165,5.1556,5.0917,5.0299,4.9717,0.0,0.0,0.0,0.0,0.0,0.0,0.0,0.0,0.0,0.0,0.0,0.0,0.0,0.0,0.0,0.0,0.0,0.0,0.0,0.0,4.7699,4.7699,4.8366,4.8728,4.8728,4.9401,4.9785,4.9785,4.9872,4.9945,4.9967,5.0741,5.114,5.1176,5.1864,5.2062,5.1909,5.0928,5.0744,5.1038,4.9872,4.9611,4.989,0.0,0.0,4.9107,4.9209,4.9531,5.0018,5.0823,5.096,5.0794,5.0894,5.0883,5.0808,5.0648,5.0922,5.1247,5.1114,5.1316,5.1607,5.1611,5.1788,5.2063,5.2306,5.2561,5.2945,5.3726,5.4317,5.4838,5.5418,5.5685,5.5954,5.6505,5.6143,5.5943,5.6376,5.5273,5.4376,5.4282,5.3307,5.2563,5.2261,5.2063,5.1834,5.1602,5.1293,5.1152,5.1152,5.0917,5.0775,5.0728,5.0327,4.999,4.9717,4.9717,4.9717,4.9746,5.0423,5.1091,5.1643,5.2281,5.2862,5.3384,5.3297,5.3268,5.3268,5.3268,5.3326,5.3326,5.2775,5.2223,5.1672,5.112,5.0511,4.993,0.0,0.0,0.0,0.0,0.0,0.0,0.0,0.0,0.0,0.0,4.3065,0.0,0.0,0.0,0.0,0.0,0.0,0.0,0.0,0.0,0.0,4.7699,4.7823,4.7895,4.7895,4.8061,4.8134,4.8134,4.8786,4.9112,4.9148,4.9908,5.0329,5.0307,5.0326,5.0353,5.0272,4.9627,4.9298,4.9174,4.8978,4.8759,4.8494,0.0,0.0,0.0,4.9315,4.9988,5.0659,5.143,5.153,5.1425,5.1885,5.1828,5.1586,5.1647,5.1499,5.1389,5.1735,5.1729,5.1598,5.1592,5.1942,5.2306,5.2577,5.281,5.3291,5.4611,5.4753,5.501,5.6034,5.6006,5.6034,5.6882,5.6353,5.5826,5.5879,5.5046,5.4189,5.3627,5.2863,5.2291,5.2063,5.1834,5.1556,5.1323,5.1011,5.087,5.087,5.0822,5.0632,5.0231,5.0135,4.999,4.9717,4.9717,4.9717,4.9746,5.0888,5.1527,5.1643,5.2281,5.2681,5.2717,5.2165,5.1933,5.1933,5.1933,5.2252,5.2717,5.2652,5.2565,5.2397,5.2333,5.1846,5.1294,0.0,0.0,0.0,0.0,0.0,0.0,0.0,0.0,0.0,0.0,4.3715,4.4874,0.0,0.0,0.0,0.0,0.0,0.0,0.0,0.0,0.0,0.0,4.7699,4.7699,4.7699,4.7699,4.7699,4.7699,0.0,4.8172,4.8172,4.8923,4.9261,4.9298,4.9649,4.9693,4.9412,4.8661,4.8498,4.8711,4.807,4.8026,0.0,0.0,0.0,0.0,4.9923,5.0593,5.116,5.1528,5.1791,5.2051,5.235,5.2392,5.2272,5.1952,5.2013,5.2124,5.1859,5.1796,5.1773,5.1651,5.1941,5.2397,5.2757,5.315,5.3624,5.451,5.4879,5.5181,5.5704,5.5903,5.6025,5.6351,5.5762,5.5208,5.4921,5.4316,5.3708,5.3308,5.2667,5.2215,5.2048,5.1741,5.1433,5.1011,5.087,5.0793,5.0793,5.0585,5.025,4.9863,4.9892,4.9815,4.9717,4.9717,4.9717,4.9746,5.0656,5.112,5.1149,5.1788,5.2078,5.2049,5.1759,5.1614,5.1614,5.1614,5.1991,5.2623,5.2623,5.2623,5.2623,5.2623,5.2165,5.1614,0.0,0.0,0.0,0.0,0.0,0.0,0.0,4.013,4.1144,4.2918,4.4403,4.5381,4.5526,4.683,0.0,0.0,0.0,0.0,0.0,0.0,0.0,0.0,0.0,4.7699,4.7699,0.0,0.0,4.791,4.8005,0.0,0.0,0.0,0.0,0.0,4.8856,4.8935,4.8555,4.7611,4.7605,0.0,0.0,4.7537,0.0,0.0,0.0,0.0,0.0,5.1127,5.1489,5.1655,5.2018,5.2409,5.2518,5.2693,5.2692,5.2101,5.2426,5.2764,5.1938,5.1864,5.1956,5.1695,5.1987,5.2532,5.3038,5.3365,5.3704,5.4308,5.4671,5.4995,5.5325,5.5659,5.581,5.5741,5.5122,5.4571,5.4146,5.3671,5.3277,5.3042,5.2563,5.2124,5.1926,5.1695,5.1293,5.087,5.0728,5.068,5.068,5.0279,4.9941,4.9717,4.9717,4.9717,4.9717,4.9717,4.9717,4.9746,5.0415,5.0734,5.0685,5.1178,5.141,5.141,5.1265,5.1207,5.1207,5.1207,5.1672,5.2368,5.2368,5.2543,5.2775,5.2775,5.2455,5.202,0.0,0.0,0.0,0.0,0.0,0.0,0.0,4.0438,4.1343,4.3679,4.4729,4.5599,4.6323,4.7192,0.0,0.0,0.0,0.0,0.0,0.0,0.0,0.0,0.0,0.0,0.0,0.0,0.0,4.8612,4.9334,0.0,0.0,0.0,0.0,0.0,0.0,4.7166,4.6967,4.6259,0.0,0.0,0.0,0.0,0.0,0.0,0.0,0.0,0.0,5.1284,5.1415,5.2078,5.2343,5.2409,5.2409,5.2584,5.279,5.2588,5.2562,5.2571,5.2301,5.2094,5.1956,5.1695,5.2155,5.2833,5.3477,5.3321,5.3366,5.4646,5.419,5.3993,5.535,5.5309,5.5221,5.5603,5.4966,5.437,5.4146,5.354,5.3042,5.2743,5.2322,5.1926,5.1695,5.1386,5.1105,5.0822,5.0394,5.0183,5.0183,4.9863,4.9717,4.9717,4.9717,4.9717,4.9717,4.9717,4.9717,4.9746,5.0415,5.0734,5.0734,5.0743,5.0772,5.0714,5.0104,4.9843,4.9843,4.9843,5.0598,5.1701,5.1701,5.2426,5.3442,5.3442,5.3384,5.3326,0.0,0.0,0.0,0.0,0.0,0.0,0.0,4.051,4.1524,4.444,4.5091,4.578,4.7083,4.7518,4.7699,0.0,0.0,0.0,0.0,0.0,0.0,0.0,0.0,0.0,0.0,0.0,4.8829,4.872,4.9424,0.0,0.0,0.0,0.0,0.0,0.0,4.659,4.6337,4.6342,0.0,0.0,0.0,0.0,0.0,0.0,0.0,0.0,0.0,0.0,5.2011,5.231,5.2111,5.1746,5.1746,5.1888,5.2198,5.2674,5.279,5.2804,5.2603,5.2352,5.2124,5.2033,5.2577,5.3277,5.3813,5.362,5.3526,5.4201,5.3832,5.3732,5.4721,5.498,5.5044,5.532,5.4707,5.3985,5.3365,5.2922,5.2518,5.2322,5.1972,5.1741,5.1618,5.1369,5.1041,5.0662,5.0183,4.9892,4.9892,4.9766,4.9717,4.9717,4.9717,4.9717,4.9717,4.9717,4.9717,4.9717,4.9979,5.0124,5.0124,5.0124,5.0124,5.0095,4.9834,4.9717,4.9698,5.0153,5.0801,5.1643,5.2049,5.2717,5.35,5.35,5.35,5.35,0.0,0.0,0.0,0.0,0.0,0.0,4.0293,4.0691,4.1922,4.491,4.5309,4.5924,4.7497,4.7699,4.7699,4.7699,0.0,0.0,0.0,0.0,0.0,0.0,0.0,0.0,0.0,0.0,4.9125,4.8978,4.9862,5.0032,0.0,0.0,4.8433,4.8088,0.0,0.0,0.0,0.0,0.0,0.0,0.0,0.0,0.0,0.0,0.0,0.0,0.0,0.0,0.0,0.0,0.0,5.1282,5.1015,5.1034,5.1328,5.212,5.2667,5.2943,5.2666,5.2435,5.2287,5.2561,5.2803,5.3193,5.3893,5.3665,5.3329,5.3596,5.354,5.3632,5.4357,5.4782,5.5103,5.5366,5.4773,5.4047,5.3374,5.2856,5.2459,5.2183,5.1862,5.1572,5.1479,5.1246,5.0947,5.0548,5.0086,4.9766,4.9717,4.9717,4.9717,4.9717,4.9717,4.9717,4.9717,4.9717,4.9717,4.9717,4.9717,4.9717,4.9717,4.9717,4.9717,4.9717,4.9717,4.9785,5.0017,5.0531,5.1149,5.1933,5.2397,5.2949,5.35,5.35,5.35,5.35,0.0,0.0,0.0,0.0,0.0,0.0,0.0,4.1162,4.2537,4.4983,4.5309,4.5924,4.7497,4.7699,4.7699,4.7699,0.0,0.0,0.0,0.0,0.0,0.0,0.0,0.0,0.0,0.0,4.9807,4.9693,5.101,5.1194,5.0297,5.0145,4.9645,4.8841,0.0,0.0,0.0,0.0,0.0,0.0,0.0,0.0,0.0,0.0,0.0,0.0,0.0,0.0,0.0,0.0,0.0,0.0,0.0,5.0083,5.0068,5.089,5.2021,5.2902,5.2434,5.2132,5.2231,5.3178,5.2722,5.2372,5.3687,5.3233,5.2617,5.3029,5.3287,5.3632,5.4357,5.4782,5.5266,5.597,5.53,5.467,5.4653,5.3727,5.288,5.2627,5.1994,5.1479,5.1229,5.0964,5.0728,5.0501,5.0231,4.999,4.9717,4.9717,4.9717,4.9717,4.9717,4.9717,4.9717,4.9717,4.9717,4.9717,4.9717,4.9717,4.9717,4.9717,4.9717,4.9717,4.9717,5.0095,5.0705,5.0734,5.1461,5.2623,5.2623,5.2949,5.35,5.35,5.35,5.35,0.0,0.0,0.0,0.0,0.0,0.0,0.0,4.1162,4.2356,4.4222,4.4947,4.5707,4.6757,4.7373,4.7699,4.7699,0.0,0.0,0.0,0.0,0.0,0.0,0.0,0.0,0.0,0.0,0.0,4.9412,5.0972,5.1414,5.0831,5.0171,4.9565,4.9073,4.8154,4.7731,0.0,0.0,0.0,0.0,0.0,0.0,0.0,0.0,0.0,0.0,0.0,0.0,0.0,0.0,0.0,0.0,0.0,0.0,0.0,5.0061,5.0838,5.1614,5.2163,5.2094,5.2041,5.2534,5.2622,5.2781,5.3398,5.3225,5.2955,5.3066,5.3287,5.3632,5.4357,5.4782,5.5154,5.576,5.5051,5.44,5.4263,5.3209,5.2605,5.296,5.245,5.1802,5.1259,5.0964,5.0728,5.0501,5.0231,4.999,4.9717,4.9717,4.9717,4.9717,4.9717,4.9717,4.9717,4.9717,4.9717,4.9717,4.9717,4.9717,4.9717,4.9717,4.9717,4.9746,5.0162,5.0531,5.0793,5.1664,5.2245,5.2601,5.2856,5.304,5.3213,5.3001,5.2947,5.2947,0.0,0.0,0.0,0.0,0.0,0.0,0.0,4.1162,4.2284,4.3896,4.4802,4.5599,4.6395,4.7228,4.7678,4.7636,0.0,0.0,0.0,0.0,0.0,0.0,0.0,0.0,0.0,0.0,0.0,0.0,0.0,5.1376,5.0972,5.0266,4.9804,4.9521,4.8508,4.8083,0.0,0.0,0.0,0.0,0.0,0.0,0.0,0.0,0.0,0.0,0.0,0.0,0.0,0.0,0.0,0.0,0.0,0.0,0.0,0.0,4.9723,5.039,5.1977,5.2213,5.2125,5.2653,5.257,5.2521,5.3083,5.2974,5.2745,5.2818,5.332,5.3816,5.4278,5.4787,5.5337,5.589,5.5197,5.4498,5.4392,5.3333,5.2546,5.2456,5.2306,5.1947,5.1289,5.1202,5.0994,5.0501,5.0231,4.999,4.9717,4.9717,4.9717,4.9717,4.9717,4.9717,4.9717,4.9717,4.9717,4.9717,4.9717,4.9717,4.9746,4.993,5.0095,5.0075,5.0743,5.1149,0.0,5.2304,5.2665,5.2822,5.3016,5.3054,5.2947,5.2734,5.268,5.268,0.0,0.0,0.0,0.0,0.0,0.0,0.0,0.0,0.0,0.0,4.4729,4.5578,4.6302,4.7171,4.7615,0.0,0.0,0.0,0.0,0.0,0.0,0.0,0.0,0.0,0.0,4.8742,4.9412,4.9269,5.0622,5.1105,5.0749,0.0,5.0285,5.008,4.8895,4.8728,0.0,0.0,0.0,0.0,0.0,0.0,0.0,0.0,0.0,0.0,0.0,0.0,0.0,0.0,0.0,0.0,0.0,0.0,0.0,0.0,0.0,0.0,0.0,5.2265,5.2307,5.3252,5.2476,5.1773,5.2762,5.2543,0.0,5.2302,5.3317,5.4124,5.4152,5.4763,5.5509,5.6161,5.5493,5.493,5.4952,5.4025,5.2845,5.1498,5.1947,5.2067,5.1302,5.1572,5.1421,5.056,5.0231,4.999,4.9717,4.9717,4.9717,4.9717,4.9717,4.9717,4.9717,4.9717,4.9717,4.9717,4.9717,4.9698,4.9805,5.0444,5.0685,5.0772,5.141,5.202,5.2572,5.263,5.2798,5.3054,5.3054,5.2894,5.268,5.2627,5.2627,5.2627,0.0,0.0,0.0,0.0,0.0,0.0,0.0,0.0,0.0,0.0,0.0,4.5183,4.5317,4.6557,0.0,0.0,0.0,0.0,0.0,0.0,0.0,0.0,0.0,0.0,0.0,4.8626,4.9221,4.8976,5.0416,5.0927,5.0481,5.0313,0.0,0.0,0.0,0.0,0.0,0.0,0.0,0.0,0.0,0.0,0.0,0.0,0.0,0.0,4.8199,4.8266,0.0,0.0,0.0,0.0,0.0,0.0,0.0,0.0,4.9027,4.939,5.1105,0.0,5.1222,5.2015,5.195,5.179,0.0,5.1966,5.1904,5.1941,5.2626,5.3339,5.3672,5.4064,5.4489,5.4995,5.4414,5.4097,5.4631,5.469,5.4221,5.2875,5.3324,5.3166,5.181,5.1743,5.1372,5.029,5.0135,4.999,4.9717,4.9717,4.9717,4.9717,4.9717,4.9717,4.9717,4.9717,4.9717,4.9717,4.9717,4.9979,5.0502,5.0598,5.0946,5.1439,5.2078,5.2323,5.2289,5.278,5.2939,5.2787,5.2519,5.2358,5.2275,5.2059,5.2004,5.2004,0.0,0.0,0.0,0.0,0.0,0.0,0.0,0.0,0.0,0.0,0.0,0.0,0.0,0.0,0.0,0.0,0.0,0.0,0.0,0.0,0.0,0.0,0.0,0.0,0.0,4.8282,4.8926,0.0,0.0,5.0564,0.0,0.0,0.0,0.0,0.0,0.0,0.0,0.0,0.0,0.0,0.0,0.0,0.0,0.0,0.0,0.0,4.7106,4.7206,0.0,4.7504,4.7736,4.8001,0.0,0.0,0.0,0.0,4.8597,4.8895,5.0283,5.0735,5.1021,5.1743,5.1794,5.1647,5.1647,5.1577,5.1503,5.1503,5.2167,5.278,5.2939,5.3355,5.3818,5.4189,5.3944,5.3905,5.4338,5.4351,5.3963,5.3117,5.3625,5.3357,5.1757,5.1807,5.1376,5.0193,4.999,4.9844,4.9717,4.9717,4.9717,4.9717,4.9717,4.9717,4.9717,4.9717,4.9717,4.9717,4.9988,5.0386,5.0685,5.1345,5.1679,5.1873,5.2538,5.2641,5.2378,5.2751,5.2734,5.2465,5.2275,5.2113,5.2004,5.1841,5.1787,5.1787,0.0,0.0,0.0,0.0,0.0,0.0,0.0,0.0,0.0,0.0,0.0,0.0,0.0,0.0,0.0,0.0,0.0,0.0,0.0,0.0,0.0,0.0,0.0,4.6566,4.6542,4.7784,4.8441,0.0,0.0,0.0,0.0,0.0,4.9077,0.0,0.0,0.0,0.0,0.0,0.0,0.0,0.0,0.0,0.0,0.0,0.0,0.0,0.0,0.0,0.0,4.6874,4.7305,4.7868,4.7968,0.0,0.0,0.0,0.0,0.0,4.9551,5.0267,5.0854,5.178,5.1684,5.1387,5.135,5.1129,5.0914,5.0914,5.1627,5.2235,5.2096,5.271,5.3286,5.3469,5.3675,5.3923,5.4132,5.3674,5.3277,5.3109,5.3496,5.3138,5.1631,5.1727,5.1374,5.0126,4.9815,4.9717,4.9717,4.9717,4.9717,4.9717,4.9834,4.9814,4.9814,4.9727,4.9727,4.9892,5.0394,5.0822,5.1004,5.2078,5.2393,5.2248,5.2824,5.2894,5.2627,5.2627,5.2465,5.2113,5.2113,5.2004,5.1787,5.1787,5.1787,5.1787,0.0,0.0,0.0,0.0,0.0,0.0,0.0,0.0,0.0,0.0,0.0,0.0,0.0,0.0,0.0,0.0,0.0,0.0,0.0,0.0,0.0,0.0,4.6398,4.6398,4.6242,4.6905,4.75,0.0,0.0,0.0,4.9316,4.9138,4.8767,4.8324,0.0,0.0,0.0,0.0,0.0,0.0,4.8001,0.0,0.0,0.0,0.0,0.0,0.0,0.0,0.0,4.6676,4.6974,4.7173,4.7802,0.0,0.0,0.0,0.0,0.0,4.9516,4.9521,4.9479,5.1173,5.1242,5.0838,5.0679,5.037,5.0058,5.0058,5.0492,5.1004,5.1362,5.1964,5.2475,5.2634,5.3107,5.3574,5.3813,5.4048,5.4243,5.4476,5.3858,5.3044,5.203,5.1511,5.0827,4.9824,4.9717,4.9717,4.9717,4.9717,4.9717,4.9717,5.022,5.056,5.056,4.9959,4.9959,5.056,5.0627,5.1236,5.2281,5.2197,5.2444,5.291,5.2812,5.2573,5.2275,5.2275,5.2113,5.1841,5.1841,5.1841,5.1787,5.1787,5.1787,5.1787,0.0,0.0,0.0,0.0,0.0,0.0,0.0,0.0,0.0,0.0,0.0,0.0,0.0,0.0,0.0,0.0,0.0,0.0,0.0,0.0,0.0,4.6105,4.603,4.5895,4.5743,4.6246,4.6825,4.7414,0.0,4.8357,4.892,4.8704,4.8388,4.8099,0.0,0.0,0.0,0.0,0.0,0.0,0.0,0.0,0.0,0.0,0.0,0.0,0.0,0.0,0.0,0.0,4.598,4.6411,4.7173,0.0,0.0,0.0,0.0,0.0,4.8749,4.8742,4.8711,4.9655,4.9928,4.9908,4.971,4.9703,4.9739,4.9739,5.037,5.0993,5.1085,5.1713,5.2399,5.2889,5.2881,5.3027,5.3532,5.3402,5.3272,5.3301,5.2885,5.2293,5.14,5.1029,5.0543,4.9776,4.9717,4.9717,4.9717,4.9717,4.9892,5.022,5.0511,5.083,5.1178,5.0888,5.0888,5.1178,5.1527,5.194,5.2365,5.2555,5.2607,5.2627,5.2465,5.2221,5.195,5.195,5.1896,5.1787,5.1787,5.1787,5.1787,5.1787,5.1787,5.1787,0.0,0.0,0.0,0.0,0.0,0.0,0.0,0.0,0.0,0.0,0.0,0.0,0.0,0.0,0.0,0.0,0.0,0.0,0.0,0.0,4.614,4.5965,4.5701,4.5494,4.531,4.5733,4.6266,4.6844,4.7252,4.7838,4.8513,4.826,4.8131,0.0,0.0,0.0,0.0,0.0,0.0,0.0,0.0,0.0,0.0,0.0,0.0,0.0,0.0,0.0,0.0,0.0,0.0,0.0,0.0,0.0,0.0,4.7305,4.744,4.7473,4.7787,4.7963,4.813,4.8247,4.8689,4.9087,4.9037,4.9178,4.9426,4.958,5.0449,5.1122,5.091,5.1695,5.2615,5.3318,5.2981,5.2834,5.3435,5.2885,5.2423,5.2222,5.1909,5.1458,5.0763,5.0589,5.022,4.9746,4.9717,4.9717,4.9717,4.9717,4.9988,5.0705,5.083,5.1207,5.1846,5.1991,5.1991,5.1846,5.2288,5.2422,5.2334,5.2718,5.2627,5.2167,5.2113,5.2004,5.1787,5.1787,5.1787,5.1787,5.1787,5.1787,5.1787,5.1787,5.1732,5.1706,0.0,0.0,0.0,0.0,0.0,0.0,0.0,0.0,0.0,0.0,0.0,0.0,0.0,0.0,0.0,0.0,0.0,0.0,0.0,0.0,4.6055,4.5838,4.5546,4.5283,4.5015,4.5433,4.5862,4.6334,4.6886,4.7431,4.8066,4.8033,4.8001,4.8001,0.0,0.0,4.8001,4.8001,4.8001,0.0,0.0,0.0,0.0,0.0,0.0,0.0,0.0,0.0,0.0,0.0,0.0,0.0,0.0,0.0,4.5881,4.5947,4.6221,4.6552,4.6831,4.7212,4.748,4.7605,4.8153,4.8747,4.9193,4.8949,4.8843,4.9446,5.0288,5.084,5.084,5.1975,5.307,5.3431,5.3466,5.3541,5.3831,5.315,5.2668,5.2873,5.167,5.0763,5.0734,5.0153,4.9727,4.9717,4.9717,4.9717,4.9717,4.9717,4.9988,5.0705,5.1236,5.1846,5.2484,5.3094,5.3094,5.2514,5.2284,5.2444,5.2996,5.2491,5.2221,5.2167,5.195,5.1841,5.1787,5.1787,5.1787,5.1787,5.1787,5.1787,5.1787,5.1787,5.1651,5.1431,0.0,0.0,0.0,0.0,0.0,0.0,0.0,0.0,0.0,0.0,0.0,0.0,0.0,0.0,0.0,0.0,0.0,0.0,0.0,0.0,4.609,4.5812,4.5546,4.5177,4.4714,4.512,4.5537,4.5967,4.7101,4.7801,4.8001,4.8001,0.0,0.0,0.0,4.8001,4.8001,4.8001,4.8001,4.8001,0.0,0.0,0.0,0.0,0.0,0.0,0.0,0.0,0.0,0.0,4.4026,4.4158,4.4887,4.5119,4.5185,4.5588,4.5929,4.6157,4.5943,4.6112,4.647,4.6668,4.6965,4.7419,4.8464,4.8729,4.9059,5.0133,5.0775,5.1345,5.1973,5.2557,5.3085,5.3466,5.3181,5.2972,5.3076,5.242,5.1897,5.1591,5.1075,5.056,5.0104,4.9863,4.9717,4.9717,4.9717,4.9717,4.9717,5.0124,5.0598,5.1236,5.1875,5.2514,5.3152,5.3384,5.3279,5.2919,5.2814,5.2771,5.2841,5.2411,5.2113,5.195,5.1841,5.1787,5.1787,5.1787,5.1787,5.1787,5.1651,5.1403,5.1238,5.1238,5.1183,5.11,0.0,0.0,0.0,0.0,0.0,0.0,0.0,0.0,0.0,0.0,0.0,0.0,0.0,0.0,0.0,0.0,0.0,0.0,0.0,4.6214,4.6055,4.5727,4.5468,4.5069,4.4463,4.4859,4.5327,4.5781,4.7272,4.8001,4.8001,0.0,0.0,0.0,4.8001,4.7868,4.7669,4.7901,4.7868,4.7669,4.7901,0.0,0.0,0.0,0.0,0.0,0.0,0.0,0.0,0.0,4.3416,4.3515,4.404,4.4172,4.4304,4.4675,4.5211,4.5534,4.4957,4.5442,4.6074,4.6011,4.6448,4.7249,4.8356,4.873,4.9199,5.071,5.1395,5.2059,5.2916,5.3092,5.3215,5.3442,5.3152,5.2862,5.2862,5.231,5.1759,5.1323,5.0917,5.0481,5.0095,4.9785,4.9717,4.9717,4.9717,4.9805,5.0037,5.0423,5.1062,5.1904,5.2339,5.2862,5.35,5.35,5.3372,5.3107,5.3001,5.2841,5.2519,5.2221,5.195,5.1787,5.1787,5.1787,5.1787,5.1787,5.1732,5.1651,5.1376,5.11,5.0906,5.0906,5.085,5.0739,0.0,0.0,0.0,0.0,0.0,0.0,0.0,0.0,0.0,0.0,0.0,0.0,0.0,0.0,0.0,0.0,0.0,0.0,0.0,4.6214,4.6005,4.5624,4.5336,4.4906,4.4293,4.4682,4.5205,4.5814,4.7272,4.8001,4.8001,4.7968,0.0,4.7968,4.7968,4.757,4.6941,4.7669,4.757,4.6941,4.7703,4.8001,0.0,0.0,0.0,0.0,0.0,0.0,0.0,0.0,4.3113,4.3113,4.3113,4.3113,4.3113,4.3113,4.3877,4.4524,4.3812,4.5184,4.6612,4.5808,4.6971,4.8446,4.9179,4.8892,4.9085,5.1031,5.2076,5.2775,5.3384,5.35,5.35,5.35,5.35,5.35,5.35,5.2978,5.2623,5.2623,5.1519,5.0685,5.0734,5.0124,4.9746,4.9717,4.9746,5.0037,5.0627,5.0685,5.1316,5.2565,5.2623,5.2891,5.35,5.35,5.3372,5.3054,5.2841,5.2519,5.2167,5.1896,5.1787,5.1787,5.1787,5.1787,5.1787,5.1787,5.1651,5.1349,5.1017,5.0906,5.0906,5.0906,5.0711,5.0487,0.0,0.0,0.0,0.0,0.0,0.0,0.0,0.0,0.0,0.0,0.0,0.0,0.0,0.0,0.0,0.0,0.0,0.0,0.0,4.6115,4.5905,4.5624,4.5257,4.4797,4.4293,4.4623,4.5379,4.6576,4.7007,4.7239,0.0,0.0,4.6444,4.6444,4.6444,4.6311,4.6146,4.6344,4.6311,4.6179,4.6941,4.7239,0.0,0.0,0.0,0.0,0.0,0.0,0.0,0.0,0.0,0.0,4.2429,4.2492,4.2652,4.288,4.3519,4.4079,4.3783,4.473,4.5712,4.5606,4.6611,4.7908,4.906,4.9248,4.9669,5.1216,5.2442,5.3297,5.3471,5.35,5.35,5.35,5.35,5.35,5.35,5.3355,5.3065,5.2681,5.2304,5.1693,5.0822,5.0481,5.0191,4.9746,5.0153,5.0502,5.0705,5.1577,5.2245,5.2623,5.3007,5.3326,5.35,5.3319,5.3054,5.2787,5.2519,5.2275,5.2167,5.1896,5.1787,5.1787,5.1787,5.1787,5.1787,5.1596,5.1211,5.0794,5.0655,5.0487,5.0292,5.0292,5.0235,5.015,0.0,0.0,0.0,0.0,0.0,0.0,0.0,0.0,0.0,0.0,4.6214,0.0,0.0,0.0,0.0,0.0,0.0,0.0,0.0,0.0,4.5854,4.5546,4.5123,4.4738,4.447,4.4906,4.5549,0.0,0.0,0.0,0.0,4.6013,4.5781,4.5781,4.5781,4.5616,4.5384,4.5682,4.5616,4.5417,4.6116,4.6382,4.6251,0.0,0.0,0.0,0.0,0.0,0.0,0.0,0.0,0.0,4.1721,4.1754,4.1945,4.241,4.2968,4.3514,4.3865,4.4749,4.5647,4.6135,4.7186,4.8372,4.9367,5.0141,5.0778,5.1331,5.2526,5.3477,5.3372,5.3424,5.35,5.35,5.35,5.35,5.35,5.35,5.3384,5.2978,5.2717,5.2333,5.1548,5.1207,5.0888,5.0481,5.083,5.1149,5.1461,5.2216,5.2688,5.2949,5.3326,5.35,5.35,5.3213,5.2947,5.268,5.2358,5.2113,5.2059,5.1841,5.1787,5.1787,5.1706,5.1651,5.1596,5.1211,5.085,5.0515,5.0319,5.0206,5.001,5.001,5.0059,5.0135,0.0,0.0,0.0,0.0,0.0,0.0,0.0,0.0,0.0,0.0,4.6214,4.6214,0.0,0.0,0.0,0.0,0.0,0.0,0.0,0.0,4.5803,4.5415,4.4968,4.4721,4.4619,4.5317,0.0,0.0,0.0,0.0,4.5682,4.5616,4.5582,4.5582,4.5582,4.5218,4.4622,4.5317,4.5218,4.4655,4.5261,4.5496,4.5398,4.4362,0.0,0.0,0.0,0.0,0.0,0.0,0.0,0.0,4.099,4.0922,4.1081,4.1794,4.2337,4.2957,4.396,4.5038,4.607,4.7036,4.8327,4.9445,4.989,5.115,5.198,5.1279,5.2313,5.3285,5.3107,5.3266,5.3477,5.3477,5.3477,5.3448,5.35,5.35,5.35,5.35,5.3007,5.2681,5.2623,5.2049,5.1672,5.1614,5.1672,5.1962,5.2594,5.2681,5.292,5.35,5.35,5.35,5.3477,5.3213,5.2947,5.268,5.2329,5.2059,5.1787,5.1787,5.1787,5.1787,5.1541,5.1376,5.1321,5.0738,5.0487,5.0431,5.0123,5.001,5.001,5.0064,5.0216,5.0385,0.0,0.0,0.0,0.0,0.0,0.0,0.0,0.0,0.0,0.0,0.0,0.0,0.0,0.0,0.0,0.0,0.0,0.0,0.0,0.0,4.5701,4.5415,4.5207,4.4708,0.0,0.0,0.0,0.0,0.0,4.492,4.492,4.4357,4.4062,4.4062,4.4062,4.3992,4.383,4.3995,4.3962,4.3896,4.4502,4.4737,4.4675,4.4007,4.3782,0.0,0.0,0.0,0.0,0.0,0.0,0.0,4.0261,4.0301,4.0585,4.1668,4.2163,4.2646,4.4113,4.5082,4.5936,4.7036,4.8417,4.9469,4.9494,4.9952,5.0443,5.0812,5.1551,5.221,5.2701,5.2841,5.2947,5.316,5.316,5.3266,5.3477,5.35,5.35,5.35,5.3384,5.3123,5.2681,5.2455,5.2165,5.1643,5.2078,5.2426,5.2623,5.3036,5.3384,5.35,5.35,5.3424,5.316,5.2894,5.2627,5.2275,5.2004,5.1841,5.1787,5.1787,5.1787,5.1787,5.1541,5.1266,5.0962,5.0655,5.0319,5.0066,5.001,5.001,5.0064,5.0525,5.0567,5.0466,0.0,0.0,0.0,0.0,0.0,0.0,0.0,0.0,0.0,0.0,0.0,0.0,0.0,0.0,0.0,0.0,0.0,0.0,0.0,0.0,4.5649,4.5089,4.5149,4.4886,0.0,0.0,0.0,0.0,0.0,4.4158,4.4158,4.3764,4.3598,4.3598,4.3598,4.3598,4.3598,4.3598,4.3598,4.3602,4.3753,4.3826,4.3762,4.3263,4.3009,4.2816,4.1944,0.0,0.0,0.0,0.0,0.0,0.0,0.0,4.002,4.0939,4.1489,4.2191,4.3978,4.4959,4.5878,4.7627,4.8946,4.9647,4.919,4.8959,4.8929,4.9422,5.0582,5.1583,5.1793,5.232,5.2734,5.2894,5.3001,5.316,5.3266,5.3424,5.35,5.35,5.35,5.3384,5.3065,5.3007,5.2891,5.2543,5.2833,5.3007,5.3007,5.3326,5.35,5.35,5.3372,5.3213,5.3107,5.268,5.2358,5.2167,5.195,5.1787,5.1787,5.1787,5.1732,5.1596,5.1321,5.0989,5.0711,5.0375,5.015,5.001,5.001,5.02,5.0471,5.0597,5.0793,5.1035,0.0,0.0,0.0,0.0,0.0,0.0,0.0,0.0,0.0,0.0,0.0,0.0,0.0,0.0,0.0,0.0,0.0,0.0,0.0,4.5935,4.5598,4.479,0.0,0.0,0.0,0.0,0.0,0.0,4.4026,4.3764,4.3764,4.3764,4.3863,4.3962,4.383,4.3764,4.3764,4.3631,4.3598,4.3568,4.3265,4.3143,4.3052,4.2586,4.2302,4.2077,4.1555,4.1122,4.0749,4.0261,0.0,0.0,0.0,0.0,3.9523,4.0217,4.0786,4.1654,4.3599,4.4945,4.6267,4.8327,4.9434,4.9795,4.8959,4.8179,4.7656,4.7871,4.942,5.071,5.0691,5.1516,5.2259,5.2313,5.2525,5.2766,5.2934,5.3145,5.3384,5.35,5.35,5.35,5.35,5.35,5.35,5.35,5.35,5.35,5.35,5.35,5.35,5.35,5.3213,5.3054,5.3001,5.2465,5.2167,5.2113,5.1896,5.1787,5.1787,5.1787,5.1651,5.1376,5.1017,5.0767,5.0431,5.015,5.001,5.001,5.001,5.0363,5.0848,5.0609,5.1041,5.1675,0.0,0.0,0.0,0.0,0.0,0.0,0.0,0.0,0.0,0.0,4.6214,4.5933,4.5185,4.5115,0.0,0.0,0.0,0.0,4.5256,0.0,0.0,4.4961,0.0,0.0,0.0,0.0,0.0,0.0,4.4291,4.4556,4.4556,4.4556,4.4887,4.5483,4.4821,4.4556,4.4489,4.3863,4.3598,4.3598,4.3449,4.3265,4.3082,4.2711,4.246,4.227,4.1753,4.1323,4.0987,4.0543,4.0121,0.0,0.0,0.0,3.9523,4.0217,4.0457,4.0965,4.2901,4.5633,4.7999,4.8427,4.9168,4.9473,4.8431,4.7773,4.7212,4.6826,4.7741,4.8797,4.9537,5.0051,5.0424,5.0687,5.0948,5.1408,5.2243,5.2561,5.2891,5.3442,5.35,5.35,5.35,5.35,5.35,5.35,5.35,5.35,5.35,5.35,5.35,5.35,5.3213,5.3001,5.2734,5.2411,5.2059,5.1841,5.1841,5.1787,5.1787,5.1787,5.1651,5.1376,5.1017,5.0767,5.0431,5.015,5.001,5.001,5.001,5.0363,5.0902,5.1125,5.1389,5.1755,0.0,0.0,0.0,0.0,0.0,0.0,0.0,0.0,0.0,0.0,0.0,4.5758,4.4553,4.4413,0.0,0.0,0.0,0.0,4.5045,4.5486,0.0,0.0,0.0,0.0,0.0,0.0,0.0,4.3598,4.4324,4.4887,4.5317,4.6146,4.6278,4.5781,4.545,4.5317,4.5251,4.4522,4.4224,4.4194,4.3951,4.3797,4.3737,4.3814,4.3751,4.3491,4.2747,4.2222,4.1721,4.0938,4.0331,3.9839,3.9732,0.0,0.0,0.0,4.0171,4.1129,4.3711,4.6293,4.8373,4.891,4.9297,4.9378,4.8696,4.8027,4.7442,4.7029,4.7353,4.792,4.8634,4.9445,5.0065,5.017,5.0536,5.0961,5.1351,5.2082,5.2688,5.2949,5.3297,5.35,5.35,5.35,5.35,5.35,5.35,5.35,5.35,5.35,5.35,5.35,5.3107,5.2841,5.268,5.2221,5.1896,5.1787,5.1787,5.1787,5.1787,5.1787,5.1568,5.11,5.0962,5.0628,5.0206,5.0066,5.001,5.001,5.001,5.0465,5.113,5.1046,5.1383,5.1901,0.0,0.0,0.0,0.0,0.0,0.0,0.0,0.0,0.0,0.0,0.0,0.0,4.4343,0.0,0.0,0.0,0.0,0.0,4.501,0.0,0.0,0.0,0.0,0.0,0.0,0.0,4.3868,4.3658,4.4354,4.5052,4.5814,4.7106,4.7239,4.6344,4.6344,4.6245,4.6013,4.5086,4.4787,4.4953,4.4447,4.4356,4.449,4.4691,4.4688,4.4392,4.3679,4.2992,4.2299,4.1492,4.0728,4.0086,3.991,3.9696,0.0,0.0,0.0,4.1717,4.4251,4.6465,4.8301,4.8957,4.9224,4.924,4.8902,4.8276,4.7679,4.7568,4.7545,4.7735,4.818,4.8966,4.9535,4.9587,5.0001,5.0395,5.064,5.1626,5.2397,5.2594,5.3123,5.35,5.35,5.35,5.35,5.35,5.35,5.35,5.35,5.35,5.35,5.35,5.3001,5.268,5.268,5.2113,5.1787,5.1787,5.1787,5.1787,5.1787,5.1732,5.1403,5.0906,5.0906,5.0572,5.001,5.001,5.001,5.001,4.9897,5.0455,5.1272,5.0857,5.13,5.1996,0.0,0.0,0.0,0.0,0.0,0.0,0.0,0.0,0.0,0.0,0.0,0.0,0.0,0.0,0.0,0.0,0.0,0.0,0.0,0.0,0.0,0.0,0.0,0.0,0.0,4.4293,4.401,4.3898,4.4447,4.5052,4.5814,4.6576,4.7305,4.7901,4.7901,4.7504,4.6742,4.5284,4.5086,4.5682,4.477,4.4746,4.521,4.4854,4.4623,4.4423,4.4086,4.3368,4.2564,4.2394,4.151,4.047,4.0266,4.0056,3.994,0.0,0.0,0.0,4.3617,4.5851,4.7966,4.8107,4.8618,4.9024,4.8661,4.8258,4.7941,4.8066,4.828,4.8459,4.8487,4.8342,4.8269,4.8544,4.8795,4.9295,5.0227,5.1114,5.1904,5.2484,5.3123,5.35,5.35,5.35,5.35,5.35,5.35,5.35,5.35,5.35,5.35,5.35,5.3001,5.268,5.268,5.2113,5.1787,5.1787,5.1787,5.1787,5.1787,5.1541,5.1211,5.0906,5.0906,5.0572,5.001,5.001,5.001,4.9953,4.9727,5.0282,5.1213,5.0618,5.1118,5.1996,0.0,0.0,0.0,0.0,0.0,0.0,0.0,0.0,0.0,0.0,0.0,0.0,0.0,4.4834,4.4343,4.357,0.0,0.0,0.0,0.0,0.0,0.0,0.0,0.0,0.0,4.4463,4.4126,4.3898,4.4447,4.4821,4.5119,4.6808,4.7504,4.7305,4.7802,4.7868,4.7537,4.6543,4.6245,4.6445,4.5894,4.5831,4.5996,4.5921,4.5911,4.5743,4.5085,4.4559,4.3971,4.2879,4.2066,4.1407,4.0628,4.0366,4.0366,4.0543,4.1469,4.2685,4.3588,4.5232,4.6906,4.7849,4.8271,4.8471,4.8538,4.8119,4.7817,4.7913,4.8055,4.8247,4.8674,4.871,4.866,4.8731,4.9009,4.9437,5.0219,5.1056,5.1846,5.2484,5.3123,5.35,5.35,5.35,5.35,5.35,5.35,5.35,5.35,5.35,5.35,5.35,5.316,5.2787,5.2411,5.2004,5.1787,5.1787,5.1787,5.1677,5.1541,5.1431,5.11,5.0655,5.0655,5.0431,5.001,4.9783,4.9727,4.9781,4.9814,5.0223,5.0731,5.0862,5.125,5.1659,0.0,0.0,0.0,0.0,0.0,0.0,0.0,0.0,0.0,0.0,0.0,0.0,0.0,0.0,4.4764,4.3957,4.4624,0.0,0.0,0.0,0.0,0.0,0.0,0.0,4.5123,4.4631,4.4241,4.3985,4.4212,4.4456,4.4721,4.6212,4.6742,4.6543,4.704,4.7404,4.757,4.6841,4.6676,4.6842,4.6257,4.6454,4.7075,4.6915,4.7027,4.712,4.6131,4.5571,4.5084,4.3772,4.2997,4.2441,4.1376,4.0866,4.0814,4.1254,4.1994,4.2827,4.354,4.4947,4.6366,4.7126,4.7685,4.8042,4.806,4.7842,4.7701,4.7817,4.8037,4.8296,4.8755,4.9014,4.9128,4.9058,4.9157,4.9585,5.0319,5.1106,5.1846,5.2484,5.3123,5.35,5.35,5.35,5.35,5.35,5.35,5.35,5.35,5.35,5.3477,5.3372,5.3107,5.2734,5.2221,5.195,5.1787,5.1787,5.1677,5.1596,5.1404,5.1183,5.0906,5.0515,5.0375,5.0206,4.9953,4.9727,4.9613,4.9637,4.9738,5.0055,5.0458,5.0917,5.1188,5.1346,0.0,0.0,0.0,0.0,0.0,0.0,0.0,0.0,0.0,4.6214,0.0,0.0,0.0,0.0,0.0,4.4027,4.4694,4.515,4.515,0.0,0.0,0.0,0.0,0.0,4.5415,4.479,4.435,4.4097,4.3776,4.3992,4.4655,4.4718,4.5052,4.5748,4.5781,4.6179,4.6775,4.6113,4.6245,4.6809,4.5797,4.6618,4.8415,4.7677,4.7837,4.8344,4.7236,4.6424,4.576,4.5033,4.4306,4.3576,4.2473,4.165,4.1189,4.1719,4.2491,4.3231,0.0,0.0,0.0,4.5837,4.6747,4.7711,4.7284,4.7333,4.7519,4.7701,4.8246,4.8663,4.8663,4.9233,4.962,4.9355,4.9334,4.9663,5.0627,5.1236,5.1875,5.2565,5.3123,5.35,5.35,5.35,5.35,5.35,5.35,5.35,5.35,5.35,5.3372,5.3107,5.2841,5.2573,5.2221,5.195,5.1787,5.1787,5.1541,5.1376,5.1404,5.0794,5.0487,5.0459,5.015,5.001,4.9953,4.967,4.9583,4.9606,4.9531,4.9877,5.0424,5.0725,5.0966,5.1057,0.0,0.0,0.0,0.0,0.0,0.0,4.6214,4.6214,4.6214,0.0,0.0,0.0,4.6214,4.6003,4.5793,4.5582,4.5758,4.5898,4.5898,4.6074,0.0,0.0,4.5854,4.552,4.5257,4.4659,4.4207,4.3956,4.3717,4.3698,4.3926,4.4456,4.4787,4.5019,4.5549,4.5616,4.5351,4.6212,4.6645,4.6715,4.6848,4.7468,4.8209,4.7641,4.7837,4.8408,4.7807,4.7466,4.7214,4.6487,4.576,4.4871,4.3097,4.1954,4.1323,4.1752,4.2074,4.2267,4.2462,0.0,0.0,0.0,0.0,0.0,4.6473,4.628,4.6314,4.6974,4.7608,4.8188,4.8653,4.9233,4.9669,4.9571,4.9977,5.0577,5.1265,5.1904,5.2543,5.3181,5.3413,5.35,5.35,5.35,5.35,5.35,5.35,5.35,5.35,5.35,5.3477,5.3372,5.2947,5.268,5.2573,5.2059,5.1787,5.1787,5.1541,5.1266,5.1017,5.0655,5.0375,5.0123,5.001,5.001,4.9953,4.9469,4.948,4.9849,4.9844,5.0149,5.0752,5.124,5.1242,5.1057,0.0,0.0,0.0,0.0,0.0,4.6214,4.6214,4.6214,4.6214,0.0,0.0,0.0,4.6214,4.6214,4.6214,4.6214,4.6214,4.6214,4.6214,4.6214,4.6189,4.614,4.5778,4.5468,4.5123,4.4575,4.4184,4.3898,4.3687,4.3598,4.3598,4.4059,4.4257,4.4257,4.4688,4.4655,4.4324,4.5421,4.5988,4.619,4.6716,4.7628,4.8627,4.8377,4.8733,4.9271,4.8568,4.832,4.8193,4.7498,4.6613,4.5602,4.4545,4.3108,4.1929,4.2446,4.2351,4.2127,4.2512,4.3434,4.4281,4.4158,0.0,0.0,4.5316,4.5395,4.5581,4.5911,4.6737,4.7579,4.8217,4.8856,4.9349,4.964,5.0452,5.1207,5.1556,5.2165,5.2804,5.3442,5.35,5.35,5.35,5.35,5.35,5.35,5.35,5.35,5.35,5.35,5.35,5.35,5.3107,5.2787,5.268,5.2221,5.1841,5.1651,5.1321,5.1045,5.0711,5.0431,5.0206,5.001,4.9897,4.984,4.9783,4.9183,4.9356,4.9999,4.9902,5.0263,5.0864,5.1387,5.1283,5.0867,0.0,0.0,4.6214,4.6214,4.6284,4.6319,4.6319,4.6389,4.646,0.0,4.646,4.646,4.646,4.6389,4.6319,4.6319,4.6249,4.6214,4.6214,4.6214,4.6165,4.6015,4.5727,4.5389,4.4995,4.4519,4.4155,4.3868,4.3687,4.3598,4.3598,4.3598,4.3598,4.3598,4.3598,4.3598,4.3631,4.4141,4.4774,4.5532,4.5995,4.7391,4.9271,4.9395,4.9911,5.0416,4.9392,4.9015,4.8889,4.8225,4.7087,4.5918,4.6116,4.4545,4.2716,4.3312,4.2921,4.2438,4.2997,4.372,4.4179,4.3815,4.4365,0.0,4.4154,4.4533,4.504,4.4894,4.5866,4.6911,4.755,4.8188,4.8827,4.9465,5.0598,5.1468,5.1585,5.2223,5.2891,5.3442,5.35,5.35,5.35,5.35,5.35,5.35,5.35,5.35,5.35,5.35,5.35,5.35,5.3213,5.2947,5.268,5.2358,5.1924,5.1404,5.1072,5.0767,5.0515,5.015,5.001,5.001,4.9727,4.9613,4.9556,4.8952,4.9234,5.002,4.9928,5.0289,5.0943,5.1413,5.122,5.0652,0.0,4.6214,4.6214,4.6214,4.6765,4.7151,4.7151,4.7678,4.8039,4.8039,4.8039,4.8039,4.8039,4.7538,4.7151,4.7151,4.6565,0.0,0.0,0.0,4.6165,4.6015,4.5649,4.523,4.4763,4.435,4.3981,4.3658,4.3628,4.3598,4.3598,4.3598,4.3598,4.3598,4.3598,4.3598,4.3598,4.346,4.4127,4.5439,4.6349,4.7567,4.884,4.917,4.9719,5.0285,4.9852,4.971,4.9615,4.892,4.7637,4.6296,4.5835,4.4324,4.2749,4.2726,4.2484,4.2241,4.2364,4.2922,4.3376,4.3114,4.3494,0.0,4.3708,4.3701,4.3916,4.472,4.5518,4.6272,4.6911,4.755,4.8188,4.8798,4.9553,5.0423,5.1468,5.2601,5.3384,5.35,5.35,5.35,5.35,5.35,5.35,5.35,5.35,5.35,5.35,5.35,5.35,5.35,5.3054,5.2734,5.268,5.2167,5.1706,5.1404,5.1072,5.0767,5.0515,5.015,5.001,5.001,4.9727,4.9613,4.9556,4.8952,4.9356,5.0307,5.0026,5.0524,5.1465,5.157,5.1346,5.0994,4.6214,4.6214,4.6214,4.6214,4.6871,4.7397,4.7397,4.8029,4.8495,4.8495,4.8495,4.8495,4.8495,4.817,4.7959,4.7959,4.7583,0.0,0.0,4.68,4.6525,4.5914,4.5572,4.5177,4.4597,4.4265,4.3952,4.3598,4.3598,4.3598,4.3598,4.3598,4.3598,4.3598,4.3598,4.3568,4.3479,4.3204,4.3902,4.5212,4.5953,4.7232,4.873,4.9062,4.9642,5.0246,5.001,4.9892,4.9829,4.9403,4.8388,4.7285,4.6826,4.5387,4.3876,4.4021,4.3559,4.3106,4.3476,4.3807,4.4048,4.3928,4.3768,0.0,0.0,4.3286,4.3293,4.3848,4.4472,4.5227,4.6185,4.6621,4.7143,4.8101,4.9059,4.9901,5.0569,5.202,5.3036,5.3036,5.3326,5.3384,5.3065,5.3036,5.3036,5.3036,5.3326,5.35,5.35,5.35,5.35,5.35,5.3107,5.2841,5.268,5.2221,5.1677,5.1155,5.0962,5.0683,5.0263,5.0066,4.9953,4.9783,4.9442,4.9297,4.9125,4.8663,4.9114,5.0138,4.9958,5.0603,5.1596,5.1596,5.1408,5.1057,4.6214,4.6214,4.6214,4.6214,4.6976,4.7608,4.7608,4.838,4.8986,4.9162,4.9162,4.9232,4.9398,4.9267,4.9162,4.9162,4.8881,4.8486,4.7854,4.7538,4.699,4.6082,4.5615,4.5123,4.4519,4.4241,4.3952,4.3598,4.3598,4.3598,4.3598,4.3598,4.3664,4.3797,4.3767,4.3773,4.3784,4.357,4.4135,4.5179,4.5429,4.6805,4.8694,4.8986,4.9603,5.0168,4.9971,4.9892,4.9812,4.9613,4.8863,4.7991,4.775,4.6437,4.4981,4.532,4.4739,4.411,4.4613,4.4761,4.4731,4.4613,4.4044,4.3466,0.0,0.0,0.0,4.2963,4.3427,4.4182,4.5459,4.5692,4.6098,4.7404,4.8449,4.9204,4.9465,5.0946,5.2107,5.2368,5.2833,5.2949,5.2426,5.2397,5.2397,5.2397,5.2978,5.3326,5.3326,5.339,5.3424,5.3424,5.3107,5.2841,5.2627,5.225,5.1677,5.0906,5.085,5.0516,5.001,5.001,4.984,4.9556,4.924,4.8952,4.869,4.842,4.8956,4.9897,4.9958,5.0725,5.1721,5.1721,5.1534,5.1246,4.6214,4.6214,4.6214,4.6214,4.7407,4.8355,4.8355,4.9679,5.0873,5.154,5.1583,5.1891,5.2593,5.2032,5.1583,5.1583,5.0346,4.953,4.946,4.8135,4.7261,4.6873,4.5927,4.5123,4.4519,4.4241,4.3952,4.3598,4.3598,4.3598,4.3598,4.3598,4.3959,4.4556,4.4372,4.4642,4.5235,4.4917,4.5146,4.5693,4.5449,4.6593,4.8472,4.8828,4.937,4.9931,4.9931,4.9812,4.9613,4.9381,4.8459,4.7375,4.7098,4.6045,4.4882,4.4773,4.449,4.4248,4.4379,4.4379,4.4219,4.3634,4.3387,4.314,4.2407,0.0,4.2353,4.2876,0.0,4.3485,4.4763,0.0,0.0,4.6737,4.701,4.7503,4.8682,4.9524,5.0481,5.1585,5.1788,5.1817,5.173,5.173,5.173,5.173,5.231,5.2688,5.2688,5.2948,5.316,5.316,5.2627,5.2275,5.2221,5.176,5.1266,5.0906,5.0655,5.0375,5.001,5.001,4.984,4.9556,4.924,4.8952,4.8716,4.895,4.9348,4.9958,5.0199,5.1031,5.2059,5.2059,5.1996,5.1872,4.6214,4.6214,4.6214,4.6214,4.7477,4.8495,4.8556,5.0241,5.1645,5.1934,5.2418,5.2804,5.3183,5.2874,5.2699,5.2699,5.2102,5.1357,5.0452,4.967,4.874,4.7576,4.6404,4.5582,4.5014,4.4327,4.3835,4.3598,4.3598,4.3598,4.3598,4.3598,4.3902,4.4504,4.4443,4.4682,4.5178,4.5082,4.5275,4.5685,4.583,4.6801,4.8216,4.8308,4.8983,4.9892,4.9892,4.9773,4.9573,4.921,4.8461,4.7593,4.7244,4.6437,4.5624,4.558,4.5361,4.5215,4.5215,4.5215,4.504,4.4399,4.3963,4.3526,4.2802,4.2615,4.2673,4.2934,0.0,0.0,0.0,0.0,0.0,0.0,4.6592,4.6981,4.7503,4.8188,4.9204,5.0888,5.141,5.1468,5.1091,5.1062,5.1062,5.1062,5.1672,5.2114,5.2284,5.2439,5.2627,5.2841,5.2465,5.2283,5.2486,5.2128,5.1877,5.1699,5.1585,5.1356,5.1041,5.0688,5.0381,5.0094,4.9603,4.9125,4.8716,4.9356,4.9877,5.0311,5.1196,5.1774,5.2121,5.2306,5.2306,5.1996,4.6214,4.6214,4.6214,4.6214,4.7477,4.8705,4.9434,5.0943,5.2172,5.2593,5.3331,5.3892,5.4103,5.4343,5.4454,5.4454,5.4004,5.3274,5.2096,5.1256,5.0063,4.8383,4.7255,4.6345,4.5677,4.4679,4.4075,4.3926,4.3698,4.3598,4.3598,4.3598,4.3971,4.4708,4.4646,4.5047,4.5797,4.5763,4.5948,4.6311,4.6646,4.7426,4.8352,4.8421,4.9047,4.9892,4.9892,4.9733,4.9452,4.9006,4.8427,4.7722,4.7236,4.6668,4.6225,4.6135,4.6001,4.5895,4.5895,4.5895,4.5692,4.485,4.4298,4.3776,4.2934,4.2876,4.2992,4.2992,4.3515,0.0,0.0,0.0,4.5111,4.5779,0.0,4.6621,4.6749,4.723,4.8188,4.993,5.0714,5.0917,5.0452,5.0444,5.0444,5.0444,5.1004,5.1454,5.158,5.1851,5.2043,5.2181,5.2056,5.2066,5.2212,5.1933,5.1818,5.1801,5.1908,5.1816,5.1557,5.1285,5.0895,5.047,5.0013,4.9431,4.889,4.9866,5.0366,5.0638,5.2011,5.2425,5.243,5.2677,5.2553,5.2121,4.6214,4.6214,4.6214,4.6214,4.7477,4.9267,5.1513,5.1934,5.2558,5.4033,5.4946,5.5718,5.642,5.7193,5.7649,5.7649,5.6094,5.5034,5.4883,5.2617,5.07,4.9402,4.8507,4.7462,4.6304,4.5357,4.4806,4.4655,4.3959,4.3598,4.3598,4.3598,4.4268,4.5464,4.5339,4.6223,4.7796,4.7652,4.7782,4.8014,4.8046,4.8377,4.892,4.9615,4.9829,4.9892,4.9892,4.9653,4.925,4.8769,4.8175,4.7495,4.68,4.6447,4.618,4.5956,4.594,4.5895,4.5895,4.5895,4.5576,4.4327,4.4008,4.366,4.2411,4.2586,4.2992,4.2992,4.3515,4.4182,4.4763,4.4879,0.0,0.0,4.5895,0.0,0.0,4.6807,4.73,4.8576,4.9349,4.9727,4.9698,4.9698,4.9698,4.9698,5.0336,5.0614,5.0364,5.1236,5.1474,5.0941,5.1234,5.1266,5.0989,5.0683,5.0542,5.0569,5.0833,5.0932,5.0932,5.1529,5.1327,5.0497,5.047,4.9948,4.9147,5.0351,5.0916,5.1023,5.25,5.3044,5.3071,5.3071,5.2861,5.2404,4.7723,4.7723,4.7547,4.7081,4.7854,4.9267,5.1618,5.3331,5.4524,5.5051,5.6245,5.7122,5.7368,5.7649,5.7728,5.7635,5.6924,5.5973,5.4686,5.361,5.2301,5.06,4.9603,4.8612,4.7558,4.6668,4.5976,4.5417,4.5185,4.4759,4.4205,4.4205,4.4315,4.4524,4.4918,4.5828,4.7071,4.7484,4.7842,4.8141,4.8504,4.899,4.9615,4.9837,4.9892,4.9892,4.9892,4.9733,4.9452,4.9006,4.8385,4.7679,4.7019,4.6535,4.618,4.5956,4.5895,4.5895,4.5895,4.5895,4.5663,4.4792,4.4298,4.3892,4.3456,4.3515,4.3776,4.4153,4.5111,4.5808,4.5605,4.5895,0.0,0.0,0.0,4.5953,0.0,4.6563,4.6952,4.7387,4.8391,4.9204,4.964,4.9717,4.9717,4.9717,4.9872,4.9994,4.9975,5.0703,5.0942,5.0591,5.1124,5.135,5.1232,5.1146,5.1167,5.1347,5.1421,5.1719,5.2099,5.1909,5.1661,5.1327,5.0922,5.0451,5.0139,5.1094,5.1632,5.1943,5.2991,5.341,5.341,5.341,5.2922,5.2059,4.8495,4.8495,4.8355,4.7889,4.8661,5.0066,5.2102,5.4173,5.5613,5.5859,5.7263,5.8246,5.8246,5.8394,5.844,5.8282,5.7746,5.6833,5.5442,5.487,5.3618,5.1598,5.0894,4.9959,4.8762,4.7638,4.6847,4.6385,4.5857,4.5199,4.4414,4.4414,4.4258,4.4007,4.4626,4.5627,4.6924,4.7558,4.8169,4.8758,4.9039,4.9363,4.9693,4.9613,4.9733,4.9892,4.9892,4.9773,4.9573,4.921,4.8676,4.803,4.7379,4.6814,4.6403,4.609,4.5985,4.5895,4.5895,4.5895,4.5721,4.5053,4.4589,4.424,4.4037,4.4153,4.4414,4.4821,4.575,4.6359,4.5953,4.6214,4.6359,0.0,0.0,0.0,0.0,4.6243,4.6592,4.6749,4.7909,4.8798,4.8972,4.9407,4.9582,4.9349,4.9553,4.9647,4.9481,5.0109,5.0271,4.9933,5.0572,5.0906,5.0892,5.0892,5.0969,5.1177,5.1394,5.1828,5.2398,5.2235,5.2154,5.2099,5.1502,5.1007,5.0698,5.1467,5.1927,5.2242,5.3233,5.3592,5.3592,5.347,5.2615,5.1372,4.8705,4.8705,4.8741,4.8776,5.0066,5.1575,5.3078,5.463,5.5894,5.6631,5.8105,5.9092,5.9092,5.9564,5.982,5.9621,5.8595,5.7707,5.7083,5.6227,5.4722,5.2473,5.2371,5.1531,4.9728,4.8319,4.7533,4.7435,4.6127,4.5046,4.4292,4.4228,4.4134,4.404,4.4464,4.5683,4.7417,4.7898,4.8789,4.9892,4.9693,4.9493,4.925,4.9037,4.9291,4.9852,4.9852,4.9741,4.9573,4.9381,4.9015,4.8521,4.7849,4.7292,4.6814,4.6358,4.6046,4.5895,4.5895,4.5895,4.5721,4.5082,4.4908,4.4734,4.4211,4.4501,4.4908,4.4937,4.5459,4.5924,4.5895,4.5895,4.5924,0.0,0.0,0.0,4.5895,4.5895,4.6098,4.6662,4.7822,4.8391,4.784,4.8933,4.9349,4.8769,4.9291,4.9395,4.8959,4.943,4.9545,4.9137,4.9691,5.0023,5.001,5.001,5.001,5.001,5.058,5.1177,5.1801,5.2398,5.2669,5.2642,5.2072,5.1502,5.0987,5.1584,5.1796,5.1991,5.3158,5.3592,5.3531,5.3166,5.1996,5.0461,5.1997,5.1997,5.2172,5.2734,5.3155,5.3752,5.477,5.621,5.7509,5.8281,5.9593,6.0473,6.0473,6.0838,6.0774,6.0117,5.9352,5.8309,5.6761,5.6017,5.504,5.3775,5.3555,5.2786,5.1201,5.0808,4.9826,4.8223,4.7863,4.6977,4.5604,4.4952,4.4529,4.4365,4.4327,4.5371,4.723,4.7861,4.8713,4.9693,4.9493,4.9138,4.8728,4.8552,4.8593,4.88,4.9291,4.9533,4.9582,4.9573,4.934,4.8975,4.8072,4.7521,4.7003,4.6373,4.6046,4.5895,4.5895,4.5895,4.5837,4.5663,4.5256,4.4966,4.5314,4.514,4.5024,4.5518,4.6156,4.6446,4.5982,4.6272,4.6417,4.5953,4.5895,4.5895,4.5895,4.5895,4.5953,4.6098,4.6824,4.7433,4.7753,4.8119,4.8391,4.8663,4.8663,4.8738,4.8881,4.9279,4.939,4.9137,4.9691,5.0023,5.001,5.001,5.001,5.001,5.0173,5.0553,5.115,5.1774,5.2045,5.2045,5.1909,5.1747,5.1611,5.1774,5.2072,5.2561,5.3293,5.347,5.3105,5.2306,5.1534,5.0778,5.3218,5.3717,5.4419,5.5191,5.5518,5.5769,5.5934,5.7517,5.8857,5.9278,6.0449,6.1221,6.1221,6.1259,6.1045,6.0454,5.995,5.8961,5.7297,5.6816,5.593,5.4486,5.4222,5.3584,5.2443,5.168,5.0611,4.9222,4.8464,4.7355,4.5857,4.5301,4.4778,4.4388,4.4473,4.5515,4.7151,4.8377,4.9126,4.9421,4.9097,4.8646,0.0,4.7807,4.7679,4.7722,4.8198,4.8811,4.9331,4.9452,4.9412,4.9178,4.8563,4.7988,4.7392,4.6682,4.6269,4.6001,4.594,4.5895,4.5895,4.5895,4.5605,4.543,4.5808,4.5605,4.543,4.5808,4.6156,4.6301,4.5953,4.6185,4.6301,4.5953,4.5895,4.5895,4.5895,4.5895,4.5895,4.5895,4.6214,4.6563,4.6911,4.7462,4.788,4.8114,4.823,4.8419,4.8703,4.8821,4.8789,4.8696,4.9196,4.9392,4.9462,4.9818,4.9953,4.984,4.9953,5.0335,5.0905,5.1529,5.1964,5.2208,5.1936,5.1769,5.1769,5.1769,5.2018,5.2366,5.3085,5.3227,5.2922,5.181,5.1157,5.0652,5.3816,5.4875,5.6004,5.6741,5.7359,5.758,5.7079,5.8526,5.972,5.9929,6.0843,6.1499,6.1499,6.1279,6.1021,6.0771,6.0359,5.9559,5.8286,5.7978,5.6955,5.5049,5.4745,5.4228,5.3348,5.1869,5.0735,5.0154,4.8582,4.7126,4.5808,4.5442,4.4987,4.4473,4.4811,4.5822,4.7305,4.9078,4.9653,4.921,4.881,4.8225,4.7585,4.7227,4.7037,4.7081,4.7271,4.797,4.8883,4.9128,4.925,4.9291,4.9037,4.851,4.7819,4.7119,4.658,4.618,4.5956,4.5895,4.5895,4.5895,4.5895,4.5895,4.5895,4.5895,4.5895,4.5895,4.5895,4.5895,4.5895,4.5895,4.5895,4.5895,4.5895,4.5895,4.5895,4.5895,4.5895,4.5895,4.5895,0.0,4.5895,4.6882,4.7514,4.7405,4.7846,4.8236,4.8503,4.8229,4.8103,4.8172,4.8377,4.8545,4.8613,4.9349,4.9646,4.9442,4.9727,5.0167,5.0682,5.1327,5.1895,5.2333,5.1841,5.1657,5.1661,5.1742,5.1878,5.2036,5.2789,5.301,5.2799,5.1497,5.0778,5.0334,5.6982,5.7228,5.7588,5.8234,5.8776,5.914,5.9185,5.9116,5.9461,6.0527,6.1197,6.1484,6.1484,6.1685,6.1553,6.0941,6.0357,5.9657,5.8847,5.8216,5.7371,5.6237,5.5988,5.5168,5.3655,5.2813,5.1756,5.041,4.9032,4.7942,4.7041,4.5681,4.5288,4.5734,4.508,4.5859,4.7852,4.9143,4.9412,4.9027,4.8882,4.8451,4.7852,4.7845,4.7867,4.7867,4.7913,4.8015,4.8187,4.8563,4.8975,4.925,4.8769,4.8469,4.8061,4.7163,4.658,4.618,4.5956,4.5895,4.5895,4.5895,4.5895,4.5895,4.5895,4.5895,4.5895,4.5895,4.5895,4.5895,4.5895,4.5895,4.5895,4.5895,4.5895,4.5895,4.5895,4.5895,4.5895,4.5895,4.5895,4.5895,4.5895,4.6098,4.6558,4.7347,4.7282,4.7584,4.8424,4.8055,4.7874,4.8172,4.7752,4.7785,4.8249,4.8213,4.8391,4.8811,4.9072,4.9324,4.9427,5.0495,5.0789,5.05,5.0815,5.0885,5.0802,5.1521,5.222,5.2836,5.2719,5.2553,5.2121,5.0778,5.027,5.0014,5.8913,5.9334,5.9797,6.0371,6.0423,6.0565,6.1087,6.0465,6.0309,6.1215,6.2054,6.2388,6.2018,6.2044,6.174,6.1005,6.0605,6.0018,5.9169,5.8563,5.7816,5.6925,5.6199,5.5517,5.4813,5.3665,5.242,5.1062,4.9579,4.8297,4.7244,4.5977,4.5619,4.5968,4.6239,4.6929,4.8004,4.9504,4.9821,4.9304,4.9296,4.8865,4.822,4.8009,4.794,4.794,4.794,4.8038,4.8311,4.9009,4.9651,5.0144,4.9934,4.9682,4.931,4.8355,4.7762,4.7222,4.6538,4.6388,4.6301,4.5982,4.5895,4.5895,4.5895,4.5895,4.5895,4.5895,4.5895,4.5895,4.5895,4.6156,4.6388,4.6388,4.665,4.6882,4.6882,4.6592,4.6388,4.6388,4.6098,4.5895,4.5895,4.5895,4.6326,4.7347,4.7148,4.7421,4.8474,4.7852,4.7477,4.7521,4.7107,4.6782,4.6593,4.7053,4.7299,4.747,4.8073,4.8621,4.908,4.9923,5.0161,4.9983,5.0545,5.0596,5.0291,5.1147,5.1868,5.2311,5.1989,5.1622,5.1157,5.0014,4.9436,4.9152,6.0458,6.109,6.1656,6.1982,6.1848,6.1826,6.2227,6.184,6.1616,6.1914,6.2698,6.2908,6.2179,6.2028,6.1679,6.0961,6.0717,6.0233,5.9432,5.9015,5.8302,5.7323,5.6431,5.5855,5.5665,5.4253,5.2949,5.1678,5.0119,4.8707,4.7469,4.6624,4.6266,4.6297,4.7561,4.8193,4.8408,4.9936,5.0258,4.9812,4.9775,4.9328,4.8685,4.8319,4.8188,4.8188,4.8188,4.8518,4.9077,4.987,5.0533,5.0894,5.0925,5.0796,5.0419,4.9494,4.8862,4.8269,4.7265,4.7027,4.6882,4.6243,4.6098,4.604,4.5924,4.5895,4.5895,4.5895,4.5895,4.5895,4.5895,4.6388,4.6778,4.6778,4.7375,4.7782,4.7782,4.7346,4.6923,4.6807,4.6388,4.604,4.5895,4.585,4.628,4.7347,4.7148,4.7421,4.8374,4.7699,4.7184,4.6901,4.6491,4.5838,4.5004,4.5897,4.6232,4.6127,4.7008,4.781,4.8643,4.9274,4.9577,4.9533,5.0266,5.0419,5.0264,5.0896,5.1335,5.152,5.1007,5.0612,5.027,4.9267,4.8657,4.833,6.2143,6.2248,6.2219,6.1951,6.2679,6.2912,6.1843,6.2794,6.3331,6.2541,6.2353,6.1979,6.1294,6.1415,6.1283,6.0529,6.0249,6.0033,5.9707,5.9411,5.8735,5.7618,5.7433,5.6709,5.5189,5.443,5.3355,5.1963,5.054,4.9465,4.8706,4.8004,4.7688,4.7751,4.8478,4.9141,4.9734,5.015,5.0412,5.0475,5.0216,4.9875,4.9392,4.9455,4.9494,4.9494,4.9494,4.9863,5.0419,5.0909,5.0894,5.0636,5.071,5.0667,5.0419,4.9494,4.8862,4.8358,4.7835,4.7695,4.755,4.6911,4.6691,4.6592,4.6011,4.5895,4.5895,4.5895,4.5895,4.5895,4.5895,4.6388,4.6778,4.6778,4.7375,4.7782,4.7782,4.7724,4.7462,4.6865,4.672,4.6505,4.5924,4.5685,4.6051,4.73,4.7148,4.7352,4.81,4.7596,4.7184,4.6901,4.5875,4.5116,4.475,4.4795,4.4945,4.5126,4.5999,4.6758,4.7338,4.8176,4.8432,4.8274,4.9421,5.0214,5.079,5.064,5.0842,5.1162,5.0204,4.9748,4.959,4.8486,4.8092,4.8026,6.3517,6.3973,6.4358,6.442,6.4493,6.4318,6.3709,6.3529,6.3336,6.2945,6.2977,6.2571,6.1472,6.1536,6.117,5.9869,5.9684,5.9508,5.9318,5.9017,5.8664,5.8228,5.768,5.7069,5.6365,5.5304,5.4229,5.325,5.1859,5.0816,5.0161,4.9015,4.8478,4.8509,4.9205,4.99,5.0587,5.1268,5.1394,5.1181,5.0909,5.0513,5.007,4.9776,4.9717,4.9717,4.9717,5.0038,5.0596,5.1041,5.1486,5.1867,5.1898,5.1867,5.1659,5.0697,5.005,4.9475,4.8592,4.8333,4.8188,4.755,4.7114,4.672,4.6505,4.6156,4.5895,4.5895,4.5895,4.5895,4.5895,4.6708,4.7404,4.7404,4.8246,4.8914,4.8914,4.8595,4.813,4.7491,4.7056,4.6592,4.5953,4.564,4.5786,4.6565,4.6728,4.7226,4.8274,4.7699,4.7029,4.6403,4.5261,4.4226,4.34,4.3614,4.3806,4.3944,4.4949,4.5958,4.6985,4.7196,4.7795,4.8651,4.914,4.9774,5.0333,5.0251,5.0094,4.9801,4.8978,4.8586,4.8382,4.754,4.743,4.7696,6.4987,6.5547,6.5962,6.6003,6.571,6.5345,6.489,6.4111,6.3469,6.3228,6.3325,6.2892,6.1705,6.1777,6.1244,5.9614,5.9518,5.9332,5.8914,5.8701,5.8564,5.8518,5.7892,5.7421,5.7231,5.6252,5.5209,5.4103,5.3092,5.2175,5.1259,5.0279,4.9805,4.9837,5.0311,5.0943,5.167,5.2186,5.2324,5.2164,5.1693,5.1316,5.1012,5.0446,5.0249,5.022,5.0046,5.033,5.0833,5.1101,5.1849,5.2712,5.2788,5.2788,5.2532,5.1572,5.0947,5.0287,4.9291,4.9001,4.8856,4.8217,4.7724,4.7242,4.6865,4.6475,4.6098,4.5924,4.5895,4.5895,4.5895,4.6911,4.7782,4.7782,4.8856,4.9717,4.9717,4.9291,4.8711,4.7869,4.7375,4.6749,4.5863,4.5549,4.5534,4.5959,4.6081,4.6679,4.7919,4.7485,4.6769,4.5901,4.4858,4.3713,4.2513,4.2993,4.3176,4.3117,4.4292,4.5473,4.6494,4.6848,4.7774,4.9127,4.9223,4.9556,4.998,4.9725,4.9291,4.8763,4.7901,4.7568,4.7482,4.6899,4.704,4.7497,6.6737,6.67,6.6518,6.5921,6.6078,6.5909,6.4777,6.4404,6.4035,6.3325,6.2954,6.2521,6.1774,6.1966,6.1532,6.011,5.9982,5.9603,5.8642,5.861,5.8518,5.8321,5.8321,5.7927,5.7231,5.72,5.6189,5.4103,5.4071,5.3376,5.1986,5.1986,5.1954,5.1954,5.1986,5.2396,5.305,5.2582,5.2883,5.3591,5.2614,5.2237,5.2317,5.1787,5.1585,5.1527,5.0888,5.0973,5.1345,5.125,5.1849,5.2757,5.3011,5.2922,5.2532,5.1803,5.1088,5.0405,4.9815,4.9717,4.9524,4.8885,4.8663,4.8362,4.7068,4.6778,4.665,4.6011,4.5895,4.5895,4.5895,4.6911,4.7782,4.7782,4.8856,4.9717,4.9717,4.9717,4.9204,4.7927,4.7782,4.7166,4.5664,4.5276,4.5256,4.5676,4.5284,4.5525,4.6751,4.6881,4.6508,4.5662,4.4776,4.3713,4.2513,4.2993,4.3057,4.2843,4.4371,4.5266,4.5643,4.7262,4.8532,4.9508,4.9538,4.9727,4.9953,4.8983,4.8571,4.8352,4.7129,4.6869,4.7159,4.6834,4.704,4.7497,6.725,6.7206,6.7153,6.7173,6.6888,6.6281,6.5259,6.4473,6.3947,6.3704,6.3027,6.2608,6.2861,6.2427,6.163,6.0595,6.0039,5.9596,5.911,5.8666,5.8367,5.8321,5.8321,5.818,5.7958,5.7453,5.6884,5.622,5.5746,5.5051,5.4092,5.4092,5.4092,5.4092,5.4092,5.4415,5.4914,5.4456,5.4083,5.3753,5.2972,5.2408,5.2117,5.1715,5.1614,5.1585,5.1381,5.1675,5.2112,5.2248,5.2976,5.3821,5.3898,5.3346,5.2532,5.1572,5.0947,5.0405,4.9844,4.9717,4.964,4.9436,4.9059,4.8576,4.817,4.7416,4.665,4.6011,4.5895,4.6011,4.6446,4.723,4.7927,4.8362,4.9117,4.962,4.9453,4.9453,4.8864,4.7425,4.7091,4.6462,4.5143,4.463,4.434,4.4272,4.4208,4.4958,4.6701,4.6264,4.576,4.5288,4.4206,4.3417,4.2741,4.2895,4.3048,4.3289,4.4539,4.5619,4.6563,4.7809,4.8681,4.9249,4.9694,4.9897,4.9953,4.8983,4.8335,4.7844,4.6552,4.6302,4.6624,4.6303,4.6728,4.7497,6.7863,6.7738,6.7605,6.7535,6.7225,6.6628,6.5622,6.4933,6.4513,6.4307,6.3639,6.3299,6.3457,6.2964,6.2188,6.1043,6.0598,6.017,5.9696,5.9033,5.8654,5.8654,5.8401,5.8321,5.8321,5.7832,5.7484,5.7231,5.6536,5.5967,5.5525,5.5525,5.5525,5.5525,5.5393,5.548,5.5618,5.5055,5.4524,5.4068,5.3287,5.2889,5.2668,5.2442,5.2339,5.231,5.2049,5.2318,5.2791,5.2773,5.3417,5.4104,5.404,5.3556,5.2825,5.1837,5.1238,5.0699,4.9902,4.9717,4.9717,4.9717,4.9378,4.903,4.8769,4.7927,4.6998,4.6388,4.6152,4.6223,4.6553,4.7113,4.7701,4.8307,4.8971,4.9305,4.9058,4.8808,4.8166,4.6724,4.6192,4.5464,4.4171,4.3757,4.3423,4.3012,4.3003,4.376,4.5458,4.5218,4.4917,4.4615,4.3713,4.3044,4.2723,4.2791,4.3024,4.3529,4.4667,4.5896,4.7212,4.8,4.8746,4.9328,4.9783,5.001,4.9897,4.8868,4.8114,4.7383,4.6095,4.587,4.619,4.5998,4.6583,4.7497,6.8474,6.8201,6.7919,6.7263,6.7165,6.6834,6.5862,6.5723,6.5489,6.5021,6.4685,6.4279,6.371,6.3552,6.2951,6.1656,6.1466,6.1119,6.0423,5.9728,5.938,5.938,5.8717,5.8338,5.8338,5.8352,5.7958,5.7295,5.6631,5.6315,5.6315,5.6347,5.6315,5.6315,5.6046,5.5698,5.5424,5.4712,5.4382,5.4419,5.3642,5.3568,5.3867,5.3605,5.35,5.3442,5.2885,5.3041,5.3411,5.304,5.3421,5.3923,5.3634,5.3585,5.3417,5.2456,5.1892,5.1287,5.0135,4.9834,4.9805,4.9805,4.9698,4.9494,4.8856,4.8275,4.7666,4.6981,4.668,4.6523,4.6476,4.6776,4.7204,4.7832,4.846,4.8731,4.8431,4.7893,4.7024,4.581,4.5101,4.4153,4.2798,4.2647,4.2404,4.1891,4.167,4.2097,4.3204,4.3756,4.3962,4.3797,4.3184,4.2754,4.2457,4.2721,4.3096,4.3625,4.478,4.6066,4.7516,4.8021,4.8695,4.9613,4.9897,5.001,4.9897,4.8695,4.7821,4.7087,4.5842,4.5584,4.5934,4.5958,4.6631,4.7497,6.8435,6.8083,6.789,6.7902,6.7198,6.6514,6.6282,6.5576,6.5148,6.5382,6.4899,6.4658,6.5037,6.4121,6.3362,6.3015,6.2003,6.134,6.115,6.0455,6.0044,6.0044,5.9412,5.9064,5.9064,5.8527,5.818,5.8022,5.7864,5.7814,5.7769,5.7585,5.7493,5.7493,5.6996,5.6524,5.6015,5.5463,5.491,5.4323,5.3943,5.3669,5.3605,5.35,5.3605,5.3785,5.3639,5.3972,5.4433,5.4073,5.4369,5.48,5.4268,5.4268,5.4161,5.2753,5.2131,5.1804,5.1308,5.0801,5.0423,5.0423,5.0095,4.9494,4.8856,4.8403,4.8019,4.7365,4.6919,4.6699,4.7182,4.7136,4.7271,4.7941,4.8195,4.8128,4.7647,4.6888,4.5848,4.4462,4.3416,4.2428,4.1395,4.1093,4.0869,4.0567,4.0516,4.0849,4.1762,4.1752,4.2283,4.3466,4.3105,4.2971,4.3041,4.3252,4.3818,4.4756,4.5085,4.6066,4.7516,4.8021,4.8695,4.9613,4.9897,5.001,4.9897,4.8695,4.7821,4.7112,4.6265,4.5925,4.5982,4.6367,4.6944,4.7497,6.8078,6.7638,6.7426,6.7674,6.7112,6.6565,6.6518,6.6145,6.5917,6.6038,6.5701,6.5511,6.5574,6.4931,6.431,6.3994,6.2667,6.1877,6.1877,6.1213,6.0803,6.0803,6.0139,5.9602,5.9317,5.8938,5.859,5.8321,5.8182,5.8058,5.7918,5.7684,5.7495,5.7322,5.6796,5.6311,5.5869,5.522,5.4611,5.4097,5.3815,5.3605,5.35,5.35,5.3658,5.3919,5.3919,5.4282,5.4751,5.4406,5.4641,5.4926,5.4333,5.42,5.4134,5.3202,5.269,5.2347,5.1751,5.1381,5.1033,5.0743,5.0444,4.9959,4.9291,4.8982,4.8537,4.776,4.7085,4.6658,4.6746,4.645,4.6338,4.6864,4.6895,4.6657,4.5996,4.5196,4.4166,4.2863,4.1826,4.0952,4.0211,3.9981,3.9902,3.9867,3.9892,4.0315,4.125,4.1052,4.1601,4.3144,4.284,4.2915,4.3336,4.3686,4.4141,4.4717,4.4962,4.5698,4.698,4.7656,4.8463,4.9385,4.984,5.001,4.9897,4.8695,4.7977,4.7436,4.6488,4.6168,4.6319,4.6607,4.704,4.7497,6.7475,6.7124,6.6963,6.7234,6.7017,6.6874,6.6867,6.6901,6.6849,6.6617,6.6565,6.6343,6.5744,6.5586,6.5218,6.4618,6.3293,6.2523,6.2523,6.194,6.1561,6.1561,6.0834,6.0202,5.9633,5.9365,5.8876,5.8182,5.7918,5.7637,5.7322,5.7036,5.6796,5.6506,5.5967,5.5571,5.527,5.456,5.4097,5.3815,5.3605,5.35,5.35,5.35,5.371,5.3942,5.3942,5.4333,5.4751,5.4406,5.4487,5.4568,5.4023,5.3867,5.3815,5.3553,5.3308,5.2909,5.21,5.1846,5.1614,5.0975,5.0743,5.054,4.9959,4.9461,4.8936,4.797,4.7085,4.633,4.5796,4.5254,4.4996,4.5209,4.5235,4.4943,4.415,4.3284,4.2371,4.136,4.0488,3.9823,3.9402,3.9349,3.9442,3.9589,3.9614,4.0055,4.1139,4.0957,4.1493,4.2821,4.2589,4.2804,4.3625,4.4045,4.4285,4.4285,4.4656,4.5306,4.6276,4.7205,4.8146,4.9072,4.967,5.0008,4.9975,4.8769,4.8229,4.7937,4.6774,4.6509,4.6728,4.68,4.7112,4.7497,6.698,6.7021,6.7267,6.7735,6.7367,6.7197,6.7558,6.7066,6.667,6.6617,6.6406,6.6214,6.612,6.5343,6.4883,6.502,6.3732,6.3047,6.3331,6.2667,6.2207,6.2207,6.1593,6.1182,6.1087,5.9696,5.8515,5.7637,5.7353,5.6988,5.6506,5.6213,5.5918,5.567,5.5149,5.4713,5.4458,5.4097,5.3815,5.3553,5.353,5.35,5.35,5.35,5.3815,5.4252,5.4252,5.4487,5.4751,5.4406,5.4149,5.3971,5.3658,5.3553,5.3553,5.35,5.3442,5.3408,5.3239,5.2833,5.2281,5.1643,5.1062,5.0577,5.0291,4.9381,4.8402,4.7503,4.6419,4.5528,4.4969,4.4377,4.4048,4.4071,4.4071,4.3782,4.2971,4.2116,4.1307,4.0695,3.9902,3.9379,3.9516,3.9564,3.9557,3.9575,3.9599,3.9864,4.0523,4.0925,4.1649,4.2769,4.2758,4.3205,4.4141,4.4237,4.4285,4.4285,4.4656,4.5208,4.5939,4.6849,4.7795,4.8695,4.9385,4.9909,5.0251,4.9258,4.8644,4.8266,4.7679,4.7142,4.6776,4.7209,4.7425,4.7497,6.5888,6.5747,6.5903,6.6743,6.6469,6.6392,6.7228,6.6953,6.6565,6.6406,6.6108,6.5768,6.5232,6.4621,6.4195,6.4119,6.3652,6.3358,6.3268,6.2725,6.2396,6.2396,6.213,6.1733,6.1208,5.9878,5.8664,5.7594,5.7205,5.6499,5.562,5.5371,5.5119,5.4815,5.4406,5.42,5.4045,5.3815,5.3605,5.35,5.35,5.35,5.35,5.35,5.3762,5.4097,5.4097,5.4282,5.4487,5.4178,5.3993,5.3867,5.3553,5.35,5.35,5.35,5.35,5.35,5.35,5.3297,5.292,5.2281,5.1802,5.1279,5.0679,4.9496,4.8299,4.7441,4.6062,4.4832,4.4152,4.3492,4.3048,4.2905,4.2905,4.2649,4.2013,4.1414,4.0813,4.03,3.9752,3.9485,3.9585,3.9609,3.9729,4.0018,4.0042,4.0258,4.0787,4.1317,4.1966,4.2795,4.3313,4.3842,4.4285,4.4285,4.4285,4.4285,4.447,4.4902,4.5574,4.6491,4.7656,4.8936,4.9694,5.039,5.0783,4.9864,4.9212,4.8761,4.8025,4.7483,4.7161,4.7425,4.7497,4.7497,6.4819,6.4537,6.4651,6.5514,6.5556,6.5746,6.6644,6.6649,6.6448,6.5919,6.5536,6.4878,6.3873,6.3401,6.3132,6.3047,6.3096,6.31,6.2911,6.2475,6.2266,6.2365,6.2315,6.1851,6.0962,5.9955,5.8888,5.7664,5.693,5.6092,5.5053,5.47,5.4385,5.4097,5.3919,5.3815,5.3815,5.3605,5.3617,5.3733,5.3733,5.382,5.3965,5.3965,5.4042,5.4253,5.4253,5.4241,5.4228,5.3967,5.3774,5.3605,5.3343,5.3372,5.3424,5.3424,5.3477,5.35,5.35,5.35,5.3332,5.2868,5.2347,5.1804,5.082,4.9442,4.8098,4.7002,4.552,4.4087,4.3129,4.2569,4.2142,4.1915,4.1883,4.1687,4.1149,4.0884,4.0546,4.0134,3.9888,3.9826,3.997,3.997,4.0138,4.0547,4.0691,4.0932,4.1341,4.199,4.2567,4.312,4.3914,4.4285,4.4285,4.4285,4.4285,4.4285,4.4285,4.4656,4.5331,4.619,4.7513,4.9153,5.0004,5.0815,5.146,5.0503,4.9806,4.9318,4.8323,4.7726,4.7497,4.7497,4.7497,4.7497,6.4035,6.4302,6.4594,6.4723,6.5404,6.5975,6.6071,6.6384,6.6154,6.4933,6.4305,6.3486,6.2299,6.1634,6.1494,6.2068,6.176,6.1787,6.225,6.1886,6.1916,6.2396,6.2166,6.1602,6.0615,5.9767,5.8735,5.7532,5.6384,5.5486,5.4879,5.4264,5.3815,5.3553,5.3553,5.35,5.35,5.35,5.3878,5.4429,5.4429,5.4778,5.5271,5.5271,5.5271,5.5271,5.5271,5.4703,5.405,5.3996,5.346,5.2787,5.2787,5.2947,5.3107,5.3107,5.3319,5.35,5.35,5.35,5.3448,5.3155,5.2378,5.1522,5.0642,4.8981,4.7212,4.5607,4.4249,4.3052,4.1907,4.1492,4.1287,4.1254,4.1254,4.1061,4.0531,4.0459,4.0435,4.0387,4.0331,4.0523,4.1028,4.1076,4.1076,4.1124,4.1581,4.187,4.1976,4.2856,4.3649,4.4141,4.4237,4.4285,4.4285,4.4285,4.4285,4.4285,4.4285,4.4656,4.5331,4.6035,4.7334,4.9153,4.9743,5.0853,5.2077,5.1049,5.04,4.9938,4.8893,4.8067,4.7497,4.7497,4.7497,4.7497,6.326,6.3243,6.3397,6.3811,6.4202,6.4767,6.5623,6.5208,6.4726,6.4457,6.3248,6.1965,6.0976,6.0279,5.9934,5.9932,6.0512,6.0852,6.0796,6.139,6.1763,6.1916,6.1664,6.1184,6.0445,5.974,5.8723,5.7351,5.6686,5.5782,5.4677,5.4793,5.4594,5.4139,5.4517,5.4691,5.4691,5.4691,5.4836,5.5068,5.5068,5.5213,5.5416,5.5416,5.5307,5.5143,5.5143,5.467,5.4,5.375,5.3386,5.2911,5.2911,5.3133,5.341,5.3823,5.3878,5.3709,5.3363,5.3259,5.316,5.2865,5.213,5.1176,5.0105,4.8584,4.6979,4.5572,4.4094,4.2881,4.2199,4.1619,4.1172,4.1172,4.1172,4.1124,4.0908,4.0884,4.0884,4.0884,4.0884,4.0956,4.1172,4.1485,4.1677,4.1677,4.2217,4.253,4.253,4.312,4.377,4.4261,4.4285,4.4285,4.4285,4.4285,4.4285,4.4285,4.4285,4.4656,4.5331,4.6323,4.7784,4.9677,5.0671,5.173,5.2722,5.1901,5.1101,5.0334,4.9332,4.8486,4.7762,4.7563,4.7497,4.7497,6.2661,6.2513,6.2572,6.3078,6.328,6.3653,6.4547,6.4038,6.3472,6.3164,6.1923,6.0611,5.9517,5.8929,5.8529,5.8449,5.927,5.9711,5.9529,6.0403,6.1098,6.1359,6.0969,6.0555,6.0053,5.9416,5.856,5.7437,5.6932,5.6103,5.5126,5.5221,5.5021,5.4674,5.4941,5.5143,5.5143,5.5143,5.5314,5.5542,5.5542,5.5713,5.5997,5.5887,5.5695,5.5417,5.5249,5.4601,5.378,5.3353,5.2897,5.2501,5.2386,5.2616,5.3074,5.3726,5.3726,5.3472,5.2939,5.2573,5.2339,5.2141,5.1457,5.0573,4.9362,4.798,4.6623,4.5388,4.4057,4.2988,4.2583,4.2093,4.1629,4.1461,4.1437,4.1365,4.1196,4.1172,4.1172,4.1172,4.1172,4.1172,4.1172,4.1677,4.1966,4.1849,4.2496,4.2892,4.2938,4.3333,4.3754,4.4137,4.4223,4.4285,4.4285,4.4285,4.4285,4.4285,4.4285,4.4728,4.5576,4.6623,4.8192,5.028,5.1334,5.2352,5.3193,5.243,5.1534,5.0652,4.95,4.8682,4.796,4.763,4.7497,4.7497,6.2396,6.2396,6.2396,6.2396,6.2764,6.2982,6.2663,6.2996,6.2601,6.0717,6.0246,5.9513,5.7951,5.7472,5.7416,5.7781,5.8059,5.8335,5.8694,5.8936,5.9583,6.0742,6.0189,5.9736,5.9469,5.8634,5.8059,5.7781,5.689,5.6403,5.6403,5.5406,5.5008,5.5008,5.4677,5.451,5.451,5.451,5.502,5.5902,5.5873,5.6472,5.7247,5.6993,5.6709,5.6279,5.5729,5.4667,5.3496,5.2788,5.1966,5.11,5.083,5.11,5.1747,5.2413,5.2586,5.2529,5.2154,5.1428,5.083,5.0877,5.0432,4.9673,4.8353,4.7146,4.592,4.4773,4.3989,4.3361,4.2916,4.2819,4.2651,4.2062,4.199,4.1798,4.1268,4.1196,4.1196,4.1196,4.1196,4.1196,4.1196,4.1677,4.1873,4.1519,4.2471,4.3071,4.3302,4.3615,4.3802,4.3802,4.4137,4.4285,4.4285,4.4285,4.4285,4.4285,4.4285,4.4922,4.6155,4.6772,4.8421,5.0856,5.152,5.2473,5.3531,5.2492,5.1721,5.0942,4.9629,4.8682,4.796,4.763,4.7497,4.7497,6.2396,6.2396,6.2396,6.2396,6.2173,6.2132,6.226,6.1375,6.0539,6.027,5.9199,5.832,5.7866,5.7472,5.736,5.7416,5.7781,5.8059,5.8335,5.828,5.8335,5.8689,5.8689,5.844,5.7944,5.7528,5.7163,5.6794,5.6565,5.6192,5.5762,5.5709,5.5339,5.4686,5.4767,5.4732,5.4499,5.4732,5.5134,5.5678,5.608,5.6423,5.668,5.6823,5.6423,5.5671,5.5057,5.4149,5.3085,5.1927,5.1204,5.0825,5.0949,5.1259,5.1663,5.209,5.2029,5.1705,5.0891,5.035,5.001,4.9898,4.9133,4.8088,4.6789,4.601,4.5354,4.456,4.3916,4.3457,4.3313,4.3,4.2771,4.2602,4.2578,4.253,4.2362,4.2338,4.2338,4.2338,4.2338,4.2338,4.2338,4.276,4.2928,4.2566,4.2715,4.2911,4.2949,4.3263,4.3553,4.3802,4.4137,4.4285,4.4285,4.4285,4.4285,4.4285,4.4669,4.5285,4.6179,4.7658,4.9186,5.0883,5.1918,5.2822,5.3531,5.2799,5.2032,5.1346,4.995,4.9032,4.8379,4.7696,4.7497,4.7497,6.2396,6.2396,6.2365,6.2266,6.1815,6.1432,6.1286,6.0168,5.9327,5.9224,5.8405,5.7725,5.7613,5.7416,5.7303,5.7303,5.7389,5.7445,5.7472,5.7276,5.6993,5.6737,5.6594,5.6566,5.6765,5.6337,5.5991,5.5643,5.5643,5.5445,5.5107,5.5182,5.4775,5.4121,5.4066,5.3872,5.3779,5.3932,5.4437,5.5116,5.5643,5.6049,5.6394,5.6222,5.5701,5.4998,5.4079,5.3113,5.213,5.1068,5.0334,4.9847,5.0206,5.0461,5.0652,5.0942,5.0942,5.0638,4.99,4.9368,4.8976,4.86,4.816,4.7434,4.6226,4.5687,4.5183,4.4457,4.4021,4.3842,4.3842,4.3601,4.3313,4.3096,4.3072,4.2976,4.2843,4.2819,4.2819,4.2819,4.2819,4.276,4.264,4.3035,4.3113,4.2584,4.2195,4.1998,4.1998,4.242,4.2949,4.3389,4.3888,4.4161,4.4285,4.4501,4.4597,4.4597,4.4933,4.5712,4.6819,4.8208,4.9645,5.1161,5.2209,5.2983,5.3531,5.2922,5.2218,5.1471,5.0104,4.9227,4.851,4.7762,4.7497,4.7497,6.2396,6.2365,6.2266,6.2016,6.1461,6.0794,5.9948,5.9339,5.8719,5.7892,5.7781,5.7669,5.7303,5.7303,5.7247,5.7247,5.6993,5.6652,5.6279,5.6019,5.5554,5.4911,5.4199,5.4378,5.5528,5.5029,5.4616,5.4318,5.4318,5.4318,5.4318,5.3959,5.3598,5.3268,5.257,5.2289,5.2342,5.235,5.3059,5.4259,5.4675,5.5381,5.6049,5.5205,5.4675,5.4139,5.2895,5.1783,5.0879,5.0142,4.9267,4.8576,4.8877,4.9007,4.9137,4.9396,4.9461,4.9396,4.9072,4.8571,4.7982,4.7361,4.7484,4.7483,4.6265,4.5768,4.5285,4.4467,4.4285,4.4285,4.4285,4.4285,4.4117,4.3673,4.3577,4.3433,4.2952,4.2904,4.2904,4.2844,4.2844,4.2724,4.2363,4.2644,4.2498,4.1697,4.1035,4.0647,4.0712,4.1357,4.2061,4.2759,4.3451,4.395,4.4285,4.4813,4.5077,4.5077,4.5173,4.6084,4.774,4.8494,4.9786,5.1596,5.228,5.2983,5.3531,5.2922,5.2218,5.1471,5.0104,4.9227,4.851,4.7762,4.7497,4.7497,6.2396,6.2216,6.2016,6.1734,6.0866,5.9978,5.9369,5.8609,5.7948,5.7472,5.7416,5.736,5.7303,5.7078,5.6993,5.6993,5.648,5.5961,5.5323,5.497,5.4556,5.3872,5.3234,5.2773,5.2562,5.2929,5.3078,5.3017,5.3017,5.3017,5.3017,5.2404,5.1944,5.1606,5.0942,5.0499,5.027,5.0842,5.1507,5.2315,5.3389,5.3959,5.4226,5.4226,5.3537,5.25,5.1408,5.0525,4.9758,4.8812,4.8158,4.7762,4.8158,4.842,4.8641,4.842,4.8576,4.8641,4.8026,4.7731,4.7659,4.7461,4.7496,4.7167,4.5619,4.5266,4.5059,4.4467,4.4285,4.4285,4.4285,4.4285,4.4237,4.4117,4.4117,4.4007,4.3617,4.3593,4.3493,4.3245,4.3183,4.3059,4.2747,4.2086,4.1351,4.0581,3.991,3.967,3.991,4.0538,4.1527,4.2759,4.3451,4.395,4.4285,4.4813,4.5077,4.5077,4.5982,4.6682,4.7377,4.8506,4.9849,5.1257,5.1908,5.2738,5.3531,5.2922,5.2218,5.1471,5.0104,4.9227,4.851,4.7762,4.7497,4.7497,6.2216,6.1866,6.1512,6.1072,6.0263,5.9469,5.8773,5.8169,5.7669,5.736,5.7191,5.7107,5.7107,5.6709,5.6308,5.5817,5.5351,5.4762,5.4139,5.3658,5.3113,5.2623,5.1944,5.1408,5.0931,5.1094,5.1346,5.1659,5.1659,5.1659,5.1659,5.1094,5.0715,5.0334,4.9668,4.9242,4.9162,4.9654,5.0334,5.122,5.2192,5.2807,5.3105,5.2746,5.213,5.1283,5.027,4.9461,4.8747,4.8026,4.763,4.7497,4.7696,4.7894,4.805,4.7828,4.7894,4.7984,4.763,4.7497,4.7497,4.7497,4.7497,4.7209,4.6126,4.5694,4.5293,4.4765,4.4453,4.4285,4.4285,4.4285,4.4285,4.4285,4.4285,4.4161,4.3864,4.3678,4.3365,4.2862,4.2673,4.2293,4.1655,4.0755,3.9975,3.9233,3.8726,3.8615,3.8946,3.9583,4.0625,4.2061,4.2736,4.3365,4.4075,4.4864,4.531,4.5525,4.6319,4.7044,4.7613,4.8624,4.9629,5.0689,5.1471,5.2156,5.2588,5.228,5.1659,5.0778,4.9758,4.8942,4.8248,4.7696,4.7497,4.7497,6.1815,6.1359,6.0845,6.0263,5.9683,5.8985,5.825,5.7892,5.7613,5.7247,5.705,5.688,5.6766,5.6077,5.5233,5.4259,5.3839,5.3416,5.2834,5.2253,5.1783,5.1346,5.0778,5.0359,5.004,4.9719,4.9847,5.0397,5.0397,5.0397,5.0334,4.9976,4.968,4.9332,4.8657,4.833,4.8445,4.8747,4.9436,5.0334,5.0968,5.1596,5.197,5.1131,5.0588,5.0142,4.9242,4.8486,4.7894,4.7563,4.7497,4.7497,4.7497,4.7563,4.7563,4.7497,4.7563,4.7563,4.7497,4.7497,4.7497,4.7497,4.7497,4.7377,4.6944,4.6439,4.591,4.5381,4.4861,4.4549,4.4549,4.4549,4.4463,4.4367,4.4281,4.407,4.3639,4.324,4.2736,4.2038,4.1527,4.0948,4.0018,3.932,3.8681,3.7996,3.7616,3.7616,3.7971,3.8615,3.967,4.11,4.1938,4.2812,4.3757,4.4951,4.5667,4.595,4.6518,4.722,4.796,4.8616,4.9332,5.0078,5.0968,5.1471,5.1596,5.1471,5.0905,5.0014,4.9307,4.8616,4.796,4.763,4.7497,4.7497,6.0949,6.0503,5.9948,5.9629,5.8931,5.825,5.7892,5.7613,5.7247,5.6993,5.6936,5.6709,5.6193,5.4998,5.3899,5.2956,5.2562,5.2094,5.1434,5.1309,5.0931,5.0295,5.0232,4.9976,4.9654,4.959,4.9654,4.9719,4.9719,4.959,4.9332,4.8967,4.8576,4.8223,4.7828,4.763,4.7696,4.8026,4.8396,4.8828,4.9565,4.9912,4.9976,4.9847,4.9371,4.8698,4.8264,4.7894,4.7563,4.7497,4.7497,4.7497,4.7497,4.7696,4.7894,4.7563,4.7696,4.7894,4.7563,4.7497,4.7497,4.7497,4.7497,4.7473,4.7425,4.6992,4.6463,4.5934,4.5766,4.5718,4.5718,4.5462,4.5103,4.4626,4.4325,4.3739,4.2679,4.2229,4.1591,4.0625,3.9648,3.9057,3.8925,3.8217,3.7683,3.728,3.6944,3.6876,3.7213,3.7863,3.8904,4.0279,4.1804,4.2894,4.3601,4.5302,4.6085,4.6174,4.7005,4.7425,4.7563,4.796,4.8682,4.9719,5.0142,5.0778,5.1534,5.0968,5.0461,5.0014,4.8958,4.833,4.796,4.763,4.7497,4.7563,6.0084,5.9606,5.9123,5.8852,5.8305,5.7892,5.7557,5.7247,5.705,5.6936,5.6279,5.5701,5.5233,5.3839,5.2623,5.1846,5.1471,5.1031,5.055,5.0359,5.0104,4.9847,4.9783,4.9719,4.959,4.959,4.959,4.959,4.9396,4.9267,4.9072,4.851,4.8182,4.796,4.763,4.7497,4.7497,4.7828,4.8092,4.8264,4.8812,4.9032,4.9032,4.8812,4.8461,4.8199,4.7828,4.763,4.7497,4.7497,4.7497,4.7497,4.7497,4.763,4.7696,4.7563,4.763,4.7696,4.7563,4.7497,4.7497,4.7497,4.7497,4.7497,4.7497,4.7197,4.6753,4.6422,4.6126,4.587,4.5677,4.5484,4.5195,4.4572,4.4137,4.359,4.2645,4.1837,4.0889,3.9639,3.8916,3.8439,3.8234,3.7892,3.7548,3.7203,3.7065,3.7134,3.7479,3.8009,3.8739,3.9685,4.0839,4.1839,4.2766,4.4199,4.5166,4.5611,4.6437,4.7098,4.7497,4.7828,4.8289,4.8747,4.9307,4.9719,4.9912,4.9847,4.9436,4.8853,4.8396,4.8026,4.7696,4.7563,4.763,4.7828]}]]